[[{"header":{"parameterUnit":"m.s-1","parameterCategory":1,"la1":31.0,"la2":29.5877,"lo1":-88.7671,"lo2":-86.6584,"dy":0.0162,"dx":0.0185,"nx":115,"ny":88,"refTime":"2023-09-04T06:00:00:Z","depth":0,"parameterNumber":2,"parameterNumberName":"U-component_of_WINDS"},"data":[0.0,0.0,0.0,0.0,0.0,0.0,0.0,0.0,0.0,0.0,0.0,0.0,0.0,0.0,0.0,0.0,0.0,0.0,0.0,0.0,0.0,0.0,0.0,0.0,0.0,0.0,0.0,0.0,0.0,0.0,0.0,0.0,0.0,0.0,0.0,0.0,0.0,0.0,0.0,0.0,0.0,0.0,0.0,0.0,0.0,0.0,0.0,0.0,0.0,0.0,0.0,0.0,0.0,0.0,0.0,0.0,0.0,0.0,0.0,0.0,0.0,0.0,0.0,0.0,0.0,0.0,0.0,0.0,0.0,0.0,0.0,0.0,0.0,0.0,0.0,0.0,0.0,0.0,0.0,0.0,0.0,0.0,0.0,0.0,0.0,0.0,0.0,0.0,0.0,0.0,0.0,0.0,0.0,0.0,0.0,0.0,0.0,0.0,0.0,0.0,0.0,0.0,0.0,0.0,0.0,0.0,0.0,0.0,0.0,0.0,0.0,0.0,0.0,0.0,0.0,0.0,0.0,0.0,0.0,0.0,0.0,0.0,0.0,0.0,0.0,0.0,0.0,0.0,0.0,0.0,0.0,0.0,0.0,0.0,0.0,0.0,0.0,0.0,0.0,0.0,0.0,0.0,0.0,0.0,0.0,0.0,0.0,0.0,0.0,0.0,0.0,0.0,0.0,0.0,0.0,0.0,0.0,0.0,0.0,0.0,0.0,0.0,0.0,0.0,0.0,0.0,0.0,0.0,0.0,0.0,0.0,0.0,0.0,0.0,0.0,0.0,0.0,0.0,0.0,0.0,0.0,0.0,0.0,0.0,0.0,0.0,0.0,0.0,0.0,0.0,0.0,0.0,0.0,0.0,0.0,0.0,0.0,0.0,0.0,0.0,0.0,0.0,0.0,0.0,0.0,0.0,0.0,0.0,0.0,0.0,0.0,0.0,0.0,0.0,0.0,0.0,0.0,0.0,0.0,0.0,0.0,0.0,0.0,0.0,0.0,0.0,0.0,0.0,0.0,0.0,0.0,0.0,0.0,0.0,0.0,0.0,0.0,0.0,0.0,0.0,0.0,0.0,0.0,0.0,0.0,0.0,0.0,0.0,0.0,0.0,0.0,0.0,0.0,0.0,0.0,0.0,0.0,0.0,0.0,0.0,0.0,0.0,0.0,0.0,0.0,0.0,0.0,0.0,0.0,0.0,0.0,0.0,0.0,0.0,0.0,0.0,0.0,0.0,0.0,0.0,0.0,0.0,0.0,0.0,0.0,0.0,0.0,0.0,0.0,0.0,0.0,0.0,0.0,0.0,0.0,0.0,0.0,0.0,0.0,0.0,0.0,0.0,0.0,0.0,0.0,0.0,0.0,0.0,0.0,0.0,0.0,0.0,0.0,0.0,0.0,0.0,0.0,0.0,0.0,0.0,0.0,0.0,0.0,0.0,0.0,0.0,0.0,0.0,0.0,0.0,0.0,0.0,0.0,0.0,0.0,0.0,0.0,0.0,0.0,0.0,0.0,0.0,0.0,0.0,0.0,0.0,0.0,0.0,0.0,0.0,0.0,0.0,0.0,0.0,0.0,0.0,0.0,0.0,0.0,0.0,0.0,0.0,0.0,0.0,0.0,0.0,0.0,0.0,0.0,0.0,0.0,0.0,0.0,0.0,0.0,0.0,0.0,0.0,0.0,0.0,0.0,0.0,0.0,0.0,0.0,0.0,0.0,0.0,0.0,0.0,0.0,0.0,0.0,0.0,0.0,0.0,0.0,0.0,0.0,0.0,0.0,0.0,0.0,0.0,0.0,0.0,0.0,0.0,0.0,0.0,0.0,0.0,0.0,0.0,0.0,0.0,0.0,0.0,0.0,0.0,0.0,0.0,0.0,0.0,0.0,0.0,0.0,0.0,0.0,0.0,0.0,0.0,0.0,0.0,0.0,0.0,0.0,0.0,0.0,0.0,0.0,0.0,0.0,0.0,0.0,0.0,0.0,0.0,0.0,0.0,0.0,0.0,0.0,0.0,0.0,0.0,0.0,0.0,0.0,0.0,0.0,0.0,0.0,0.0,0.0,0.0,0.0,0.0,0.0,0.0,0.0,0.0,0.0,0.0,0.0,0.0,0.0,0.0,0.0,0.0,0.0,0.0,0.0,0.0,0.0,0.0,0.0,0.0,0.0,0.0,0.0,0.0,0.0,0.0,0.0,0.0,0.0,0.0,0.0,0.0,0.0,0.0,0.0,0.0,0.0,0.0,0.0,0.0,0.0,0.0,0.0,0.0,0.0,0.0,0.0,0.0,0.0,0.0,0.0,0.0,0.0,0.0,0.0,0.0,0.0,0.0,0.0,0.0,0.0,0.0,0.0,0.0,0.0,0.0,0.0,0.0,0.0,0.0,0.0,0.0,0.0,0.0,0.0,0.0,0.0,0.0,0.0,0.0,0.0,0.0,0.0,0.0,0.0,0.0,0.0,0.0,0.0,0.0,0.0,0.0,0.0,0.0,0.0,0.0,0.0,0.0,0.0,0.0,0.0,0.0,0.0,0.0,0.0,0.0,0.0,0.0,0.0,0.0,0.0,0.0,0.0,0.0,0.0,0.0,0.0,0.0,0.0,0.0,0.0,0.0,0.0,0.0,0.0,0.0,0.0,0.0,0.0,0.0,0.0,0.0,0.0,0.0,0.0,0.0,0.0,0.0,0.0,0.0,0.0,0.0,0.0,0.0,0.0,0.0,0.0,0.0,0.0,0.0,0.0,0.0,0.0,0.0,0.0,0.0,0.0,0.0,0.0,0.0,0.0,0.0,0.0,0.0,0.0,0.0,0.0,0.0,0.0,0.0,0.0,0.0,0.0,0.0,0.0,0.0,0.0,0.0,0.0,0.0,0.0,0.0,0.0,0.0,0.0,0.0,0.0,0.0,0.0,0.0,0.0,0.0,0.0,0.0,0.0,0.0,0.0,0.0,0.0,0.0,0.0,0.0,0.0,0.0,0.0,0.0,0.0,0.0,0.0,0.0,0.0,0.0,0.0,0.0,0.0,0.0,0.0,0.0,0.0,0.0,0.0,0.0,0.0,0.0,0.0,0.0,0.0,0.0,0.0,0.0,0.0,0.0,0.0,0.0,0.0,0.0,0.0,0.0,0.0,0.0,0.0,0.0,0.0,0.0,0.0,0.0,0.0,0.0,0.0,0.0,0.0,0.0,0.0,0.0,0.0,0.0,0.0,0.0,0.0,0.0,0.0,0.0,0.0,0.0,0.0,0.0,0.0,0.0,0.0,0.0,0.0,0.0,0.0,0.0,0.0,0.0,0.0,0.0,0.0,0.0,0.0,0.0,0.0,0.0,0.0,0.0,0.0,0.0,0.0,0.0,0.0,0.0,0.0,0.0,0.0,0.0,0.0,0.0,0.0,0.0,0.0,0.0,0.0,0.0,0.0,0.0,0.0,0.0,0.0,0.0,0.0,0.0,0.0,0.0,0.0,0.0,0.0,0.0,0.0,0.0,0.0,0.0,0.0,0.0,0.0,0.0,0.0,0.0,0.0,0.0,0.0,0.0,0.0,0.0,0.0,0.0,0.0,0.0,0.0,0.0,0.0,0.0,0.0,0.0,0.0,0.0,0.0,0.0,0.0,0.0,0.0,0.0,0.0,0.0,0.0,0.0,0.0,0.0,0.0,0.0,0.0,0.0,0.0,0.0,0.0,0.0,0.0,0.0,0.0,0.0,0.0,0.0,0.0,0.0,0.0,0.0,0.0,0.0,0.0,0.0,0.0,0.0,0.0,0.0,0.0,0.0,0.0,0.0,0.0,0.0,0.0,0.0,0.0,0.0,0.0,0.0,0.0,0.0,0.0,0.0,0.0,0.0,0.0,0.0,0.0,0.0,0.0,0.0,0.0,0.0,0.0,0.0,0.0,0.0,0.0,0.0,0.0,0.0,0.0,0.0,0.0,0.0,0.0,0.0,0.0,0.0,0.0,0.0,0.0,0.0,0.0,0.0,0.0,0.0,0.0,0.0,0.0,0.0,0.0,0.0,0.0,0.0,0.0,0.0,0.0,0.0,0.0,0.0,0.0,0.0,0.0,0.0,0.0,0.0,0.0,0.0,0.0,0.0,0.0,0.0,0.0,0.0,0.0,0.0,0.0,0.0,0.0,0.0,0.0,0.0,0.0,0.0,0.0,0.0,0.0,0.0,0.0,0.0,0.0,0.0,0.0,0.0,0.0,0.0,0.0,0.0,0.0,0.0,0.0,0.0,0.0,0.0,0.0,0.0,0.0,0.0,0.0,0.0,-0.4692,0.0,0.0,0.0,0.0,0.0,0.0,0.0,0.0,0.0,0.0,0.0,0.0,0.0,0.0,0.0,0.0,0.0,0.0,0.0,0.0,0.0,0.0,0.0,0.0,0.0,0.0,0.0,0.0,0.0,0.0,0.0,0.0,0.0,0.0,0.0,0.0,0.0,0.0,0.0,0.0,0.0,0.0,0.0,0.0,0.0,0.0,0.0,0.0,0.0,0.0,0.0,0.0,0.0,0.0,0.0,0.0,0.0,0.0,0.0,0.0,0.0,0.0,0.0,0.0,0.0,0.0,0.0,0.0,0.0,0.0,0.0,0.0,0.0,0.0,0.0,0.0,0.0,0.0,0.0,0.0,0.0,0.0,0.0,0.0,0.0,0.0,0.0,0.0,0.0,0.0,0.0,0.0,0.0,0.0,0.0,0.0,0.0,0.0,0.0,0.0,0.0,0.0,0.0,0.0,0.0,0.0,0.0,0.0,0.0,0.0,-0.6002,-0.5991,-0.5956,-0.5852,-0.572,0.0,0.0,0.0,0.0,0.0,0.0,0.0,0.0,0.0,0.0,0.0,0.0,0.0,0.0,0.0,0.0,0.0,0.0,0.0,0.0,0.0,0.0,0.0,0.0,0.0,0.0,0.0,0.0,0.0,0.0,0.0,0.0,0.0,0.0,0.0,0.0,0.0,0.0,0.0,0.0,0.0,0.0,0.0,0.0,0.0,0.0,0.0,0.0,0.0,0.0,0.0,0.0,0.0,0.0,0.0,0.0,0.0,0.0,0.0,0.0,0.0,0.0,0.0,0.0,0.0,0.0,0.0,0.0,0.0,0.0,0.0,0.0,0.0,0.0,0.0,0.0,0.0,0.0,0.0,0.0,0.0,0.0,0.0,0.0,0.0,0.0,0.0,0.0,0.0,0.0,0.0,0.0,0.0,0.0,0.0,0.0,0.0,0.0,0.0,0.0,0.0,0.0,0.0,0.0,0.0,0.0,0.0,0.0,0.0,0.0,0.0,0.0,-0.6702,-0.6597,-0.6569,0.0,0.0,0.0,0.0,0.0,0.0,0.0,0.0,0.0,0.0,0.0,0.0,0.0,0.0,0.0,0.0,0.0,0.0,0.0,0.0,0.0,0.0,0.0,0.0,0.0,0.0,0.0,0.0,0.0,0.0,0.0,0.0,0.0,0.0,0.0,0.0,0.0,0.0,0.0,0.0,0.0,0.0,0.0,0.0,0.0,0.0,0.0,0.0,0.0,0.0,0.0,0.0,0.0,0.0,0.0,0.0,0.0,0.0,0.0,0.0,0.0,0.0,0.0,0.0,0.0,0.0,0.0,0.0,0.0,0.0,0.0,0.0,0.0,0.0,0.0,0.0,0.0,0.0,0.0,0.0,0.0,0.0,0.0,0.0,0.0,0.0,0.0,0.0,0.0,0.0,0.0,0.0,0.0,0.0,0.0,0.0,0.0,0.0,0.0,0.0,0.0,0.0,0.0,0.0,0.0,0.0,0.0,0.0,0.0,0.0,-0.7853,-0.8116,-0.7889,0.0,-0.687,0.0,0.0,0.0,0.0,0.0,0.0,0.0,0.0,0.0,0.0,0.0,0.0,0.0,0.0,0.0,0.0,0.0,0.0,0.0,0.0,0.0,0.0,0.0,0.0,0.0,0.0,0.0,0.0,0.0,0.0,0.0,0.0,0.0,0.0,0.0,0.0,0.0,0.0,0.0,0.0,0.0,0.0,0.0,0.0,0.0,0.0,0.0,0.0,0.0,0.0,0.0,0.0,0.0,0.0,0.0,0.0,0.0,0.0,0.0,0.0,0.0,0.0,0.0,0.0,0.0,0.0,0.0,0.0,0.0,0.0,0.0,0.0,0.0,0.0,0.0,0.0,0.0,0.0,0.0,0.0,0.0,0.0,0.0,0.0,0.0,0.0,0.0,0.0,0.0,0.0,0.0,0.0,0.0,0.0,0.0,0.0,0.0,0.0,0.0,0.0,0.0,0.0,0.0,0.0,0.0,0.0,0.0,0.0,0.0,0.0,-0.8842,-0.9419,-0.8968,-0.8526,0.0,0.0,0.0,0.0,0.0,0.0,0.0,0.0,0.0,0.0,0.0,0.0,0.0,0.0,0.0,0.0,0.0,0.0,0.0,0.0,0.0,0.0,0.0,0.0,0.0,0.0,0.0,0.0,0.0,0.0,0.0,0.0,0.0,0.0,0.0,0.0,0.0,0.0,0.0,0.0,0.0,0.0,0.0,0.0,0.0,0.0,0.0,0.0,0.0,0.0,0.0,0.0,0.0,0.0,0.0,0.0,0.0,0.0,0.0,0.0,0.0,0.0,0.0,0.0,0.0,0.0,0.0,0.0,0.0,0.0,0.0,0.0,0.0,0.0,0.0,0.0,0.0,0.0,0.0,0.0,0.0,0.0,0.0,0.0,0.0,0.0,0.0,0.0,0.0,0.0,0.0,0.0,0.0,0.0,0.0,0.0,0.0,0.0,0.0,0.0,0.0,0.0,0.0,0.0,0.0,0.0,0.0,0.0,0.0,0.0,-0.9366,-0.9581,-1.0092,-0.9383,-0.9006,-0.908,0.0,0.0,0.0,0.0,0.0,0.0,0.0,0.0,0.0,0.0,0.0,0.0,0.0,0.0,0.0,0.0,0.0,0.0,0.0,0.0,0.0,0.0,0.0,0.0,0.0,0.0,0.0,0.0,0.0,0.0,0.0,0.0,0.0,0.0,0.0,0.0,0.0,0.0,0.0,0.0,0.0,0.0,0.0,0.0,0.0,0.0,0.0,0.0,0.0,0.0,0.0,0.0,0.0,0.0,0.0,0.0,0.0,0.0,0.0,0.0,0.0,0.0,0.0,0.0,0.0,0.0,0.0,0.0,0.0,0.0,0.0,0.0,0.0,0.0,0.0,0.0,0.0,0.0,0.0,0.0,0.0,0.0,0.0,0.0,0.0,0.0,0.0,0.0,0.0,0.0,0.0,0.0,0.0,0.0,0.0,0.0,0.0,0.0,0.0,0.0,0.0,0.0,0.0,0.0,0.0,0.0,0.0,0.0,-1.0813,-1.0394,-1.0085,-1.0004,-0.8815,-0.8551,0.0,0.0,0.0,0.0,0.0,0.0,0.0,0.0,0.0,0.0,0.0,0.0,0.0,0.0,0.0,0.0,0.0,0.0,0.0,0.0,0.0,0.0,0.0,0.0,0.0,0.0,0.0,0.0,0.0,0.0,0.0,0.0,0.0,0.0,0.0,0.0,0.0,0.0,0.0,0.0,0.0,0.0,0.0,0.0,0.0,0.0,0.0,0.0,0.0,0.0,0.0,0.0,0.0,0.0,0.0,0.0,0.0,0.0,0.0,0.0,0.0,0.0,0.0,0.0,0.0,0.0,0.0,0.0,0.0,0.0,0.0,0.0,0.0,0.0,0.0,0.0,0.0,0.0,0.0,0.0,0.0,0.0,0.0,0.0,0.0,0.0,0.0,0.0,0.0,0.0,0.0,0.0,0.0,0.0,0.0,0.0,0.0,0.0,0.0,0.0,0.0,0.0,0.0,0.0,0.0,0.0,0.0,0.0,0.0,-1.0297,-1.0678,-1.0645,-1.0153,-1.0049,-1.0092,0.0,0.0,0.0,0.0,0.0,0.0,0.0,0.0,0.0,0.0,0.0,0.0,0.0,0.0,0.0,0.0,0.0,0.0,0.0,0.0,0.0,0.0,0.0,0.0,0.0,0.0,0.0,0.0,0.0,0.0,0.0,0.0,0.0,0.0,0.0,0.0,0.0,0.0,0.0,0.0,0.0,0.0,0.0,0.0,0.0,0.0,0.0,0.0,0.0,0.0,0.0,0.0,0.0,0.0,0.0,0.0,0.0,0.0,0.0,0.0,0.0,0.0,0.0,0.0,0.0,0.0,0.0,0.0,0.0,0.0,0.0,0.0,0.0,0.0,0.0,0.0,0.0,0.0,0.0,0.0,0.0,0.0,0.0,0.0,0.0,0.0,0.0,0.0,0.0,0.0,0.0,0.0,0.0,0.0,0.0,0.0,0.0,0.0,0.0,0.0,0.0,0.0,0.0,0.0,0.0,0.0,0.0,0.0,0.0,-1.0638,0.0,-1.1429,-1.0854,-1.0939,-1.1002,0.0,0.0,0.0,0.0,0.0,0.0,0.0,0.0,0.0,0.0,0.0,0.0,0.0,0.0,0.0,0.0,0.0,0.0,0.0,0.0,0.0,0.0,0.0,0.0,0.0,0.0,0.0,0.0,0.0,0.0,0.0,0.0,0.0,0.0,0.0,0.0,0.0,0.0,0.0,0.0,0.0,0.0,0.0,0.0,0.0,0.0,0.0,0.0,0.0,0.0,0.0,0.0,0.0,0.0,0.0,0.0,0.0,0.0,0.0,0.0,0.0,0.0,0.0,0.0,0.0,0.0,0.0,0.0,0.0,0.0,0.0,0.0,0.0,0.0,0.0,0.0,0.0,0.0,0.0,0.0,0.0,0.0,0.0,0.0,0.0,0.0,0.0,0.0,0.0,0.0,0.0,0.0,0.0,0.0,0.0,0.0,0.0,0.0,0.0,0.0,0.0,0.0,0.0,0.0,0.0,0.0,0.0,0.0,-1.1125,-1.2021,-1.236,-1.2373,-1.2088,-1.1367,-1.1138,0.0,0.0,0.0,0.0,0.0,0.0,0.0,0.0,0.0,0.0,0.0,0.0,0.0,0.0,0.0,0.0,0.0,0.0,0.0,0.0,0.0,0.0,0.0,0.0,0.0,0.0,0.0,0.0,0.0,0.0,0.0,0.0,0.0,0.0,0.0,0.0,0.0,0.0,0.0,0.0,0.0,0.0,0.0,0.0,0.0,0.0,0.0,0.0,0.0,0.0,0.0,0.0,0.0,0.0,0.0,0.0,0.0,0.0,0.0,0.0,0.0,0.0,0.0,0.0,0.0,0.0,0.0,0.0,0.0,0.0,0.0,0.0,0.0,0.0,0.0,0.0,0.0,0.0,0.0,0.0,0.0,0.0,0.0,0.0,0.0,0.0,0.0,0.0,0.0,0.0,0.0,0.0,0.0,0.0,0.0,0.0,0.0,0.0,0.0,0.0,0.0,0.0,0.0,0.0,0.0,0.0,0.0,0.0,0.0,-1.1271,-1.2021,-1.2466,-1.2612,-1.2411,-1.246,0.0,0.0,0.0,0.0,0.0,0.0,0.0,0.0,0.0,0.0,0.0,0.0,0.0,0.0,0.0,0.0,0.0,0.0,0.0,0.0,0.0,0.0,0.0,0.0,0.0,0.0,0.0,0.0,0.0,0.0,0.0,0.0,0.0,0.0,0.0,0.0,0.0,0.0,0.0,0.0,0.0,0.0,0.0,0.0,0.0,0.0,0.0,0.0,0.0,0.0,0.0,0.0,0.0,0.0,0.0,0.0,0.0,0.0,0.0,0.0,0.0,0.0,0.0,0.0,0.0,0.0,0.0,0.0,0.0,0.0,0.0,0.0,0.0,0.0,0.0,0.0,0.0,0.0,0.0,0.0,0.0,0.0,0.0,0.0,0.0,0.0,0.0,0.0,0.0,0.0,0.0,0.0,0.0,0.0,0.0,0.0,0.0,0.0,0.0,0.0,0.0,0.0,0.0,0.0,0.0,0.0,0.0,0.0,0.0,-1.1455,-1.2454,-1.308,-1.3218,-1.3161,-1.3196,-1.326,0.0,0.0,0.0,0.0,0.0,0.0,0.0,0.0,0.0,0.0,0.0,0.0,0.0,0.0,0.0,0.0,0.0,0.0,0.0,0.0,0.0,0.0,0.0,0.0,0.0,0.0,0.0,0.0,0.0,0.0,0.0,0.0,0.0,0.0,0.0,0.0,0.0,0.0,0.0,0.0,0.0,0.0,0.0,0.0,0.0,0.0,0.0,0.0,0.0,0.0,0.0,0.0,0.0,0.0,0.0,0.0,0.0,0.0,0.0,0.0,0.0,0.0,0.0,0.0,0.0,0.0,0.0,0.0,0.0,0.0,0.0,0.0,0.0,0.0,0.0,0.0,0.0,0.0,0.0,0.0,0.0,0.0,0.0,0.0,0.0,0.0,0.0,0.0,0.0,0.0,0.0,0.0,0.0,0.0,0.0,0.0,0.0,0.0,0.0,0.0,0.0,0.0,0.0,0.0,0.0,0.0,0.0,0.0,-1.2234,-1.3485,-1.4013,-1.375,-1.3651,-1.3415,0.0,0.0,0.0,0.0,0.0,0.0,0.0,0.0,0.0,0.0,0.0,0.0,0.0,0.0,0.0,0.0,0.0,0.0,0.0,0.0,0.0,0.0,0.0,0.0,0.0,0.0,0.0,0.0,0.0,0.0,0.0,0.0,0.0,0.0,0.0,0.0,0.0,0.0,0.0,0.0,0.0,0.0,0.0,0.0,0.0,0.0,0.0,0.0,0.0,0.0,0.0,0.0,0.0,0.0,0.0,0.0,0.0,0.0,0.0,0.0,0.0,0.0,0.0,0.0,0.0,0.0,0.0,0.0,0.0,0.0,0.0,0.0,0.0,0.0,0.0,0.0,0.0,0.0,0.0,0.0,0.0,0.0,0.0,0.0,0.0,0.0,0.0,0.0,0.0,0.0,0.0,0.0,0.0,0.0,0.0,0.0,0.0,0.0,0.0,0.0,0.0,0.0,0.0,0.0,0.0,0.0,0.0,0.0,0.0,-1.2738,-1.3454,-1.3963,-1.4187,-1.3867,-1.3779,0.0,0.0,0.0,0.0,0.0,0.0,0.0,0.0,0.0,0.0,0.0,0.0,0.0,0.0,0.0,0.0,0.0,0.0,0.0,0.0,0.0,0.0,0.0,0.0,0.0,0.0,0.0,0.0,0.0,0.0,0.0,0.0,0.0,0.0,0.0,0.0,0.0,0.0,0.0,0.0,0.0,0.0,0.0,0.0,0.0,0.0,0.0,0.0,0.0,0.0,0.0,0.0,0.0,0.0,0.0,0.0,0.0,0.0,0.0,0.0,0.0,0.0,0.0,0.0,0.0,0.0,0.0,0.0,0.0,0.0,0.0,0.0,0.0,0.0,0.0,0.0,0.0,0.0,0.0,0.0,0.0,0.0,0.0,0.0,0.0,0.0,0.0,0.0,0.0,0.0,0.0,0.0,0.0,0.0,0.0,0.0,0.0,0.0,0.0,0.0,0.0,0.0,0.0,0.0,0.0,0.0,0.0,0.0,-1.3215,-1.3248,-1.374,-1.4134,-1.4396,-1.3729,-1.3543,0.0,0.0,0.0,0.0,0.0,0.0,0.0,0.0,0.0,0.0,0.0,0.0,0.0,0.0,0.0,0.0,0.0,0.0,0.0,0.0,0.0,0.0,0.0,0.0,0.0,0.0,0.0,0.0,0.0,0.0,0.0,0.0,0.0,0.0,0.0,0.0,0.0,0.0,0.0,0.0,0.0,0.0,0.0,0.0,0.0,0.0,0.0,0.0,0.0,0.0,0.0,0.0,0.0,0.0,0.0,0.0,0.0,0.0,0.0,0.0,0.0,0.0,0.0,0.0,0.0,0.0,0.0,0.0,0.0,0.0,0.0,0.0,0.0,0.0,0.0,0.0,0.0,0.0,0.0,0.0,0.0,0.0,0.0,0.0,0.0,0.0,0.0,0.0,0.0,0.0,0.0,0.0,0.0,0.0,0.0,0.0,0.0,0.0,0.0,0.0,0.0,0.0,0.0,0.0,0.0,0.0,0.0,0.0,-1.4188,-1.3773,-1.4168,-1.4377,-1.4344,-1.3434,-1.309,0.0,0.0,0.0,0.0,0.0,0.0,0.0,0.0,0.0,0.0,0.0,0.0,0.0,0.0,0.0,0.0,0.0,0.0,0.0,0.0,0.0,0.0,0.0,0.0,0.0,0.0,0.0,0.0,0.0,0.0,0.0,0.0,0.0,0.0,0.0,0.0,0.0,0.0,0.0,0.0,0.0,0.0,0.0,0.0,0.0,0.0,0.0,0.0,0.0,0.0,0.0,0.0,0.0,0.0,0.0,0.0,0.0,0.0,0.0,0.0,0.0,0.0,0.0,0.0,0.0,0.0,0.0,0.0,0.0,0.0,0.0,0.0,0.0,0.0,0.0,0.0,0.0,0.0,0.0,0.0,0.0,0.0,0.0,0.0,0.0,0.0,0.0,0.0,0.0,0.0,0.0,0.0,0.0,0.0,0.0,0.0,0.0,0.0,0.0,0.0,0.0,0.0,0.0,0.0,0.0,0.0,0.0,0.0,-1.4292,-1.4092,-1.4192,-1.4237,-1.4237,-1.3355,-1.3296,0.0,0.0,0.0,0.0,0.0,0.0,0.0,0.0,0.0,0.0,0.0,0.0,0.0,0.0,0.0,0.0,0.0,0.0,0.0,0.0,0.0,0.0,0.0,0.0,0.0,0.0,0.0,0.0,0.0,0.0,0.0,0.0,0.0,0.0,0.0,0.0,0.0,0.0,0.0,0.0,0.0,0.0,0.0,0.0,0.0,0.0,0.0,0.0,-1.4255,0.0,0.0,0.0,0.0,0.0,0.0,0.0,0.0,0.0,0.0,0.0,0.0,0.0,0.0,0.0,0.0,0.0,0.0,0.0,0.0,0.0,0.0,0.0,0.0,0.0,0.0,0.0,0.0,0.0,0.0,0.0,0.0,0.0,0.0,0.0,0.0,0.0,0.0,0.0,0.0,0.0,0.0,0.0,0.0,0.0,0.0,0.0,0.0,0.0,0.0,0.0,0.0,0.0,0.0,0.0,0.0,0.0,0.0,0.0,-1.4437,-1.454,-1.4529,-1.4618,-1.4783,-1.4127,-1.4009,0.0,0.0,0.0,0.0,0.0,0.0,0.0,0.0,0.0,0.0,0.0,0.0,0.0,0.0,0.0,0.0,0.0,0.0,0.0,0.0,0.0,0.0,0.0,0.0,0.0,0.0,0.0,0.0,0.0,0.0,0.0,0.0,0.0,0.0,0.0,0.0,0.0,0.0,0.0,0.0,0.0,0.0,0.0,0.0,0.0,0.0,0.0,0.0,0.0,0.0,0.0,0.0,0.0,0.0,0.0,0.0,0.0,0.0,0.0,0.0,0.0,0.0,0.0,0.0,0.0,0.0,0.0,0.0,0.0,0.0,0.0,0.0,0.0,0.0,0.0,0.0,0.0,0.0,0.0,0.0,0.0,0.0,0.0,0.0,0.0,0.0,0.0,0.0,0.0,0.0,0.0,0.0,0.0,0.0,0.0,0.0,0.0,0.0,0.0,0.0,0.0,0.0,0.0,0.0,0.0,0.0,0.0,-1.4407,-1.4558,-1.488,-1.4971,-1.5164,-1.5501,-1.514,-1.4988,-1.5054,0.0,0.0,0.0,0.0,0.0,0.0,0.0,0.0,0.0,0.0,0.0,0.0,0.0,0.0,0.0,0.0,0.0,0.0,0.0,0.0,0.0,0.0,0.0,0.0,0.0,0.0,0.0,0.0,0.0,0.0,0.0,0.0,0.0,0.0,0.0,0.0,0.0,0.0,-1.1757,-1.3038,0.0,0.0,0.0,0.0,0.0,0.0,0.0,0.0,-1.5842,0.0,0.0,0.0,0.0,0.0,0.0,0.0,0.0,0.0,0.0,0.0,0.0,0.0,0.0,0.0,0.0,0.0,0.0,0.0,0.0,0.0,0.0,0.0,0.0,0.0,0.0,0.0,0.0,0.0,0.0,0.0,0.0,0.0,0.0,0.0,0.0,0.0,0.0,0.0,0.0,0.0,0.0,0.0,0.0,0.0,0.0,0.0,0.0,0.0,0.0,0.0,0.0,0.0,0.0,0.0,0.0,-1.4384,-1.4407,-1.457,-1.4915,-1.5266,-1.5524,-1.5591,-1.5891,-1.6102,-1.6188,0.0,0.0,0.0,0.0,0.0,0.0,0.0,0.0,0.0,0.0,0.0,0.0,0.0,0.0,0.0,0.0,0.0,0.0,0.0,0.0,0.0,0.0,0.0,0.0,0.0,0.0,0.0,0.0,0.0,0.0,0.0,0.0,0.0,0.0,0.0,0.0,0.0,0.0,0.0,-1.4378,-1.5166,0.0,0.0,0.0,0.0,0.0,0.0,0.0,0.0,-1.6291,0.0,0.0,0.0,0.0,0.0,0.0,0.0,0.0,0.0,0.0,0.0,0.0,0.0,0.0,0.0,0.0,0.0,0.0,0.0,0.0,0.0,0.0,0.0,0.0,0.0,0.0,0.0,0.0,0.0,0.0,0.0,0.0,0.0,0.0,0.0,0.0,0.0,0.0,0.0,0.0,0.0,0.0,0.0,0.0,0.0,0.0,0.0,0.0,0.0,0.0,0.0,0.0,0.0,0.0,0.0,-1.4361,-1.4407,-1.4558,-1.4903,-1.5355,-1.5591,-1.558,-1.625,-1.6539,0.0,0.0,0.0,0.0,0.0,0.0,0.0,0.0,0.0,0.0,0.0,0.0,0.0,0.0,0.0,0.0,0.0,0.0,0.0,0.0,0.0,0.0,0.0,0.0,0.0,0.0,0.0,0.0,0.0,0.0,0.0,0.0,0.0,0.0,0.0,0.0,0.0,0.0,0.0,0.0,-1.5291,-1.6261,-1.685,0.0,0.0,0.0,0.0,0.0,0.0,-1.7378,-1.7408,0.0,0.0,0.0,0.0,0.0,0.0,0.0,0.0,0.0,0.0,0.0,0.0,0.0,0.0,0.0,0.0,0.0,0.0,0.0,0.0,0.0,0.0,0.0,0.0,0.0,0.0,0.0,0.0,0.0,0.0,0.0,0.0,0.0,0.0,0.0,0.0,0.0,0.0,0.0,0.0,0.0,0.0,0.0,0.0,0.0,0.0,0.0,0.0,0.0,0.0,0.0,0.0,0.0,0.0,0.0,-1.4257,-1.435,-1.4535,-1.48,-1.5277,-1.5457,-1.5434,-1.6262,-1.6586,0.0,0.0,0.0,0.0,0.0,0.0,0.0,0.0,0.0,0.0,0.0,0.0,0.0,0.0,0.0,0.0,0.0,0.0,0.0,0.0,0.0,0.0,0.0,0.0,0.0,0.0,0.0,0.0,0.0,0.0,0.0,0.0,0.0,0.0,0.0,0.0,0.0,0.0,0.0,0.0,0.0,-1.7346,-1.7346,-1.7951,0.0,0.0,0.0,0.0,-1.8081,-1.8433,0.0,0.0,0.0,0.0,0.0,0.0,0.0,0.0,0.0,0.0,0.0,0.0,0.0,0.0,0.0,0.0,0.0,0.0,0.0,0.0,0.0,0.0,0.0,0.0,0.0,0.0,0.0,0.0,0.0,0.0,0.0,0.0,0.0,0.0,0.0,0.0,0.0,0.0,0.0,0.0,0.0,0.0,0.0,0.0,0.0,0.0,0.0,0.0,0.0,0.0,0.0,0.0,0.0,0.0,0.0,0.0,-1.3858,-1.4221,-1.4419,-1.4466,-1.4915,-1.5142,-1.5153,-1.5768,-1.6241,0.0,0.0,0.0,0.0,0.0,0.0,0.0,0.0,0.0,0.0,0.0,0.0,0.0,0.0,0.0,0.0,0.0,0.0,0.0,0.0,0.0,0.0,0.0,0.0,0.0,0.0,0.0,0.0,0.0,0.0,0.0,0.0,0.0,0.0,0.0,0.0,0.0,0.0,0.0,0.0,0.0,-1.8345,-1.8787,-1.8599,-1.8517,0.0,0.0,-1.8621,-1.944,-1.9606,0.0,0.0,0.0,0.0,0.0,0.0,0.0,0.0,0.0,0.0,0.0,0.0,0.0,0.0,0.0,0.0,0.0,0.0,0.0,0.0,0.0,0.0,0.0,0.0,0.0,0.0,0.0,0.0,0.0,0.0,0.0,0.0,0.0,0.0,0.0,0.0,0.0,0.0,0.0,0.0,0.0,0.0,0.0,0.0,0.0,0.0,0.0,0.0,0.0,0.0,0.0,0.0,0.0,0.0,0.0,-1.3526,-1.4164,-1.4344,-1.4524,-1.4801,-1.5004,-1.4971,-1.472,-1.5546,-1.5944,0.0,0.0,0.0,0.0,0.0,0.0,0.0,0.0,0.0,0.0,0.0,0.0,0.0,0.0,0.0,0.0,0.0,0.0,0.0,0.0,0.0,0.0,0.0,0.0,0.0,0.0,0.0,0.0,0.0,0.0,0.0,0.0,0.0,0.0,0.0,0.0,0.0,0.0,0.0,0.0,0.0,0.0,-1.8964,-1.9113,0.0,0.0,0.0,-1.9347,-1.973,0.0,0.0,0.0,0.0,0.0,0.0,0.0,0.0,0.0,0.0,0.0,0.0,0.0,0.0,0.0,0.0,0.0,0.0,0.0,0.0,0.0,0.0,0.0,0.0,0.0,0.0,0.0,0.0,0.0,0.0,0.0,0.0,0.0,0.0,0.0,0.0,0.0,0.0,0.0,0.0,0.0,0.0,0.0,0.0,0.0,0.0,0.0,0.0,0.0,0.0,0.0,0.0,0.0,0.0,0.0,0.0,0.0,-1.4054,-1.4281,-1.4591,-1.4936,-1.4954,-1.4799,-1.4595,-1.5313,0.0,0.0,0.0,0.0,0.0,0.0,0.0,0.0,0.0,0.0,0.0,0.0,0.0,0.0,0.0,0.0,0.0,0.0,0.0,0.0,0.0,0.0,0.0,0.0,0.0,0.0,0.0,-1.0474,0.0,0.0,0.0,0.0,0.0,0.0,0.0,0.0,0.0,0.0,0.0,0.0,0.0,0.0,-1.8866,-1.9028,-1.9333,-1.9702,0.0,0.0,-1.9844,-1.9938,-2.0296,-2.0213,0.0,0.0,0.0,0.0,0.0,0.0,0.0,0.0,0.0,0.0,0.0,0.0,0.0,0.0,0.0,0.0,0.0,0.0,0.0,0.0,0.0,0.0,0.0,0.0,0.0,0.0,0.0,0.0,0.0,0.0,0.0,0.0,0.0,0.0,0.0,0.0,0.0,0.0,0.0,0.0,0.0,0.0,0.0,0.0,0.0,0.0,0.0,0.0,0.0,0.0,0.0,0.0,0.0,0.0,0.0,-1.2866,-1.3864,-1.4453,-1.4546,-1.4495,-1.465,-1.5039,-1.4965,-1.504,0.0,0.0,0.0,0.0,0.0,0.0,0.0,0.0,0.0,0.0,0.0,0.0,0.0,0.0,0.0,0.0,0.0,0.0,0.0,0.0,0.0,0.0,0.0,0.0,0.0,0.0,0.0,0.0,0.0,0.0,0.0,0.0,0.0,0.0,0.0,0.0,0.0,0.0,0.0,0.0,0.0,-1.8014,-1.9272,-1.9126,-1.9353,0.0,0.0,-1.9938,-2.0281,-2.0726,-2.0472,-1.8745,0.0,0.0,0.0,0.0,0.0,0.0,0.0,0.0,0.0,0.0,0.0,0.0,0.0,0.0,0.0,0.0,0.0,0.0,0.0,0.0,0.0,0.0,0.0,0.0,0.0,0.0,0.0,0.0,0.0,0.0,0.0,0.0,0.0,0.0,0.0,0.0,0.0,0.0,0.0,0.0,0.0,0.0,0.0,0.0,0.0,0.0,0.0,0.0,0.0,0.0,0.0,0.0,0.0,-1.375,-1.3866,-1.4253,-1.4733,-1.5238,-1.4708,-1.4607,-1.5105,-1.4917,-1.4868,0.0,0.0,0.0,0.0,0.0,0.0,0.0,0.0,0.0,0.0,0.0,0.0,0.0,0.0,0.0,0.0,0.0,0.0,0.0,0.0,0.0,0.0,0.0,0.0,0.0,0.0,0.0,0.0,-1.0214,-1.0433,-1.0236,0.0,0.0,0.0,0.0,0.0,0.0,0.0,0.0,0.0,0.0,-1.823,-1.9171,-1.9151,0.0,0.0,-2.0256,-2.0149,-2.037,-2.054,-2.023,-1.9036,-1.8984,0.0,0.0,0.0,0.0,0.0,0.0,0.0,0.0,0.0,0.0,0.0,0.0,0.0,0.0,0.0,0.0,0.0,0.0,0.0,0.0,0.0,0.0,0.0,0.0,0.0,0.0,0.0,0.0,0.0,0.0,0.0,0.0,0.0,0.0,0.0,0.0,0.0,0.0,0.0,0.0,0.0,0.0,0.0,0.0,0.0,0.0,0.0,0.0,0.0,0.0,0.0,0.0,-1.4127,-1.4212,-1.4506,-1.4872,-1.5243,-1.4584,-1.4393,-1.4715,-1.4517,-1.4465,0.0,0.0,0.0,0.0,0.0,0.0,0.0,0.0,0.0,0.0,0.0,0.0,0.0,0.0,0.0,0.0,0.0,0.0,0.0,0.0,0.0,0.0,0.0,0.0,0.0,0.0,0.0,0.0,-1.0218,-1.0443,-1.0847,0.0,0.0,0.0,0.0,0.0,0.0,0.0,0.0,0.0,0.0,-1.8147,-1.8991,-1.8898,-1.9052,-1.9845,-1.9832,-1.9908,-2.0359,-2.0437,-2.0236,-1.9687,0.0,0.0,0.0,0.0,0.0,0.0,0.0,0.0,0.0,0.0,0.0,0.0,0.0,0.0,0.0,0.0,0.0,0.0,0.0,0.0,0.0,0.0,0.0,0.0,0.0,0.0,0.0,0.0,0.0,0.0,0.0,0.0,0.0,0.0,0.0,0.0,0.0,0.0,0.0,0.0,0.0,0.0,0.0,0.0,0.0,0.0,0.0,0.0,0.0,0.0,0.0,0.0,0.0,-1.4121,-1.3378,-1.4506,-1.4754,-1.4101,-1.3896,-1.3851,-1.3922,-1.363,-1.3671,-1.4199,0.0,0.0,0.0,0.0,0.0,0.0,0.0,0.0,0.0,0.0,0.0,0.0,0.0,0.0,0.0,0.0,0.0,0.0,0.0,0.0,0.0,0.0,0.0,0.0,0.0,0.0,-1.2223,-1.1012,-1.0559,0.0,0.0,0.0,0.0,0.0,0.0,0.0,0.0,0.0,0.0,-1.7035,-1.7444,-1.877,-1.8269,-1.8162,-1.9279,-1.9032,-1.9139,-2.0309,-2.0481,-2.0554,0.0,0.0,0.0,0.0,0.0,0.0,0.0,0.0,0.0,0.0,0.0,0.0,0.0,0.0,0.0,0.0,0.0,0.0,0.0,0.0,0.0,0.0,0.0,0.0,0.0,0.0,0.0,-1.159,-1.1142,0.0,0.0,0.0,0.0,0.0,0.0,0.0,0.0,0.0,0.0,0.0,-1.2017,-1.2211,0.0,0.0,0.0,0.0,0.0,0.0,0.0,0.0,0.0,0.0,0.0,0.0,-1.4524,-1.4504,-1.4874,-1.4852,-1.4396,-1.406,-1.3883,-1.3892,-1.3581,-1.3515,-1.38,0.0,0.0,0.0,0.0,0.0,0.0,0.0,0.0,0.0,0.0,0.0,0.0,0.0,0.0,0.0,0.0,0.0,0.0,0.0,0.0,0.0,0.0,0.0,0.0,0.0,-1.2199,0.0,0.0,0.0,0.0,0.0,0.0,0.0,0.0,0.0,0.0,0.0,-1.5528,-1.7192,-1.7111,-1.7175,-1.7909,-1.7752,-1.799,0.0,0.0,0.0,0.0,0.0,0.0,0.0,0.0,0.0,0.0,0.0,0.0,0.0,0.0,-1.9803,-1.9009,-1.8682,-1.8708,-1.9213,0.0,0.0,0.0,0.0,0.0,0.0,0.0,0.0,0.0,0.0,0.0,0.0,0.0,0.0,0.0,0.0,-1.1737,0.0,0.0,0.0,0.0,0.0,0.0,0.0,0.0,-1.1657,-1.1737,-1.165,-1.1856,-1.1948,0.0,-1.1897,-1.1747,0.0,0.0,0.0,0.0,0.0,0.0,0.0,0.0,-1.4444,-1.4504,-1.4559,-1.436,-1.3939,-1.3543,-1.3312,-1.3281,-1.3223,-1.3288,-1.3522,-1.3881,-1.4186,0.0,0.0,0.0,0.0,0.0,0.0,0.0,0.0,0.0,0.0,0.0,0.0,0.0,0.0,0.0,0.0,0.0,0.0,0.0,0.0,0.0,0.0,0.0,-1.1966,0.0,0.0,0.0,0.0,0.0,0.0,0.0,0.0,0.0,-1.5736,-1.5712,-1.6037,-1.7317,-1.7488,-1.7543,-1.7646,0.0,0.0,0.0,0.0,0.0,0.0,0.0,-1.9421,-1.9634,-1.9947,-2.0215,-2.018,-2.09,-2.117,-2.0443,0.0,0.0,-1.9322,-1.908,-1.925,-1.9917,-1.9945,-2.0179,-2.1199,-2.1426,-2.1565,0.0,0.0,0.0,0.0,0.0,0.0,0.0,0.0,-1.2749,-1.2532,0.0,-1.2183,0.0,0.0,0.0,0.0,0.0,0.0,0.0,0.0,-1.0658,-1.0724,-1.0465,-1.046,-1.046,-1.046,-1.1347,-1.1748,-1.1734,-1.1465,0.0,0.0,0.0,0.0,0.0,0.0,-1.3797,-1.3477,-1.3568,-1.3324,-1.2718,-1.2428,-1.2209,-1.2072,-1.2482,-1.2894,-1.3365,-1.429,-1.4831,-1.4756,-1.4721,0.0,0.0,0.0,0.0,0.0,0.0,0.0,0.0,0.0,0.0,0.0,0.0,0.0,0.0,0.0,0.0,0.0,0.0,0.0,0.0,-1.3159,0.0,0.0,0.0,0.0,0.0,0.0,0.0,0.0,0.0,0.0,-1.4456,-1.5753,-1.6886,-1.7263,0.0,0.0,0.0,0.0,-1.7783,-1.7499,-1.7478,-1.79,-1.9054,-1.9457,-1.9912,-2.0876,0.0,0.0,-1.9734,-2.0018,-2.0247,-1.9998,-2.0447,-2.0535,-1.976,-1.921,-1.9304,-2.0641,-2.0655,-2.0943,-2.2036,-2.223,-2.2271,-1.3646,0.0,0.0,0.0,0.0,-1.3019,-1.2893,-1.3157,-1.232,-1.1659,-1.1128,-1.0988,0.0,0.0,0.0,0.0,0.0,0.0,-1.074,-1.0644,-1.0793,-1.0942,-1.1027,-1.1032,-1.1027,-1.1064,-1.1122,-1.1164,-1.1142,-1.0847,-1.1512,-1.3081,0.0,0.0,0.0,0.0,-1.3694,-1.3813,-1.367,-1.326,-1.2514,-1.1991,-1.1445,-1.0905,-1.1023,-1.1481,-1.2297,-1.2633,-1.3228,-1.4081,-1.3715,0.0,0.0,0.0,0.0,0.0,0.0,0.0,0.0,0.0,0.0,0.0,0.0,0.0,0.0,0.0,0.0,0.0,0.0,0.0,-1.2752,-1.2003,-1.1689,0.0,0.0,0.0,0.0,0.0,0.0,0.0,0.0,0.0,-1.3933,-1.4684,-1.5496,0.0,0.0,-1.6081,-1.5738,-1.5881,-1.6079,-1.6308,0.0,0.0,0.0,-1.8979,-1.9656,-2.0122,-2.0518,-2.0893,-2.1049,-2.1187,-2.116,-2.0825,-2.0905,-2.0857,-2.0349,-2.0107,-2.0039,-2.0209,-2.0375,-2.0814,-2.1654,-2.1889,-2.2114,-1.3226,-1.3021,-1.3169,-1.3243,-1.315,-1.2519,-1.2471,-1.2734,-1.1947,-1.1373,-1.1054,-1.0862,-1.0513,-1.014,-1.0367,0.0,0.0,0.0,-1.03,-1.0096,-1.0091,-1.0115,-1.025,-1.0207,-1.0207,-1.0236,-1.0329,-1.0386,-1.0423,-1.0428,-1.1059,-1.2289,0.0,0.0,-1.373,-1.3398,-1.3301,-1.3489,-1.3004,-1.2545,-1.2163,-1.1586,-1.0983,-1.0446,-1.0524,-1.0954,-1.1706,-1.1856,-1.2338,-1.3272,-1.2962,-1.2846,0.0,0.0,0.0,0.0,0.0,0.0,0.0,0.0,0.0,0.0,0.0,-1.3445,-1.2909,0.0,0.0,0.0,-1.2954,-1.2777,-1.224,-1.1785,0.0,0.0,0.0,0.0,0.0,0.0,0.0,-1.3427,-1.3633,-1.384,-1.3837,-1.4164,-1.4641,-1.5358,-1.5777,-1.5809,-1.5375,0.0,-1.6143,-1.6169,-1.6827,-1.7399,-1.7427,-1.8094,-1.8672,-1.8887,-1.935,-1.9861,-2.0243,-2.0321,-2.0286,-2.0208,-2.0173,-2.0193,-2.0171,-1.9999,-1.9991,-2.0325,-2.0585,-2.0948,-2.1566,-2.1689,-2.1811,-1.231,-1.191,-1.1755,-1.1815,-1.1948,-1.184,-1.184,-1.1794,-1.1557,-1.1413,-1.1397,-1.1221,-1.1005,-1.0779,-1.0887,0.0,-0.9931,-1.0237,-0.9793,-0.8775,-0.8808,-0.8714,-0.8612,-0.8596,-0.8588,-0.8584,-0.9123,-0.9442,-0.9592,-0.9973,-1.0433,-1.0903,-1.1404,-1.2233,-1.3308,-1.2922,-1.2669,-1.2694,-1.1835,-1.1492,-1.1636,-1.1112,-1.0696,-1.0371,-1.0661,-1.0997,-1.147,-1.1721,-1.2043,-1.2457,-1.2451,-1.242,-1.242,0.0,0.0,0.0,0.0,0.0,0.0,0.0,0.0,0.0,0.0,0.0,0.0,0.0,0.0,0.0,-1.2724,0.0,-1.2022,-1.2191,0.0,0.0,0.0,-1.3253,-1.328,-1.348,-1.3547,-1.334,0.0,0.0,-1.4122,0.0,-1.4372,-1.4947,-1.6053,-1.6601,-1.6012,-1.6539,-1.6981,-1.6191,-1.6545,-1.6807,-1.6762,-1.7157,-1.7537,-1.7747,-1.7601,-1.7918,-1.8249,-1.8284,-1.8375,-1.8718,-1.8746,-1.8907,-1.9489,-1.9097,-1.915,-2.0489,-2.0837,-2.1087,-2.137,-2.1495,-2.1461,-1.1053,-1.0183,-1.0139,-1.1033,-1.2353,-1.137,-1.1115,-1.1293,-1.0337,-0.9926,-0.9913,-0.9729,-0.9579,-0.9544,-0.9583,-0.9493,-0.9301,-0.9246,-0.9042,-0.8812,-0.8686,-0.8649,-0.8604,-0.8465,-0.84,-0.8384,-0.8376,-0.8363,-0.8404,-0.8522,-0.9046,-0.9947,-1.0121,-1.0668,-1.1496,-1.1645,-1.1729,-1.1723,-1.1508,-1.1095,-1.052,-1.037,-1.0139,-0.9869,-0.9924,-1.0365,-1.1145,-1.1234,-1.1661,-1.2427,-1.2027,-1.1756,-1.1732,-1.1296,0.0,0.0,0.0,0.0,0.0,0.0,0.0,0.0,0.0,-1.2883,-1.1922,0.0,-1.2743,0.0,-1.2315,-1.2452,-1.2839,-1.2777,0.0,0.0,-1.346,-1.3586,-1.3854,-1.3935,-1.4041,-1.4195,-1.4335,-1.4416,-1.4422,-1.4416,-1.4355,-1.4343,-1.4455,-1.4467,-1.4376,-1.4506,-1.4532,-1.4381,-1.5214,-1.5891,-1.5843,-1.6715,-1.7494,-1.779,-1.779,-1.7866,-1.7954,-1.797,-1.7994,-1.8117,-1.8125,-1.8181,-1.8292,-1.8209,-1.8189,-1.8649,-1.9408,-2.0035,-2.0175,-2.0506,-2.0744,-1.0205,-0.9734,-0.9611,-1.0304,-1.1342,-1.056,-1.0299,-1.0431,-0.9719,-0.9404,-0.9388,-0.9173,-0.9141,-0.9261,-0.9257,-0.9214,-0.9249,-0.9104,-0.897,-0.8812,-0.869,-0.8567,-0.8438,-0.8256,-0.8162,-0.8162,-0.8061,-0.7971,-0.7906,-0.7975,-0.8271,-0.8831,-0.8912,-0.916,-0.9644,-1.0581,-1.1201,-1.1594,-1.1471,-1.1029,-1.0347,-1.0187,-0.995,-0.9729,-0.9813,-1.0132,-1.0657,-1.0791,-1.1124,-1.1617,-1.1296,-1.1115,-1.109,-1.0905,-1.0822,0.0,0.0,0.0,0.0,0.0,0.0,0.0,0.0,0.0,0.0,0.0,-1.271,-1.2485,-1.2612,-1.2899,-1.3327,-1.3247,-1.3333,-1.3794,-1.3841,-1.3908,-1.4075,-1.4195,-1.4295,-1.4322,-1.4442,-1.4516,-1.4516,-1.405,-1.3931,-1.4406,-1.3422,-1.2967,-1.3793,-1.4137,-1.4252,-1.3998,-1.4737,-1.5335,-1.52,-1.5847,-1.6455,-1.658,-1.6617,-1.6624,-1.6624,-1.6624,-1.6624,-1.6617,-1.6617,-1.6749,-1.7129,-1.6837,-1.6705,-1.718,-1.7589,-1.8164,-1.8756,-1.9445,-1.9833,-0.9713,-0.9835,-0.9689,-0.9713,-0.9839,-0.9693,-0.9624,-0.9616,-0.9458,-0.9437,-0.9429,-0.9234,-0.9246,-0.9437,-0.9408,-0.9404,-0.94,-0.9351,-0.9116,-0.8816,-0.8621,-0.849,-0.8284,-0.8101,-0.8004,-0.7983,-0.7979,-0.7894,-0.7771,-0.7898,-0.7914,-0.7845,-0.7943,-0.8024,-0.809,-0.9507,-1.0661,-1.1469,-1.1384,-1.1054,-1.0553,-1.0256,-1.0016,-0.9873,-0.997,-1.0076,-1.018,-1.0486,-1.064,-1.0646,-1.068,-1.0707,-1.0707,-1.0909,-1.1062,0.0,-1.1342,0.0,0.0,0.0,0.0,0.0,0.0,0.0,0.0,-1.2993,-1.2973,-1.324,-1.33,-1.3427,-1.364,-1.366,-1.3773,-1.4102,-1.4014,-1.3965,-1.3979,-1.406,-1.4069,-1.3822,-1.4011,-1.4161,-1.4067,-1.3244,-1.312,-1.3938,-1.2655,-1.1975,-1.3345,-1.401,-1.4141,-1.4098,-1.4456,-1.4624,-1.4807,-1.4892,-1.495,-1.4919,-1.498,-1.4894,-1.495,-1.495,-1.4919,-1.4919,-1.498,-1.5208,-1.5958,-1.5436,-1.5222,-1.5914,-1.5857,-1.6107,-1.7321,-1.8249,-1.849,-0.9595,-0.9623,-0.9591,-0.9644,-0.9673,-0.9591,-0.9624,-0.9624,-0.9592,-0.9575,-0.9575,-0.9494,-0.9543,-0.9567,-0.9469,-0.9404,-0.9388,-0.9051,-0.8885,-0.8808,-0.8491,-0.8325,-0.828,-0.8101,-0.7943,-0.7853,-0.7849,-0.7755,-0.7575,-0.7759,-0.7862,-0.7963,-0.7996,-0.8089,-0.8215,0.0,0.0,0.0,-1.0521,-1.063,-1.0278,-1.011,-1.0269,-1.0709,-1.0015,0.0,-1.0488,-1.0794,-1.0948,-1.0955,-1.1136,0.0,0.0,0.0,0.0,0.0,0.0,0.0,0.0,0.0,0.0,0.0,-1.358,-1.33,-1.3227,-1.3367,-1.3453,-1.352,-1.3781,-1.3941,-1.3995,-1.4008,-1.4115,-1.4352,-1.3722,-1.3237,-1.3243,-1.2616,-1.2181,-1.2241,-1.2275,-1.2342,-1.233,-1.2081,-1.1959,-1.2076,-1.147,-1.1292,-1.1761,-1.2003,-1.2005,-1.1965,-1.2689,-1.3434,-1.4163,-1.4226,-1.413,-1.4249,-1.4255,-1.4219,-1.4163,-1.4206,-1.4255,-1.4219,-1.4291,-1.4305,-1.4561,-1.4377,-1.4374,-1.4504,-1.4499,-1.4795,-1.5963,-1.671,-1.7121,-0.8432,0.0,-0.8432,-0.8432,0.0,-0.8399,-0.8363,-0.8416,-0.9198,-0.925,-0.8901,-0.851,-0.8363,-0.836,-0.8277,-0.8203,-0.8052,-0.7848,-0.7911,-0.8135,-0.7895,-0.7947,-0.8284,-0.8016,-0.7886,-0.7918,-0.7743,-0.7665,-0.7665,-0.7755,-0.7845,-0.7886,-0.7967,-0.802,-0.8061,-0.78,-0.8141,-0.9097,-0.9761,-1.0037,-0.9865,-0.9621,-0.9661,-0.9962,0.0,0.0,0.0,0.0,0.0,0.0,0.0,0.0,0.0,0.0,0.0,-1.1257,-1.1267,-1.1441,-1.1872,-1.2029,-1.2282,-1.2668,-1.2536,-1.2625,-1.3044,-1.2826,-1.2601,-1.2607,-1.2662,-1.2759,-1.288,-1.2854,-1.2903,-1.3029,-1.2595,-1.229,-1.2194,-1.1916,-1.1673,-1.1581,-1.1701,-1.1733,-1.1559,-1.1115,-1.1017,-1.1059,-1.0241,-0.9877,-1.0344,-1.0816,-1.1176,-1.13,-1.1623,-1.214,-1.25,-1.2675,-1.2675,-1.2522,-1.254,-1.2523,-1.249,-1.2807,-1.3105,-1.3268,-1.357,-1.3901,-1.4055,-1.4088,-1.4088,-1.4088,-1.4088,-1.4249,-1.4901,-1.5538,-1.5925,-0.7185,-0.7185,-0.7185,-0.7223,-0.7192,-0.7131,-0.7102,-0.711,0.0,0.0,0.0,-0.7334,-0.7093,-0.7093,-0.7071,-0.6891,-0.6688,-0.6657,-0.6898,-0.7305,-0.7116,-0.7346,-0.7885,-0.7659,-0.7541,-0.7626,-0.7386,-0.7407,-0.7641,-0.7676,-0.7773,-0.7866,-0.7992,-0.7971,-0.7845,-0.7694,-0.7923,-0.8567,-0.9085,-0.9353,-0.9348,-0.9051,-0.8972,-0.9078,-0.8895,-0.8869,-0.9015,-0.9694,-1.0073,-1.0073,-1.0114,-1.0453,-1.1055,-1.0151,-0.9865,-1.0477,-1.0367,-1.0324,-1.0595,-1.0796,-1.1048,-1.1365,-1.1213,-1.1538,-1.2613,-1.2004,-1.1579,-1.1611,-1.1413,-1.1386,-1.1609,-1.16,-1.1595,-1.1625,-1.1465,-1.1282,-1.1173,-1.1201,-1.1061,-1.0924,-1.0968,-1.1087,-1.074,-1.0106,-0.9847,-1.0139,-0.9269,-0.8489,-0.9147,-0.9868,-1.0494,-1.0857,-1.0978,-1.1043,-1.1117,-1.1315,-1.1149,-1.117,-1.1067,-1.0968,-1.1018,-1.1387,-1.1955,-1.2497,-1.3007,-1.3537,-1.3986,-1.4088,-1.4046,-1.387,-1.4004,-1.4039,-1.3948,-1.4538,-1.495,-0.7185,-0.7185,-0.7185,-0.7171,-0.7113,-0.7091,-0.695,-0.6799,-0.7185,-0.7284,-0.7143,-0.7048,-0.7001,-0.6995,-0.6836,-0.6762,-0.6679,-0.6514,-0.6491,0.0,-0.6418,-0.6395,-0.6481,-0.6443,-0.6331,-0.6207,-0.6312,-0.6634,-0.7102,-0.721,-0.7578,-0.8127,-0.8243,-0.8158,-0.7992,-0.7951,-0.798,-0.8093,-0.8579,-0.8808,-0.8803,-0.8596,-0.8808,-0.9341,-0.8598,-0.8423,-0.898,-0.9389,-0.9605,-0.9605,-0.9838,-1.0016,-1.009,-0.9926,-0.9879,-1.0013,-1.0171,-1.0392,-1.0595,-1.0867,-1.1197,-1.1619,-1.0869,-1.0716,-1.1429,-1.1419,-1.1407,-1.1584,-1.1325,-1.1461,-1.1751,-1.1485,-1.1372,-1.174,-1.0975,-1.0453,-1.0454,-0.9813,-0.9276,-0.9156,-0.902,-0.9065,-0.8961,-0.8866,-0.8784,-0.8547,-0.8417,-0.834,-0.8464,-0.8564,-0.9052,-0.9733,-1.0048,-1.0385,-1.0803,-1.1236,-1.1048,-1.1241,-1.0931,-1.0783,-1.0889,-1.097,-1.1379,-1.2403,-1.2626,-1.3062,-1.3779,-1.4088,-1.3659,-1.3094,-1.3398,-1.3695,-1.3137,-1.373,-1.425,-0.5884,-0.5884,-0.5884,-0.5874,-0.5769,-0.5694,-0.5549,-0.5408,-0.5496,-0.5782,-0.6114,-0.5748,-0.5562,-0.556,-0.5511,-0.5456,-0.5395,-0.53,-0.5453,-0.5852,-0.5797,-0.5987,-0.6284,-0.6214,-0.619,-0.6153,-0.6072,-0.6207,-0.6561,-0.6626,-0.7001,-0.7688,-0.8079,-0.83,-0.8343,-0.8113,-0.8061,-0.815,-0.8213,-0.8265,-0.8321,-0.8177,-0.8234,-0.857,-0.8103,-0.7972,-0.8194,-0.876,-0.907,-0.9075,-0.917,-0.9448,-0.9857,-0.9064,-0.8803,-0.9193,-0.9043,-0.9011,-0.9177,-0.9489,-0.9798,-1.003,-0.9606,-0.9482,-0.9781,-0.9914,-0.9972,-1.0051,-0.9932,-0.9932,-1.0176,-1.0041,-1.0004,-1.0226,-0.9759,-0.945,-0.9411,-0.9038,-0.8694,-0.8624,-0.8616,-0.858,-0.8494,-0.8559,-0.8518,-0.8211,-0.8109,-0.8057,-0.8012,-0.8049,-0.8243,-0.8826,-0.8907,-0.9001,-0.9395,-0.9456,-0.9419,-0.9272,-0.9249,-0.9286,-0.9431,-0.9627,-1.0223,-1.0921,-1.1387,-1.1914,-1.2535,-1.2571,-1.2357,-1.2186,-1.2229,-1.2448,-1.2705,-1.344,-1.4046,-0.4744,-0.4775,-0.4726,-0.4726,-0.4636,-0.4449,-0.4338,-0.4302,-0.43,-0.4651,-0.5077,-0.463,-0.4358,-0.4404,-0.4358,-0.4365,-0.4306,-0.4297,-0.461,-0.5104,-0.5146,-0.5411,-0.5888,-0.5796,-0.5848,-0.5869,-0.566,-0.5704,-0.5961,-0.6013,-0.6362,-0.7052,-0.7748,-0.8202,-0.8332,-0.8195,-0.8211,-0.8363,-0.8,-0.7862,-0.7947,-0.7824,-0.7735,-0.7735,-0.7694,-0.7586,-0.7526,-0.8049,-0.8391,-0.8428,-0.8437,-0.8732,-0.9253,-0.8203,-0.7787,-0.8298,-0.8004,-0.7793,-0.8008,-0.8316,-0.8571,-0.8612,-0.8616,-0.8616,-0.8624,-0.8686,-0.8779,-0.8792,-0.8755,-0.8742,-0.8931,-0.8845,-0.8779,-0.8812,-0.8783,-0.8751,-0.8641,-0.8616,-0.8616,-0.8616,-0.8616,-0.86,-0.8567,-0.8588,-0.8551,-0.8396,-0.8057,-0.7833,-0.789,-0.7837,-0.7877,-0.8086,-0.8077,-0.8082,-0.7845,-0.8016,-0.7996,-0.7626,-0.7778,-0.8009,-0.8119,-0.8444,-0.902,-0.9697,-1.027,-1.0874,-1.1182,-1.1365,-1.1278,-1.1111,-1.1284,-1.1585,-1.2192,-1.279,-1.3652,-0.4675,-0.4649,-0.4652,-0.4545,-0.4421,-0.4394,-0.4381,-0.4304,-0.4297,-0.4346,-0.445,-0.4312,-0.4314,-0.4312,-0.4314,-0.431,-0.4297,-0.4297,-0.4344,-0.4431,-0.4387,-0.4433,-0.4565,-0.451,-0.4467,-0.4518,-0.4539,-0.4882,-0.5429,-0.5481,-0.5836,-0.6498,-0.7204,-0.7555,-0.7658,-0.8213,-0.8519,-0.8532,-0.8178,-0.7923,-0.782,-0.7645,-0.7547,-0.7504,-0.7362,-0.7342,-0.7464,-0.7371,-0.7434,-0.7579,-0.7633,-0.7672,-0.771,-0.7599,-0.7561,-0.7595,-0.7581,-0.7655,-0.7979,-0.8203,-0.8385,-0.8592,-0.8596,-0.8596,-0.8604,-0.8576,-0.8658,-0.8747,-0.8706,-0.871,-0.8995,-0.8783,-0.8666,-0.8775,-0.8686,-0.8624,-0.862,-0.8616,-0.8616,-0.8616,-0.8616,-0.8551,-0.8402,-0.8479,-0.8548,-0.8502,-0.8114,-0.7902,-0.8077,-0.7824,-0.7649,-0.7837,-0.7906,-0.7979,-0.7947,-0.7992,-0.7943,-0.791,-0.7873,-0.7865,-0.7951,-0.797,-0.8269,-0.917,-0.9672,-1.0087,-1.0739,-1.1235,-1.0895,-1.0332,-1.0593,-1.1284,-1.1413,-1.1628,-1.2277,-0.4655,-0.4621,-0.4619,-0.452,-0.439,-0.4377,-0.4334,-0.43,-0.4297,-0.4297,-0.4297,-0.4297,-0.4297,-0.4297,-0.4297,-0.4297,-0.4297,-0.4297,-0.4297,-0.4297,-0.4297,-0.4297,-0.4297,-0.4297,-0.4297,-0.4297,-0.4297,-0.4433,-0.479,-0.5191,-0.5549,-0.5858,-0.6517,-0.6827,-0.6915,-0.758,-0.7937,-0.7973,-0.8091,-0.8142,-0.8048,-0.7793,-0.7686,-0.7638,-0.7616,-0.7464,-0.735,-0.7354,-0.7366,-0.7346,-0.7423,-0.7518,-0.7518,-0.7518,-0.7518,-0.7526,-0.7629,-0.7747,-0.7854,-0.8028,-0.8158,-0.8239,-0.8239,-0.828,-0.839,-0.8445,-0.8479,-0.8669,-0.8653,-0.8682,-0.8804,-0.8653,-0.8601,-0.8649,-0.8649,-0.8612,-0.8616,-0.8612,-0.8616,-0.8616,-0.8612,-0.8584,-0.8483,-0.8559,-0.8514,-0.83,-0.8057,-0.8008,-0.8008,-0.7726,-0.7633,-0.7739,-0.7775,-0.7699,-0.772,-0.7805,-0.7809,-0.7748,-0.7784,-0.7845,-0.7869,-0.7865,-0.8047,-0.8665,-0.8824,-0.9043,-0.9345,-0.962,-0.9559,-0.9384,-0.9816,-1.0463,-1.0463,-1.0939,-1.1666,-0.4618,-0.454,-0.4534,-0.4483,-0.435,-0.4355,-0.4322,-0.43,-0.4297,-0.4297,-0.4297,-0.4297,-0.4297,-0.4297,-0.4297,-0.4297,-0.4297,-0.4297,-0.4297,-0.4297,-0.4297,-0.4297,-0.4297,-0.4297,-0.4297,-0.4297,-0.4297,-0.4297,-0.4344,-0.4835,-0.5104,-0.5191,-0.5766,-0.6124,-0.621,-0.6827,-0.7224,-0.7254,-0.7731,-0.799,-0.7985,-0.7861,-0.78,-0.7792,-0.7663,-0.7508,-0.7276,-0.737,-0.7382,-0.7305,-0.7419,-0.7518,-0.7518,-0.7518,-0.7518,-0.7531,-0.7645,-0.7747,-0.7796,-0.7874,-0.7967,-0.8004,-0.8012,-0.8135,-0.837,-0.8373,-0.8502,-0.8973,-0.8872,-0.8788,-0.8612,-0.8616,-0.8656,-0.8744,-0.8696,-0.8652,-0.8788,-0.875,-0.8721,-0.8767,-0.8801,-0.8741,-0.8696,-0.8738,-0.8731,-0.8514,-0.8384,-0.8386,-0.8237,-0.8015,-0.7743,-0.7913,-0.7723,-0.7543,-0.7496,-0.7655,-0.7702,-0.7702,-0.7759,-0.7861,-0.782,-0.78,-0.7857,-0.8275,-0.8188,-0.8332,-0.8709,-0.8698,-0.8938,-0.9078,-0.951,-0.998,-1.0077,-1.0593,-1.0852,-0.4526,-0.4402,-0.4394,-0.4391,-0.431,-0.4387,-0.4375,-0.4297,-0.4297,-0.4297,-0.4297,-0.4297,-0.4297,-0.4297,-0.4297,-0.4297,-0.4297,-0.4297,-0.4297,-0.4297,-0.4297,-0.4297,-0.4297,-0.4297,-0.4302,-0.4312,-0.4322,-0.4318,-0.4312,-0.4352,-0.4344,-0.444,-0.5114,-0.5421,-0.5518,-0.6133,-0.6432,-0.6517,-0.6967,-0.7272,-0.7321,-0.7628,-0.7784,-0.7844,-0.7439,-0.7342,-0.7457,-0.7317,-0.7309,-0.7498,-0.751,-0.7518,-0.7518,-0.7518,-0.7557,-0.7565,-0.7535,-0.7616,-0.7799,-0.788,-0.7905,-0.8004,-0.8049,-0.828,-0.88,-0.859,-0.8811,-0.9792,-0.9467,-0.913,-0.8788,-0.8788,-0.8872,-0.9174,-0.8872,-0.8915,-0.9213,-0.9078,-0.9043,-0.9208,-0.9206,-0.9158,-0.8947,-0.91,-0.9209,-0.9151,-0.9182,-0.9223,-0.9192,-0.8617,-0.8295,-0.8256,-0.8013,-0.7526,-0.7543,-0.7801,-0.7888,-0.7907,-0.8001,-0.8049,-0.7873,-0.782,-0.7906,-0.8028,-0.8189,-0.8342,-0.8399,-0.8772,-0.9299,-0.9552,-0.9682,-0.9947,-0.998,-0.999,-1.0207,-0.4571,-0.4382,-0.4328,-0.4328,-0.4304,-0.4336,-0.4328,-0.43,-0.4297,-0.4297,-0.4297,-0.4297,-0.4297,-0.4297,-0.4297,-0.4297,-0.4297,-0.4297,-0.4297,-0.4297,-0.4297,-0.4297,-0.4304,-0.4357,-0.4342,-0.4393,-0.4447,-0.4475,-0.4519,-0.4475,-0.4473,-0.4507,-0.4643,-0.478,-0.4995,-0.5485,-0.5757,-0.5857,-0.6381,-0.693,-0.7306,-0.7412,-0.7761,-0.8482,-0.7791,-0.7475,-0.7684,-0.7509,-0.7593,-0.8067,-0.7951,-0.7983,-0.8241,-0.828,-0.8241,-0.8284,-0.8284,-0.8315,-0.8383,-0.8392,-0.838,-0.8438,-0.8456,-0.8594,-0.8936,-0.8955,-0.9192,-0.9639,-0.9803,-0.9646,-0.9563,-0.9476,-0.9563,-0.9694,-0.9607,-0.9519,-0.968,-0.9664,-0.965,-0.974,-0.9714,-0.9686,-0.9586,-0.9538,-0.9501,-0.9507,-0.9316,-0.9278,-0.9249,-0.8916,-0.8797,-0.8834,-0.8689,-0.8521,-0.8526,-0.8418,-0.8401,-0.8412,-0.8502,-0.8685,-0.8671,-0.8439,-0.8431,-0.8608,-0.8643,-0.8804,-0.9014,-0.9029,-0.9573,-0.9776,-0.9914,-1.011,-0.9971,-1.0164,-1.0125,-0.4248,-0.4346,-0.4324,-0.4297,-0.4297,-0.4297,-0.4297,-0.4297,-0.4297,-0.4297,-0.4297,-0.4297,-0.4297,-0.4297,-0.4297,-0.4297,-0.4297,-0.4297,-0.4297,-0.4297,-0.4297,-0.4297,-0.4308,-0.4363,-0.4362,-0.4398,-0.4528,-0.4619,-0.4619,-0.4619,-0.4619,-0.461,-0.4508,-0.4508,-0.4635,-0.4954,-0.5156,-0.533,-0.5828,-0.6451,-0.6933,-0.7021,-0.7436,-0.8058,-0.7587,-0.7569,-0.8156,-0.7927,-0.8021,-0.8403,-0.8373,-0.8403,-0.8665,-0.8703,-0.8703,-0.8703,-0.8703,-0.8703,-0.8703,-0.8703,-0.8703,-0.8703,-0.8713,-0.8851,-0.924,-0.9271,-0.9478,-0.9885,-1.0008,-1.0053,-0.9952,-1.0104,-1.0264,-1.0188,-1.0081,-1.0053,-1.0072,-0.9999,-1.0002,-1.008,-1.0084,-1.0047,-0.9975,-0.9903,-0.9874,-0.9897,-0.9712,-0.9696,-0.9796,-0.9557,-0.9442,-0.9486,-0.9292,-0.9133,-0.9119,-0.9062,-0.8959,-0.8941,-0.8886,-0.9126,-0.9239,-0.9023,-0.8985,-0.9126,-0.9313,-0.9447,-0.9526,-0.9524,-0.9693,-0.9937,-1.0279,-1.059,-1.0534,-1.0472,-1.0472,-0.3476,-0.4094,-0.4257,-0.4078,-0.403,-0.4037,-0.4168,-0.4074,-0.4117,-0.403,-0.4074,-0.421,-0.421,-0.4297,-0.4297,-0.4297,-0.4297,-0.4297,-0.4297,-0.4297,-0.4297,-0.4297,-0.43,-0.4332,-0.4398,-0.4429,-0.4538,-0.4627,-0.4645,-0.4641,-0.4635,-0.4631,-0.4583,-0.4583,-0.4629,-0.4662,-0.4656,-0.4847,-0.5348,-0.5766,-0.595,-0.6469,-0.6879,-0.7078,-0.6867,-0.7397,-0.8867,-0.8488,-0.8264,-0.8556,-0.858,-0.8665,-0.8589,-0.8585,-0.8627,-0.8585,-0.8627,-0.8665,-0.8623,-0.8589,-0.8546,-0.8551,-0.8627,-0.8845,-0.9299,-0.9154,-0.9356,-1.0145,-1.0213,-0.9974,-0.9593,-1.0126,-1.0598,-1.0585,-1.0255,-1.0229,-1.0251,-1.0104,-1.0019,-1.0305,-1.0393,-1.0216,-1.0043,-1.004,-1.0107,-1.0211,-1.034,-1.0538,-1.0621,-1.0248,-1.0182,-1.0176,-0.9987,-0.9745,-0.973,-0.9689,-0.9562,-0.9466,-0.9373,-0.942,-0.9497,-0.9404,-0.9404,-0.9537,-0.9631,-0.981,-1.0114,-1.0115,-1.0203,-1.0476,-1.0837,-1.101,-1.0977,-1.0916,-1.1046,-0.2208,-0.2424,-0.2332,-0.2311,-0.2289,-0.2316,-0.2313,-0.2327,-0.2282,-0.2684,-0.3224,-0.3314,-0.3673,-0.421,-0.4297,-0.4297,-0.4297,-0.4297,-0.4297,-0.4297,-0.4297,-0.4297,-0.4322,-0.4426,-0.4567,-0.4633,-0.4677,-0.4696,-0.4728,-0.4692,-0.4694,-0.4732,-0.4692,-0.47,-0.4736,-0.464,-0.4693,-0.4938,-0.5074,-0.5492,-0.6164,-0.6406,-0.6822,-0.7492,-0.721,-0.7395,-0.8224,-0.7484,-0.734,-0.7859,-0.7625,-0.7587,-0.7812,-0.7884,-0.7889,-0.7884,-0.7851,-0.7889,-0.7889,-0.7889,-0.7889,-0.7889,-0.7893,-0.797,-0.8251,-0.8265,-0.8383,-0.8873,-0.8907,-0.8877,-0.8826,-0.8995,-0.9495,-0.9994,-1.0413,-1.065,-1.0783,-1.0753,-1.0783,-1.0915,-1.0878,-1.081,-1.0684,-1.0413,-0.9804,-0.9937,-0.991,-0.9957,-1.0075,-1.0496,-1.0678,-1.0752,-1.0549,-1.0284,-1.0191,-1.0136,-1.0106,-0.9963,-0.9822,-0.9692,-0.9776,-0.9796,-0.9815,-0.9912,-1.0049,-1.0233,-1.0538,-1.0615,-1.0628,-1.0749,-1.0942,-1.1091,-1.1225,-1.1311,-1.1311,-0.1233,-0.1506,-0.1414,-0.1405,-0.1389,-0.1407,-0.1405,-0.1388,-0.1387,-0.1789,-0.2283,-0.2327,-0.2642,-0.3132,-0.3221,-0.3221,-0.3266,-0.3582,-0.3762,-0.3851,-0.4208,-0.4297,-0.4324,-0.4487,-0.4668,-0.4718,-0.4718,-0.4736,-0.4781,-0.4738,-0.4687,-0.4767,-0.4864,-0.4879,-0.4926,-0.4978,-0.5092,-0.5228,-0.528,-0.5516,-0.6059,-0.6194,-0.6535,-0.706,-0.6863,-0.6806,-0.7042,-0.643,-0.6512,-0.7274,-0.7254,-0.7305,-0.748,-0.7521,-0.7533,-0.751,-0.7502,-0.754,-0.7502,-0.754,-0.7502,-0.7506,-0.7525,-0.7608,-0.7629,-0.7731,-0.7732,-0.7824,-0.8119,-0.81,-0.778,-0.8172,-0.8537,-0.8717,-0.9459,-1.0193,-1.0552,-1.0868,-1.1042,-1.1016,-1.0726,-1.0615,-1.0429,-0.9823,-0.9164,-0.9201,-0.9376,-0.9233,-0.9578,-1.0311,-1.0513,-1.0683,-1.0646,-1.0508,-1.053,-1.0533,-1.0594,-1.0466,-1.0269,-1.0155,-1.0097,-1.0092,-1.0082,-1.0393,-1.0562,-1.0599,-1.084,-1.0626,-1.0565,-1.0783,-1.1015,-1.1122,-1.1225,-1.1295,-1.1305,-0.0404,-0.1208,-0.121,-0.1122,-0.1075,-0.1078,-0.1033,-0.1164,-0.1118,-0.1163,-0.1297,-0.1343,-0.1432,-0.1476,-0.1744,-0.1744,-0.161,-0.2372,-0.2911,-0.3179,-0.3719,-0.4135,-0.4389,-0.453,-0.4614,-0.464,-0.4683,-0.4714,-0.4792,-0.4751,-0.4708,-0.4837,-0.5085,-0.5233,-0.5229,-0.5482,-0.5565,-0.5565,-0.562,-0.5718,-0.5981,-0.5976,-0.5979,-0.6094,-0.6058,-0.5936,-0.5765,-0.5678,-0.609,-0.7153,-0.7203,-0.712,-0.7301,-0.7399,-0.7289,-0.7138,-0.731,-0.7215,-0.7284,-0.7119,-0.7173,-0.7169,-0.7198,-0.7509,-0.7361,-0.7226,-0.7238,-0.7388,-0.7564,-0.7353,-0.6828,-0.7255,-0.7575,-0.7207,-0.8127,-0.9013,-0.9602,-1.0417,-1.0726,-1.0737,-1.0201,-0.9602,-0.9602,-0.8743,-0.8316,-0.8298,-0.8897,-0.8866,-0.8887,-0.9322,-0.984,-1.0048,-1.0096,-1.0043,-0.978,-1.0211,-1.0259,-1.0279,-1.0279,-1.0358,-1.032,-1.032,-1.0396,-1.0702,-1.0885,-1.0934,-1.095,-1.0789,-1.0731,-1.0982,-1.1117,-1.1112,-1.1166,-1.1246,-1.1273,0.0955,0.0674,0.0729,0.0727,0.0675,0.0728,0.0681,0.0673,0.0627,0.0179,-0.0269,-0.0358,-0.0717,-0.1343,-0.1343,-0.1387,-0.1387,-0.1656,-0.2283,-0.2867,-0.3135,-0.3827,-0.4425,-0.4643,-0.4702,-0.4745,-0.4769,-0.4839,-0.5038,-0.4918,-0.5015,-0.5343,-0.5398,-0.5468,-0.5522,-0.5579,-0.5687,-0.5889,-0.5889,-0.6027,-0.6197,-0.6236,-0.6273,-0.6187,-0.6083,-0.5923,-0.5648,-0.5507,-0.5466,-0.5725,-0.5839,-0.5765,-0.5791,-0.5885,-0.5946,-0.5863,-0.576,-0.5755,-0.5826,-0.5888,-0.5894,-0.5953,-0.6106,-0.5973,-0.6014,-0.5922,-0.5928,-0.599,-0.6057,-0.6062,-0.5881,-0.6143,-0.6236,-0.6301,-0.7427,-0.8646,-0.945,-0.9894,-1.002,-1.0109,-0.9804,-0.9289,-0.872,-0.802,-0.7414,-0.7421,-0.7669,-0.7885,-0.7885,-0.85,-0.9157,-0.8982,-0.8921,-0.8973,-0.91,-0.9596,-0.9848,-0.989,-1.0096,-1.0433,-1.046,-1.053,-1.067,-1.0896,-1.0896,-1.0929,-1.1052,-1.1052,-1.1155,-1.1155,-1.1192,-1.1171,-1.1166,-1.1214,-1.1214,0.147,0.1455,0.1459,0.1452,0.1393,0.1455,0.1407,0.1393,0.1391,0.1127,0.0679,0.0585,0.0315,-0.0136,-0.018,-0.0224,-0.0269,-0.0627,-0.1119,-0.1754,-0.2692,-0.3685,-0.4397,-0.4703,-0.4882,-0.4918,-0.5029,-0.513,-0.5302,-0.5204,-0.5303,-0.5435,-0.5594,-0.5664,-0.5708,-0.5872,-0.5999,-0.6132,-0.6189,-0.6239,-0.6387,-0.6387,-0.6374,-0.6282,-0.6237,-0.6067,-0.588,-0.5695,-0.5499,-0.5377,-0.5306,-0.5287,-0.5189,-0.5276,-0.5262,-0.5113,-0.5132,-0.5221,-0.5186,-0.527,-0.5295,-0.5405,-0.5448,-0.5412,-0.5468,-0.5339,-0.5377,-0.5444,-0.5498,-0.5523,-0.5513,-0.5615,-0.5702,-0.5922,-0.6735,-0.7713,-0.8632,-0.8927,-0.9134,-0.9178,-0.8849,-0.841,-0.7918,-0.7092,-0.6656,-0.6609,-0.6953,-0.6877,-0.6789,-0.7669,-0.8153,-0.7845,-0.8021,-0.8237,-0.85,-0.8957,-0.9535,-0.9587,-1.0056,-1.0393,-1.0284,-1.0441,-1.0832,-1.0945,-1.0882,-1.0925,-1.108,-1.1209,-1.1165,-1.1176,-1.1225,-1.1209,-1.1203,-1.1203,-1.1209,0.1481,0.1474,0.1446,0.1391,0.1391,0.1391,0.1393,0.1391,0.1391,0.1404,0.137,0.1401,0.1221,0.1474,0.1082,0.1301,0.1256,0.0448,0.0045,-0.0819,-0.2135,-0.355,-0.4301,-0.4913,-0.5125,-0.5185,-0.5408,-0.5515,-0.5574,-0.555,-0.5494,-0.5635,-0.5863,-0.593,-0.5966,-0.6146,-0.6331,-0.6365,-0.6357,-0.6368,-0.6379,-0.6384,-0.6391,-0.632,-0.6314,-0.6251,-0.6089,-0.5958,-0.5771,-0.5509,-0.5497,-0.5518,-0.5442,-0.5475,-0.541,-0.5292,-0.5295,-0.5306,-0.5268,-0.5344,-0.5401,-0.5445,-0.5526,-0.5483,-0.5466,-0.5443,-0.5502,-0.5496,-0.5621,-0.5623,-0.5642,-0.5688,-0.5777,-0.5942,-0.5927,-0.6227,-0.6897,-0.7764,-0.8364,-0.8321,-0.7577,-0.718,-0.6745,-0.6305,-0.5733,-0.6086,-0.6349,-0.6349,-0.6305,-0.6874,-0.6877,-0.6349,-0.6877,-0.7669,-0.7973,-0.8309,-0.8918,-0.935,-1.0065,-1.0347,-0.9928,-1.009,-1.0725,-1.1025,-1.1043,-1.1112,-1.1209,-1.1225,-1.1118,-1.1166,-1.1225,-1.123,-1.1225,-1.1192,-1.1171,0.1488,0.1399,0.1393,0.1391,0.1391,0.1391,0.1391,0.1391,0.1391,0.1396,0.1399,0.1393,0.1395,0.1446,0.1395,0.1391,0.1391,0.1033,0.0633,-0.0461,-0.1551,-0.2925,-0.3967,-0.4901,-0.5442,-0.5497,-0.5551,-0.5703,-0.5839,-0.5878,-0.5958,-0.6145,-0.6133,-0.6214,-0.627,-0.6255,-0.6325,-0.6401,-0.6358,-0.6369,-0.6379,-0.6387,-0.6373,-0.6385,-0.6317,-0.6314,-0.6262,-0.6111,-0.601,-0.5937,-0.5863,-0.5745,-0.5692,-0.5642,-0.5583,-0.551,-0.5415,-0.5415,-0.5461,-0.5464,-0.5516,-0.5651,-0.567,-0.5637,-0.5613,-0.5551,-0.5607,-0.5716,-0.5765,-0.5825,-0.5926,-0.5986,-0.601,-0.6024,-0.601,-0.6051,-0.6284,-0.6901,-0.7337,-0.7363,-0.7183,-0.683,-0.613,-0.5997,-0.5735,-0.5735,-0.5777,-0.5863,-0.6038,-0.626,-0.6041,-0.5688,-0.6041,-0.6833,-0.701,-0.7464,-0.8245,-0.879,-0.9513,-0.9834,-0.939,-0.9562,-1.0114,-1.0721,-1.1246,-1.116,-1.0687,-1.0949,-1.0758,-1.1031,-1.1166,-1.1069,-1.0957,-1.1017,-1.0783,0.1485,0.1456,0.1396,0.1391,0.1391,0.1391,0.1391,0.1391,0.1391,0.1444,0.1451,0.1398,0.1443,0.1455,0.1397,0.1391,0.135,0.127,0.0787,-0.0142,-0.1155,-0.234,-0.3367,-0.4253,-0.483,-0.5586,-0.5934,-0.6037,-0.6169,-0.6132,-0.6202,-0.6352,-0.6301,-0.6293,-0.6347,-0.6301,-0.6333,-0.6407,-0.6382,-0.6382,-0.6429,-0.6387,-0.6387,-0.6434,-0.638,-0.6347,-0.6336,-0.629,-0.6257,-0.6233,-0.6181,-0.607,-0.5934,-0.5896,-0.5836,-0.5733,-0.5727,-0.5689,-0.5727,-0.5722,-0.5726,-0.588,-0.585,-0.5858,-0.5874,-0.5833,-0.5855,-0.5956,-0.5996,-0.6048,-0.6151,-0.61,-0.6111,-0.6199,-0.6166,-0.6078,-0.6136,-0.6377,-0.6496,-0.6459,-0.6393,-0.6171,-0.5863,-0.5733,-0.5688,-0.5735,-0.5735,-0.5777,-0.5777,-0.5952,-0.5911,-0.5688,-0.5688,-0.5911,-0.6086,-0.6609,-0.7501,-0.8066,-0.8604,-0.8705,-0.8443,-0.8851,-0.9403,-0.9882,-1.0239,-0.9885,-0.9608,-0.9966,-1.0328,-1.0394,-1.0466,-1.0547,-1.0507,-1.0303,-0.9943,0.1478,0.1472,0.1401,0.1391,0.1391,0.1391,0.1391,0.1391,0.1391,0.1446,0.1466,0.1401,0.1402,0.1462,0.1401,0.1392,0.1359,0.1192,0.0799,0.034,-0.0488,-0.163,-0.2653,-0.3119,-0.3827,-0.5438,-0.5534,-0.5682,-0.5934,-0.6182,-0.6041,-0.6265,-0.6301,-0.632,-0.6306,-0.6328,-0.6325,-0.6365,-0.6396,-0.6401,-0.6431,-0.6387,-0.6387,-0.6434,-0.6429,-0.642,-0.6418,-0.636,-0.6371,-0.6387,-0.6387,-0.6331,-0.62,-0.6111,-0.6075,-0.5964,-0.6002,-0.5972,-0.5909,-0.5901,-0.5931,-0.6064,-0.5969,-0.5964,-0.6032,-0.6051,-0.6064,-0.6127,-0.6184,-0.6265,-0.6285,-0.623,-0.6217,-0.6246,-0.6187,-0.6165,-0.6173,-0.604,-0.5962,-0.588,-0.5972,-0.5866,-0.5777,-0.5688,-0.5688,-0.5688,-0.5688,-0.5688,-0.5688,-0.5688,-0.5688,-0.5688,-0.5688,-0.5688,-0.5822,-0.6325,-0.7173,-0.7116,-0.7638,-0.7537,-0.74,-0.7402,-0.7767,-0.8548,-0.8781,-0.8618,-0.8712,-0.9057,-0.9348,-0.9557,-0.9625,-0.9602,-0.9599,-0.9501,-0.9138,0.1466,0.1397,0.1392,0.1391,0.1391,0.1391,0.1391,0.1391,0.1391,0.1393,0.1397,0.1393,0.1393,0.1397,0.1395,0.1404,0.1331,0.1117,0.0902,0.0636,0.0098,-0.0745,-0.1809,-0.1915,-0.2569,-0.3374,-0.3775,-0.4126,-0.4933,-0.5083,-0.557,-0.6155,-0.6399,-0.6396,-0.6369,-0.6331,-0.6333,-0.636,-0.6374,-0.6369,-0.642,-0.6387,-0.6387,-0.6387,-0.6387,-0.6387,-0.6387,-0.6387,-0.6387,-0.6387,-0.6387,-0.6363,-0.635,-0.6276,-0.6225,-0.6189,-0.613,-0.6086,-0.6053,-0.5956,-0.5977,-0.6021,-0.5983,-0.5983,-0.6064,-0.6105,-0.6165,-0.6241,-0.6328,-0.6404,-0.6357,-0.6358,-0.6377,-0.6377,-0.6309,-0.6265,-0.6138,-0.6032,-0.5937,-0.5904,-0.5825,-0.5688,-0.5688,-0.5688,-0.5688,-0.5688,-0.5688,-0.5688,-0.5688,-0.5688,-0.5688,-0.5688,-0.5688,-0.5688,-0.5733,-0.6319,-0.6897,-0.6295,-0.641,-0.6451,-0.6223,-0.5758,-0.6047,-0.7117,-0.7862,-0.806,-0.8174,-0.8158,-0.8392,-0.8581,-0.8616,-0.8642,-0.8593,-0.8497,-0.8392,0.1449,0.1391,0.1391,0.1391,0.1391,0.1391,0.1391,0.1391,0.1391,0.1391,0.1391,0.1391,0.1391,0.1391,0.1391,0.1323,0.1075,0.0857,0.0582,0.0397,0.0199,-0.04,-0.1361,-0.1059,-0.1463,-0.1916,-0.1966,-0.2519,-0.3927,-0.4582,-0.5083,-0.5534,-0.6087,-0.6387,-0.6381,-0.6391,-0.6385,-0.6365,-0.6388,-0.6377,-0.6431,-0.6387,-0.6387,-0.6387,-0.6387,-0.6387,-0.6387,-0.6387,-0.6387,-0.6387,-0.6387,-0.6387,-0.6371,-0.6393,-0.6355,-0.6331,-0.6244,-0.6179,-0.6143,-0.6029,-0.5988,-0.614,-0.6067,-0.6097,-0.6211,-0.6285,-0.6287,-0.6344,-0.6385,-0.6387,-0.6381,-0.6387,-0.6387,-0.6379,-0.638,-0.6323,-0.6249,-0.6183,-0.6122,-0.6068,-0.5874,-0.5729,-0.5688,-0.5688,-0.5688,-0.5688,-0.5688,-0.5688,-0.5688,-0.5688,-0.5688,-0.5688,-0.5688,-0.5688,-0.5672,-0.6019,-0.6437,-0.5909,-0.5591,-0.5601,-0.5488,-0.5249,-0.5459,-0.61,-0.6677,-0.7158,-0.6859,-0.6635,-0.7142,-0.758,-0.7504,-0.7461,-0.7507,-0.7442,-0.734,0.1391,0.1391,0.1391,0.1391,0.1391,0.1391,0.1391,0.1391,0.1391,0.1395,0.1399,0.1394,0.1394,0.1397,0.131,0.1146,0.0762,0.0533,0.0345,0.0201,0.005,-0.0505,-0.0757,-0.0656,-0.0505,-0.1009,-0.0707,-0.111,-0.3021,-0.3626,-0.4381,-0.5233,-0.5987,-0.6287,-0.6331,-0.6376,-0.6387,-0.6387,-0.6387,-0.6387,-0.6387,-0.6387,-0.6387,-0.6387,-0.6387,-0.6387,-0.6387,-0.6387,-0.6387,-0.6387,-0.6387,-0.6387,-0.6387,-0.6387,-0.6387,-0.6423,-0.6347,-0.6352,-0.627,-0.6172,-0.6086,-0.6273,-0.6221,-0.6252,-0.6352,-0.6349,-0.6371,-0.6387,-0.6387,-0.6387,-0.6387,-0.6387,-0.6387,-0.6379,-0.6363,-0.6382,-0.632,-0.6281,-0.6185,-0.6089,-0.5896,-0.5785,-0.5761,-0.5688,-0.5688,-0.5688,-0.5688,-0.5688,-0.5688,-0.5688,-0.5688,-0.5688,-0.5688,-0.5688,-0.5656,-0.558,-0.5843,-0.5667,-0.5402,-0.5345,-0.5226,-0.504,-0.5362,-0.5618,-0.5572,-0.5899,-0.5493,-0.5453,-0.6111,-0.6454,-0.6302,-0.6291,-0.6422,-0.6404,-0.6315,0.1391,0.1391,0.1391,0.1391,0.1391,0.1391,0.1391,0.1391,0.1391,0.1451,0.147,0.145,0.1407,0.1371,0.1221,0.1105,0.0898,0.0577,0.0343,0.0201,0.005,0.0,0.0,-0.0101,0.0,0.0,0.0,-0.1261,-0.267,-0.2619,-0.3623,-0.5281,-0.5386,-0.5486,-0.6387,-0.6387,-0.6387,-0.6387,-0.6387,-0.6387,-0.6387,-0.6387,-0.6387,-0.6387,-0.6387,-0.6387,-0.6387,-0.6387,-0.6387,-0.6387,-0.6387,-0.6387,-0.6387,-0.6387,-0.6387,-0.6387,-0.6415,-0.6374,-0.6282,-0.6246,-0.6229,-0.63,-0.6238,-0.6312,-0.6393,-0.6387,-0.6387,-0.6387,-0.6387,-0.6387,-0.6387,-0.6387,-0.6387,-0.6412,-0.638,-0.6339,-0.6293,-0.6306,-0.6262,-0.614,-0.5974,-0.5901,-0.5899,-0.5764,-0.5688,-0.5688,-0.5688,-0.5688,-0.5688,-0.5688,-0.5688,-0.5688,-0.5688,-0.5688,-0.5656,-0.5578,-0.5491,-0.5407,-0.5295,-0.5184,-0.5151,-0.5116,-0.5099,-0.5242,-0.5146,-0.5159,-0.526,-0.5372,-0.5485,-0.5579,-0.57,-0.5583,-0.5375,-0.5343,-0.547,0.1391,0.1391,0.1391,0.1391,0.1391,0.1391,0.1391,0.1391,0.1391,0.1452,0.1474,0.1468,0.1377,0.1245,0.1007,0.0789,0.0666,0.0337,0.0,0.0,0.0,0.0,0.0,0.0,0.0,0.0,0.0,-0.1211,-0.2318,-0.2871,-0.3473,-0.4477,-0.5334,-0.5937,-0.6387,-0.6387,-0.6387,-0.6387,-0.6387,-0.6387,-0.6387,-0.6387,-0.6387,-0.6387,-0.6387,-0.6387,-0.6387,-0.6387,-0.6387,-0.6387,-0.6387,-0.6387,-0.6387,-0.6387,-0.6387,-0.6387,-0.6387,-0.638,-0.6331,-0.6265,-0.627,-0.6306,-0.6276,-0.6317,-0.6407,-0.6387,-0.6387,-0.6387,-0.6387,-0.6387,-0.6387,-0.6387,-0.6387,-0.6415,-0.638,-0.6372,-0.6342,-0.6314,-0.6282,-0.6217,-0.6146,-0.6059,-0.5956,-0.5828,-0.5704,-0.5688,-0.5688,-0.5688,-0.5688,-0.5688,-0.5688,-0.5688,-0.5688,-0.5688,-0.5648,-0.5588,-0.5532,-0.5469,-0.5382,-0.5292,-0.5271,-0.5243,-0.5197,-0.5165,-0.5167,-0.5184,-0.52,-0.5229,-0.5281,-0.5246,-0.5208,-0.5175,-0.514,-0.5113,-0.5195,0.1391,0.1391,0.1391,0.1391,0.1391,0.1391,0.1391,0.1391,0.1391,0.1457,0.1487,0.1499,0.1357,0.1111,0.0879,0.0654,0.0381,0.0097,0.0,0.0,0.0,0.0,0.0,0.0,0.0,0.0,0.0,0.0,-0.2217,-0.3073,-0.3423,-0.3927,-0.478,-0.5784,-0.6287,-0.6387,-0.6387,-0.6387,-0.6387,-0.6387,-0.6387,-0.6387,-0.6387,-0.6387,-0.6387,-0.6387,-0.6387,-0.6387,-0.6387,-0.6387,-0.6387,-0.6387,-0.6387,-0.6387,-0.6387,-0.6387,-0.6387,-0.6407,-0.6331,-0.6271,-0.6225,-0.6249,-0.6306,-0.6361,-0.6415,-0.6387,-0.6387,-0.6387,-0.6387,-0.6387,-0.6387,-0.6387,-0.6387,-0.6387,-0.6379,-0.6384,-0.6381,-0.6388,-0.6347,-0.6298,-0.6222,-0.6172,-0.6007,-0.585,-0.5768,-0.5696,-0.5688,-0.5688,-0.5688,-0.5688,-0.5688,-0.5688,-0.5688,-0.5688,-0.5659,-0.5607,-0.5548,-0.5486,-0.5445,-0.5379,-0.5383,-0.5287,-0.5227,-0.5205,-0.5181,-0.5132,-0.5105,-0.5067,-0.504,-0.5083,-0.5113,-0.5094,-0.5027,-0.5003,-0.5078,0.1391,0.1391,0.1391,0.1391,0.1391,0.1391,0.1391,0.1391,0.1391,0.1422,0.1519,0.1546,0.1384,0.1121,0.0837,0.0609,0.0381,0.0095,0.0,0.0,0.0,0.0,0.0,0.0,0.0,0.0,0.0,0.0,-0.1714,-0.272,-0.4176,-0.5834,-0.4981,-0.5181,-0.5784,-0.6387,-0.6387,-0.6387,-0.6387,-0.6387,-0.6387,-0.6387,-0.6387,-0.6387,-0.6387,-0.6387,-0.6387,-0.6387,-0.6387,-0.6387,-0.6387,-0.6387,-0.6387,-0.6387,-0.6387,-0.6387,-0.6387,-0.6371,-0.6388,-0.6374,-0.6352,-0.6331,-0.635,-0.6407,-0.6384,-0.6387,-0.6387,-0.6387,-0.6387,-0.6387,-0.6387,-0.6387,-0.6387,-0.6387,-0.6387,-0.6387,-0.6387,-0.6384,-0.6396,-0.6366,-0.6287,-0.6224,-0.6155,-0.5961,-0.5833,-0.5801,-0.5694,-0.5688,-0.5688,-0.5688,-0.5688,-0.5688,-0.5688,-0.5686,-0.5675,-0.5629,-0.558,-0.5526,-0.5496,-0.5436,-0.5427,-0.5369,-0.5268,-0.5195,-0.5156,-0.508,-0.5023,-0.5026,-0.5026,-0.5021,-0.5026,-0.5003,-0.5069,-0.5078,-0.5148,0.1391,0.1391,0.1391,0.1391,0.1391,0.1391,0.1391,0.1391,0.1391,0.1423,0.148,0.136,0.1209,0.0901,0.066,0.0425,0.0191,0.0048,0.0,0.0,0.0,0.0,0.0,0.0,0.0,0.0,0.0,-0.1009,-0.2569,-0.2569,-0.4074,-0.5129,-0.5229,-0.5732,-0.6287,-0.6387,-0.6387,-0.6387,-0.6387,-0.6387,-0.6387,-0.6387,-0.6387,-0.6387,-0.6387,-0.6387,-0.6387,-0.6387,-0.6387,-0.6387,-0.6387,-0.6387,-0.6387,-0.6387,-0.6387,-0.6387,-0.6387,-0.6387,-0.6387,-0.6387,-0.6363,-0.6349,-0.6363,-0.6387,-0.6387,-0.6387,-0.6387,-0.6387,-0.6387,-0.6387,-0.6387,-0.6387,-0.6387,-0.6387,-0.6387,-0.6387,-0.6387,-0.6387,-0.6381,-0.6399,-0.6355,-0.6294,-0.6191,-0.6086,-0.5964,-0.5858,-0.579,-0.5688,-0.5688,-0.5688,-0.5688,-0.5688,-0.5688,-0.5688,-0.568,-0.565,-0.5615,-0.5564,-0.5553,-0.5504,-0.5453,-0.5421,-0.5355,-0.5227,-0.514,-0.5086,-0.5048,-0.5026,-0.5018,-0.5018,-0.5021,-0.499,-0.5061,-0.5108,-0.5184,0.1391,0.1391,0.1391,0.1391,0.1391,0.1391,0.1391,0.1391,0.1391,0.1423,0.148,0.1271,0.1029,0.0773,0.0529,0.0289,0.0,0.0,0.0,0.0,0.0,0.0,0.0,0.0,0.0,0.0,0.0,-0.1009,-0.2418,-0.2217,-0.3674,-0.5281,-0.6234,-0.6337,-0.6387,-0.6387,-0.6387,-0.6387,-0.6387,-0.6387,-0.6387,-0.6387,-0.6387,-0.6387,-0.6387,-0.6387,-0.6387,-0.6387,-0.6387,-0.6387,-0.6387,-0.6387,-0.6387,-0.6387,-0.6387,-0.6387,-0.6387,-0.6387,-0.6387,-0.6387,-0.6387,-0.6376,-0.6379,-0.6387,-0.6387,-0.6387,-0.6387,-0.6387,-0.6387,-0.6387,-0.6387,-0.6387,-0.6387,-0.6387,-0.6387,-0.6387,-0.6387,-0.6387,-0.6387,-0.6423,-0.6323,-0.6287,-0.6298,-0.62,-0.6048,-0.5918,-0.5793,-0.5699,-0.5688,-0.5688,-0.5688,-0.5688,-0.5688,-0.5688,-0.5688,-0.5667,-0.5648,-0.5645,-0.5635,-0.5543,-0.5529,-0.5442,-0.5372,-0.5219,-0.5143,-0.5102,-0.5025,-0.5031,-0.5021,-0.5018,-0.5037,-0.5067,-0.5121,-0.5173,-0.5192,0.1391,0.1391,0.1391,0.1391,0.1391,0.1391,0.1393,0.1396,0.1399,0.138,0.1383,0.1234,0.0994,0.0735,0.0439,0.0196,0.0,0.0,0.0,0.0,0.0,0.0,0.0,0.0,0.0,0.0,0.0,-0.0656,-0.1814,-0.2569,-0.3776,-0.4933,-0.5937,-0.6387,-0.6387,-0.6387,-0.6387,-0.6387,-0.6387,-0.6387,-0.6387,-0.6387,-0.6387,-0.6387,-0.6387,-0.6387,-0.6387,-0.6387,-0.6429,-0.6404,-0.6407,-0.6407,-0.641,-0.636,-0.6363,-0.6368,-0.6379,-0.6384,-0.6387,-0.6387,-0.6387,-0.6387,-0.6387,-0.6387,-0.6387,-0.6387,-0.6387,-0.6387,-0.6387,-0.6387,-0.6387,-0.6387,-0.6387,-0.6387,-0.6387,-0.6387,-0.6387,-0.6387,-0.6387,-0.6387,-0.6361,-0.6295,-0.6333,-0.6312,-0.6143,-0.5988,-0.5825,-0.5707,-0.5686,-0.5686,-0.5683,-0.5659,-0.5659,-0.5688,-0.5688,-0.5688,-0.5683,-0.5686,-0.5648,-0.5572,-0.5497,-0.5445,-0.533,-0.5216,-0.5184,-0.5175,-0.5102,-0.4992,-0.5034,-0.5045,-0.5097,-0.5137,-0.5232,-0.5254,-0.5205,0.1391,0.1391,0.1391,0.1391,0.1393,0.1457,0.1465,0.1423,0.1345,0.1169,0.0989,0.078,0.0638,0.0487,0.0,0.0,0.0,0.0,0.0,0.0,0.0,0.0,0.0,0.0,0.0,0.0,0.0,-0.0707,-0.1664,-0.2771,-0.3776,-0.4782,-0.5837,-0.6337,-0.6387,-0.6387,-0.6387,-0.6387,-0.6387,-0.6387,-0.6387,-0.6387,-0.6387,-0.6387,-0.6387,-0.6387,-0.6387,-0.6387,-0.6412,-0.6361,-0.6352,-0.6339,-0.6333,-0.6331,-0.6325,-0.6347,-0.6372,-0.6387,-0.6387,-0.6387,-0.6387,-0.6387,-0.6387,-0.6387,-0.6387,-0.6387,-0.6387,-0.6387,-0.6387,-0.6387,-0.6387,-0.6387,-0.6387,-0.6387,-0.6387,-0.6387,-0.6387,-0.6387,-0.6387,-0.6384,-0.6388,-0.6377,-0.6399,-0.6372,-0.623,-0.6105,-0.5956,-0.5712,-0.5645,-0.5664,-0.5669,-0.5623,-0.5615,-0.5664,-0.5688,-0.5683,-0.5667,-0.5656,-0.5607,-0.5534,-0.5459,-0.5447,-0.5382,-0.5295,-0.5273,-0.5249,-0.5189,-0.5129,-0.5078,-0.5083,-0.5129,-0.5118,-0.5105,-0.5132,-0.5159,0.1391,0.1391,0.1391,0.1391,0.1395,0.1468,0.1486,0.1453,0.1384,0.1195,0.0907,0.0685,0.0493,0.0345,0.0,0.0,0.0,0.0,0.0,0.0,0.0,0.0,0.0,-0.0303,0.0,-0.0303,-0.0858,-0.1513,-0.1714,-0.3073,-0.4331,-0.5384,-0.6034,-0.6337,-0.6387,-0.6387,-0.6387,-0.6387,-0.6387,-0.6387,-0.6387,-0.6387,-0.6387,-0.6387,-0.6387,-0.6387,-0.6387,-0.6376,-0.6401,-0.6333,-0.629,-0.6265,-0.6306,-0.6279,-0.6265,-0.6236,-0.6306,-0.6366,-0.6372,-0.6379,-0.6381,-0.6387,-0.6387,-0.6387,-0.6387,-0.6387,-0.6387,-0.6387,-0.6387,-0.6387,-0.6387,-0.6387,-0.6387,-0.6387,-0.6387,-0.6387,-0.6387,-0.6387,-0.6387,-0.6384,-0.6384,-0.6387,-0.6384,-0.6388,-0.6312,-0.6203,-0.6092,-0.5885,-0.5645,-0.5653,-0.5664,-0.5621,-0.5597,-0.5637,-0.5664,-0.5667,-0.565,-0.5629,-0.5591,-0.5551,-0.5494,-0.5451,-0.5434,-0.5424,-0.5391,-0.5358,-0.5328,-0.5279,-0.5181,-0.5146,-0.5151,-0.5116,-0.5034,-0.5102,-0.52,0.1391,0.1391,0.1391,0.1391,0.1396,0.1422,0.145,0.1431,0.1508,0.137,0.1076,0.0745,0.0549,0.0351,0.0101,0.0,0.0,0.0,0.0,0.0,0.0,0.0,0.0,-0.0858,-0.0807,-0.1059,-0.1613,-0.2267,-0.2016,-0.3525,-0.5083,-0.6037,-0.6287,-0.6387,-0.6387,-0.6387,-0.6387,-0.6387,-0.6387,-0.6387,-0.6387,-0.6387,-0.6387,-0.6387,-0.6387,-0.6387,-0.6387,-0.6381,-0.6407,-0.6358,-0.6304,-0.6314,-0.6265,-0.6149,-0.6108,-0.613,-0.623,-0.6225,-0.6274,-0.6339,-0.6319,-0.6358,-0.6385,-0.6363,-0.6387,-0.6387,-0.6387,-0.6387,-0.6387,-0.6387,-0.6387,-0.6387,-0.6387,-0.6387,-0.6387,-0.6387,-0.6387,-0.6387,-0.6387,-0.6387,-0.6387,-0.6387,-0.6387,-0.6401,-0.6363,-0.6285,-0.6173,-0.6037,-0.5852,-0.568,-0.568,-0.5637,-0.5618,-0.5621,-0.564,-0.5661,-0.5659,-0.5642,-0.5659,-0.5626,-0.5564,-0.5518,-0.554,-0.5496,-0.5428,-0.5429,-0.5377,-0.5336,-0.5314,-0.5246,-0.5205,-0.517,-0.5113,-0.526,-0.5352,0.1273,0.1391,0.1391,0.1301,0.117,0.1055,0.0983,0.1003,0.0827,0.0582,0.033,0.0293,0.0247,0.0097,0.0,0.0,0.0,0.0,0.0,0.0,0.0,0.0,0.0,-0.1059,-0.121,-0.1713,-0.2368,-0.3274,-0.3123,-0.4331,-0.5384,-0.6234,-0.6387,-0.6387,-0.6387,-0.6387,-0.6387,-0.6387,-0.6387,-0.6387,-0.6387,-0.6387,-0.6387,-0.6387,-0.6387,-0.6387,-0.6387,-0.6387,-0.6385,-0.6225,-0.6176,-0.6119,-0.6005,-0.6053,-0.6102,-0.6235,-0.6132,-0.6037,-0.6121,-0.617,-0.6211,-0.6233,-0.6225,-0.6306,-0.6369,-0.6426,-0.6423,-0.6415,-0.6381,-0.6387,-0.6387,-0.6387,-0.6387,-0.6387,-0.6387,-0.6387,-0.6387,-0.6387,-0.6387,-0.6387,-0.6387,-0.6387,-0.6387,-0.6381,-0.6391,-0.6333,-0.6244,-0.6113,-0.5977,-0.5836,-0.5735,-0.5648,-0.5642,-0.5642,-0.5653,-0.5672,-0.5667,-0.5664,-0.5672,-0.568,-0.5648,-0.5613,-0.5607,-0.5578,-0.5564,-0.5521,-0.5443,-0.5402,-0.5415,-0.5257,-0.5208,-0.5222,-0.5233,-0.5327,-0.5405,0.101,0.1137,0.1237,0.1287,0.1199,0.0799,0.0668,0.0724,0.063,0.0384,0.019,0.0194,0.0,0.0,0.0,0.0,0.0,0.0,0.0,0.0,0.0,0.0,0.0,-0.1311,-0.1815,-0.2368,-0.3272,-0.4429,-0.428,-0.4832,-0.5934,-0.6337,-0.6387,-0.6387,-0.6387,-0.6387,-0.6387,-0.6387,-0.6387,-0.6387,-0.6387,-0.6387,-0.6387,-0.6387,-0.6387,-0.6387,-0.6387,-0.6387,-0.6347,-0.6225,-0.6203,-0.618,-0.6045,-0.6094,-0.6053,-0.6155,-0.6075,-0.5999,-0.6034,-0.6183,-0.6146,-0.6162,-0.6179,-0.6274,-0.6314,-0.6355,-0.6355,-0.6358,-0.6404,-0.6387,-0.6387,-0.6387,-0.6387,-0.6387,-0.6387,-0.6387,-0.6387,-0.6387,-0.6387,-0.6387,-0.6387,-0.6387,-0.6387,-0.6387,-0.6368,-0.6314,-0.6263,-0.6124,-0.5991,-0.5855,-0.576,-0.5656,-0.5659,-0.5667,-0.5672,-0.5664,-0.5653,-0.565,-0.5667,-0.5675,-0.5683,-0.568,-0.5653,-0.5661,-0.5669,-0.5602,-0.5516,-0.5505,-0.548,-0.5265,-0.4941,-0.4856,-0.4945,-0.5228,-0.5315,0.0695,0.0743,0.0946,0.1141,0.129,0.0628,0.0488,0.0734,0.072,0.0577,0.0342,0.0344,0.0197,0.0,0.0,0.0,0.0,0.0,0.0,0.0,0.0,0.0,0.0,-0.1865,-0.2167,-0.2971,-0.4026,-0.5131,-0.5284,-0.5687,-0.6187,-0.6387,-0.6387,-0.6387,-0.6387,-0.6387,-0.6387,-0.6387,-0.6387,-0.6387,-0.6387,-0.6387,-0.6387,-0.6387,-0.6387,-0.6387,-0.6387,-0.6387,-0.6431,-0.6385,-0.6333,-0.6303,-0.6259,-0.6135,-0.6045,-0.6026,-0.6053,-0.6024,-0.6029,-0.6113,-0.6218,-0.623,-0.6323,-0.6238,-0.6184,-0.6276,-0.6304,-0.6282,-0.6312,-0.6363,-0.6377,-0.6418,-0.6387,-0.6387,-0.6387,-0.6387,-0.6387,-0.6387,-0.6387,-0.6387,-0.6387,-0.6387,-0.6387,-0.6387,-0.6387,-0.6336,-0.6295,-0.6151,-0.604,-0.5909,-0.5803,-0.5686,-0.5672,-0.5672,-0.5648,-0.564,-0.5629,-0.5632,-0.5659,-0.5672,-0.5686,-0.5688,-0.5688,-0.5688,-0.5686,-0.564,-0.5586,-0.5569,-0.5326,-0.4651,-0.4415,-0.4417,-0.4607,-0.4916,-0.5353,0.0568,0.071,0.0571,0.062,0.0619,0.0283,0.0144,0.0196,0.0426,0.0333,0.0147,0.0099,0.0099,0.0,0.0,0.0,0.0,0.0,0.0,0.0,0.0,0.0,0.0,-0.1562,-0.2267,-0.3222,-0.4329,-0.5634,-0.5887,-0.6237,-0.6387,-0.6387,-0.6387,-0.6387,-0.6387,-0.6387,-0.6387,-0.6387,-0.6387,-0.6387,-0.6387,-0.6387,-0.6387,-0.6387,-0.6387,-0.6387,-0.6387,-0.6387,-0.6382,-0.6314,-0.629,-0.6268,-0.626,-0.6154,-0.6132,-0.6205,-0.615,-0.6051,-0.6034,-0.607,-0.6102,-0.6043,-0.6032,-0.5958,-0.598,-0.6159,-0.6287,-0.6254,-0.6222,-0.6282,-0.6336,-0.6391,-0.6387,-0.6387,-0.6387,-0.6387,-0.6387,-0.6387,-0.6387,-0.6387,-0.6387,-0.6387,-0.6387,-0.6387,-0.6387,-0.6391,-0.6314,-0.6214,-0.614,-0.6029,-0.588,-0.5801,-0.5694,-0.5675,-0.5645,-0.5637,-0.564,-0.565,-0.5675,-0.5686,-0.5688,-0.5688,-0.5688,-0.5688,-0.5677,-0.5645,-0.5637,-0.5614,-0.5217,-0.4307,-0.3872,-0.3848,-0.4158,-0.4522,-0.5127,0.0287,0.0386,0.029,0.0388,0.0488,0.0145,0.0049,0.0198,0.0194,0.0146,0.005,0.01,0.0197,0.0147,0.0,0.0,0.0,0.0,0.0,0.0,0.0,0.0,0.0,-0.1412,-0.2418,-0.3425,-0.483,-0.5937,-0.6337,-0.6387,-0.6387,-0.6387,-0.6387,-0.6387,-0.6387,-0.6387,-0.6387,-0.6387,-0.6387,-0.6387,-0.6387,-0.6387,-0.6387,-0.6387,-0.6387,-0.6387,-0.6387,-0.6387,-0.6401,-0.6361,-0.6352,-0.635,-0.6344,-0.6295,-0.6225,-0.617,-0.6105,-0.604,-0.6005,-0.601,-0.6021,-0.5953,-0.6029,-0.6064,-0.5904,-0.6051,-0.6059,-0.6048,-0.6257,-0.6285,-0.6317,-0.6366,-0.6418,-0.6387,-0.6387,-0.6387,-0.6387,-0.6387,-0.6387,-0.6387,-0.6387,-0.6387,-0.6387,-0.6387,-0.6384,-0.6415,-0.6333,-0.6279,-0.6208,-0.6146,-0.5999,-0.5874,-0.5817,-0.5707,-0.5675,-0.5672,-0.5675,-0.5686,-0.568,-0.5599,-0.5555,-0.5644,-0.5688,-0.5599,-0.5599,-0.5686,-0.5683,-0.5463,-0.4652,-0.3625,-0.3367,-0.3256,-0.3645,-0.4032,-0.4577,0.0,0.0,0.0,0.0249,0.0605,0.0201,0.0101,0.0302,0.0151,0.01,0.01,0.0297,0.039,0.0293,0.0,0.0,0.0,0.0,0.0,0.0,0.0,0.0,0.0,-0.1613,-0.2368,-0.3674,-0.5231,-0.5934,-0.6387,-0.6387,-0.6387,-0.6387,-0.6387,-0.6387,-0.6387,-0.6387,-0.6387,-0.6387,-0.6387,-0.6387,-0.6387,-0.6387,-0.6387,-0.6387,-0.6387,-0.6387,-0.6387,-0.6387,-0.6384,-0.6379,-0.6368,-0.6415,-0.6415,-0.6336,-0.6285,-0.6208,-0.6205,-0.6032,-0.5934,-0.6005,-0.598,-0.5988,-0.6149,-0.6121,-0.5937,-0.5882,-0.589,-0.5966,-0.6127,-0.6233,-0.6265,-0.6331,-0.6382,-0.6387,-0.6387,-0.6423,-0.642,-0.6379,-0.6387,-0.6387,-0.6387,-0.6387,-0.6387,-0.6387,-0.6379,-0.641,-0.638,-0.6328,-0.6322,-0.6265,-0.6119,-0.5996,-0.5907,-0.5841,-0.5731,-0.5644,-0.5599,-0.5518,-0.5422,-0.5447,-0.5287,-0.4837,-0.4837,-0.5329,-0.5374,-0.5285,-0.5149,-0.4924,-0.3979,-0.2949,-0.304,-0.2996,-0.304,-0.3431,-0.3918,0.0,0.0,0.0,0.0,0.0,0.0,0.005,0.0,0.0249,0.0346,0.0298,0.0301,0.0301,0.01,0.005,0.0,0.0,0.0,0.0,0.0,0.0,0.0,0.0,-0.1261,-0.1814,-0.3423,-0.5281,-0.6187,-0.6387,-0.6387,-0.6387,-0.6387,-0.6387,-0.6387,-0.6387,-0.6387,-0.6387,-0.6387,-0.6387,-0.6387,-0.6387,-0.6387,-0.6387,-0.6387,-0.6387,-0.6387,-0.6387,-0.6387,-0.6387,-0.6387,-0.6387,-0.6387,-0.6381,-0.6418,-0.632,-0.6214,-0.6216,-0.6072,-0.6002,-0.6032,-0.6007,-0.5907,-0.6002,-0.5977,-0.5799,-0.5784,-0.5795,-0.5809,-0.5947,-0.6064,-0.6127,-0.6249,-0.6323,-0.6404,-0.6387,-0.6388,-0.6361,-0.6404,-0.6387,-0.6387,-0.6387,-0.6387,-0.6387,-0.6387,-0.6387,-0.6373,-0.6373,-0.638,-0.6366,-0.6301,-0.6279,-0.6077,-0.5919,-0.5934,-0.5869,-0.5531,-0.5455,-0.5323,-0.4997,-0.4592,-0.4076,-0.3494,-0.3626,-0.4344,-0.4567,-0.4478,-0.4344,-0.4119,-0.3312,-0.2462,-0.2776,-0.2867,-0.2781,-0.3189,-0.3909]},{"header":{"parameterUnit":"m.s-1","parameterCategory":1,"la1":31.0,"la2":29.5877,"lo1":-88.7671,"lo2":-86.6584,"dy":0.0162,"dx":0.0185,"nx":115,"ny":88,"refTime":"2023-09-04T06:00:00:Z","depth":0,"parameterNumber":3,"parameterNumberName":"V-component_of_WINDS"},"data":[0.0,0.0,0.0,0.0,0.0,0.0,0.0,0.0,0.0,0.0,0.0,0.0,0.0,0.0,0.0,0.0,0.0,0.0,0.0,0.0,0.0,0.0,0.0,0.0,0.0,0.0,0.0,0.0,0.0,0.0,0.0,0.0,0.0,0.0,0.0,0.0,0.0,0.0,0.0,0.0,0.0,0.0,0.0,0.0,0.0,0.0,0.0,0.0,0.0,0.0,0.0,0.0,0.0,0.0,0.0,0.0,0.0,0.0,0.0,0.0,0.0,0.0,0.0,0.0,0.0,0.0,0.0,0.0,0.0,0.0,0.0,0.0,0.0,0.0,0.0,0.0,0.0,0.0,0.0,0.0,0.0,0.0,0.0,0.0,0.0,0.0,0.0,0.0,0.0,0.0,0.0,0.0,0.0,0.0,0.0,0.0,0.0,0.0,0.0,0.0,0.0,0.0,0.0,0.0,0.0,0.0,0.0,0.0,0.0,0.0,0.0,0.0,0.0,0.0,0.0,0.0,0.0,0.0,0.0,0.0,0.0,0.0,0.0,0.0,0.0,0.0,0.0,0.0,0.0,0.0,0.0,0.0,0.0,0.0,0.0,0.0,0.0,0.0,0.0,0.0,0.0,0.0,0.0,0.0,0.0,0.0,0.0,0.0,0.0,0.0,0.0,0.0,0.0,0.0,0.0,0.0,0.0,0.0,0.0,0.0,0.0,0.0,0.0,0.0,0.0,0.0,0.0,0.0,0.0,0.0,0.0,0.0,0.0,0.0,0.0,0.0,0.0,0.0,0.0,0.0,0.0,0.0,0.0,0.0,0.0,0.0,0.0,0.0,0.0,0.0,0.0,0.0,0.0,0.0,0.0,0.0,0.0,0.0,0.0,0.0,0.0,0.0,0.0,0.0,0.0,0.0,0.0,0.0,0.0,0.0,0.0,0.0,0.0,0.0,0.0,0.0,0.0,0.0,0.0,0.0,0.0,0.0,0.0,0.0,0.0,0.0,0.0,0.0,0.0,0.0,0.0,0.0,0.0,0.0,0.0,0.0,0.0,0.0,0.0,0.0,0.0,0.0,0.0,0.0,0.0,0.0,0.0,0.0,0.0,0.0,0.0,0.0,0.0,0.0,0.0,0.0,0.0,0.0,0.0,0.0,0.0,0.0,0.0,0.0,0.0,0.0,0.0,0.0,0.0,0.0,0.0,0.0,0.0,0.0,0.0,0.0,0.0,0.0,0.0,0.0,0.0,0.0,0.0,0.0,0.0,0.0,0.0,0.0,0.0,0.0,0.0,0.0,0.0,0.0,0.0,0.0,0.0,0.0,0.0,0.0,0.0,0.0,0.0,0.0,0.0,0.0,0.0,0.0,0.0,0.0,0.0,0.0,0.0,0.0,0.0,0.0,0.0,0.0,0.0,0.0,0.0,0.0,0.0,0.0,0.0,0.0,0.0,0.0,0.0,0.0,0.0,0.0,0.0,0.0,0.0,0.0,0.0,0.0,0.0,0.0,0.0,0.0,0.0,0.0,0.0,0.0,0.0,0.0,0.0,0.0,0.0,0.0,0.0,0.0,0.0,0.0,0.0,0.0,0.0,0.0,0.0,0.0,0.0,0.0,0.0,0.0,0.0,0.0,0.0,0.0,0.0,0.0,0.0,0.0,0.0,0.0,0.0,0.0,0.0,0.0,0.0,0.0,0.0,0.0,0.0,0.0,0.0,0.0,0.0,0.0,0.0,0.0,0.0,0.0,0.0,0.0,0.0,0.0,0.0,0.0,0.0,0.0,0.0,0.0,0.0,0.0,0.0,0.0,0.0,0.0,0.0,0.0,0.0,0.0,0.0,0.0,0.0,0.0,0.0,0.0,0.0,0.0,0.0,0.0,0.0,0.0,0.0,0.0,0.0,0.0,0.0,0.0,0.0,0.0,0.0,0.0,0.0,0.0,0.0,0.0,0.0,0.0,0.0,0.0,0.0,0.0,0.0,0.0,0.0,0.0,0.0,0.0,0.0,0.0,0.0,0.0,0.0,0.0,0.0,0.0,0.0,0.0,0.0,0.0,0.0,0.0,0.0,0.0,0.0,0.0,0.0,0.0,0.0,0.0,0.0,0.0,0.0,0.0,0.0,0.0,0.0,0.0,0.0,0.0,0.0,0.0,0.0,0.0,0.0,0.0,0.0,0.0,0.0,0.0,0.0,0.0,0.0,0.0,0.0,0.0,0.0,0.0,0.0,0.0,0.0,0.0,0.0,0.0,0.0,0.0,0.0,0.0,0.0,0.0,0.0,0.0,0.0,0.0,0.0,0.0,0.0,0.0,0.0,0.0,0.0,0.0,0.0,0.0,0.0,0.0,0.0,0.0,0.0,0.0,0.0,0.0,0.0,0.0,0.0,0.0,0.0,0.0,0.0,0.0,0.0,0.0,0.0,0.0,0.0,0.0,0.0,0.0,0.0,0.0,0.0,0.0,0.0,0.0,0.0,0.0,0.0,0.0,0.0,0.0,0.0,0.0,0.0,0.0,0.0,0.0,0.0,0.0,0.0,0.0,0.0,0.0,0.0,0.0,0.0,0.0,0.0,0.0,0.0,0.0,0.0,0.0,0.0,0.0,0.0,0.0,0.0,0.0,0.0,0.0,0.0,0.0,0.0,0.0,0.0,0.0,0.0,0.0,0.0,0.0,0.0,0.0,0.0,0.0,0.0,0.0,0.0,0.0,0.0,0.0,0.0,0.0,0.0,0.0,0.0,0.0,0.0,0.0,0.0,0.0,0.0,0.0,0.0,0.0,0.0,0.0,0.0,0.0,0.0,0.0,0.0,0.0,0.0,0.0,0.0,0.0,0.0,0.0,0.0,0.0,0.0,0.0,0.0,0.0,0.0,0.0,0.0,0.0,0.0,0.0,0.0,0.0,0.0,0.0,0.0,0.0,0.0,0.0,0.0,0.0,0.0,0.0,0.0,0.0,0.0,0.0,0.0,0.0,0.0,0.0,0.0,0.0,0.0,0.0,0.0,0.0,0.0,0.0,0.0,0.0,0.0,0.0,0.0,0.0,0.0,0.0,0.0,0.0,0.0,0.0,0.0,0.0,0.0,0.0,0.0,0.0,0.0,0.0,0.0,0.0,0.0,0.0,0.0,0.0,0.0,0.0,0.0,0.0,0.0,0.0,0.0,0.0,0.0,0.0,0.0,0.0,0.0,0.0,0.0,0.0,0.0,0.0,0.0,0.0,0.0,0.0,0.0,0.0,0.0,0.0,0.0,0.0,0.0,0.0,0.0,0.0,0.0,0.0,0.0,0.0,0.0,0.0,0.0,0.0,0.0,0.0,0.0,0.0,0.0,0.0,0.0,0.0,0.0,0.0,0.0,0.0,0.0,0.0,0.0,0.0,0.0,0.0,0.0,0.0,0.0,0.0,0.0,0.0,0.0,0.0,0.0,0.0,0.0,0.0,0.0,0.0,0.0,0.0,0.0,0.0,0.0,0.0,0.0,0.0,0.0,0.0,0.0,0.0,0.0,0.0,0.0,0.0,0.0,0.0,0.0,0.0,0.0,0.0,0.0,0.0,0.0,0.0,0.0,0.0,0.0,0.0,0.0,0.0,0.0,0.0,0.0,0.0,0.0,0.0,0.0,0.0,0.0,0.0,0.0,0.0,0.0,0.0,0.0,0.0,0.0,0.0,0.0,0.0,0.0,0.0,0.0,0.0,0.0,0.0,0.0,0.0,0.0,0.0,0.0,0.0,0.0,0.0,0.0,0.0,0.0,0.0,0.0,0.0,0.0,0.0,0.0,0.0,0.0,0.0,0.0,0.0,0.0,0.0,0.0,0.0,0.0,0.0,0.0,0.0,0.0,0.0,0.0,0.0,0.0,0.0,0.0,0.0,0.0,0.0,0.0,0.0,0.0,0.0,0.0,0.0,0.0,0.0,0.0,0.0,0.0,0.0,0.0,0.0,0.0,0.0,0.0,0.0,0.0,0.0,0.0,0.0,0.0,0.0,0.0,0.0,0.0,0.0,0.0,0.0,0.0,0.0,0.0,0.0,0.0,0.0,0.0,0.0,0.0,0.0,0.0,0.0,0.0,0.0,0.0,0.0,0.0,0.0,0.0,0.0,0.0,0.0,0.0,0.0,0.0,0.0,0.0,0.0,0.0,0.0,0.0,0.0,0.0,0.0,0.0,0.0,0.0,0.0,0.0,0.0,0.0,0.0,0.0,0.0,0.0,0.0,0.0,0.0,0.0,0.0,0.0,0.0,0.0,0.0,0.0,0.0,0.0,0.0,2.0024,0.0,0.0,0.0,0.0,0.0,0.0,0.0,0.0,0.0,0.0,0.0,0.0,0.0,0.0,0.0,0.0,0.0,0.0,0.0,0.0,0.0,0.0,0.0,0.0,0.0,0.0,0.0,0.0,0.0,0.0,0.0,0.0,0.0,0.0,0.0,0.0,0.0,0.0,0.0,0.0,0.0,0.0,0.0,0.0,0.0,0.0,0.0,0.0,0.0,0.0,0.0,0.0,0.0,0.0,0.0,0.0,0.0,0.0,0.0,0.0,0.0,0.0,0.0,0.0,0.0,0.0,0.0,0.0,0.0,0.0,0.0,0.0,0.0,0.0,0.0,0.0,0.0,0.0,0.0,0.0,0.0,0.0,0.0,0.0,0.0,0.0,0.0,0.0,0.0,0.0,0.0,0.0,0.0,0.0,0.0,0.0,0.0,0.0,0.0,0.0,0.0,0.0,0.0,0.0,0.0,0.0,0.0,0.0,0.0,0.0,2.2999,2.1789,2.3031,2.2937,2.1255,0.0,0.0,0.0,0.0,0.0,0.0,0.0,0.0,0.0,0.0,0.0,0.0,0.0,0.0,0.0,0.0,0.0,0.0,0.0,0.0,0.0,0.0,0.0,0.0,0.0,0.0,0.0,0.0,0.0,0.0,0.0,0.0,0.0,0.0,0.0,0.0,0.0,0.0,0.0,0.0,0.0,0.0,0.0,0.0,0.0,0.0,0.0,0.0,0.0,0.0,0.0,0.0,0.0,0.0,0.0,0.0,0.0,0.0,0.0,0.0,0.0,0.0,0.0,0.0,0.0,0.0,0.0,0.0,0.0,0.0,0.0,0.0,0.0,0.0,0.0,0.0,0.0,0.0,0.0,0.0,0.0,0.0,0.0,0.0,0.0,0.0,0.0,0.0,0.0,0.0,0.0,0.0,0.0,0.0,0.0,0.0,0.0,0.0,0.0,0.0,0.0,0.0,0.0,0.0,0.0,0.0,0.0,0.0,0.0,0.0,0.0,0.0,2.4166,2.4094,2.2539,0.0,0.0,0.0,0.0,0.0,0.0,0.0,0.0,0.0,0.0,0.0,0.0,0.0,0.0,0.0,0.0,0.0,0.0,0.0,0.0,0.0,0.0,0.0,0.0,0.0,0.0,0.0,0.0,0.0,0.0,0.0,0.0,0.0,0.0,0.0,0.0,0.0,0.0,0.0,0.0,0.0,0.0,0.0,0.0,0.0,0.0,0.0,0.0,0.0,0.0,0.0,0.0,0.0,0.0,0.0,0.0,0.0,0.0,0.0,0.0,0.0,0.0,0.0,0.0,0.0,0.0,0.0,0.0,0.0,0.0,0.0,0.0,0.0,0.0,0.0,0.0,0.0,0.0,0.0,0.0,0.0,0.0,0.0,0.0,0.0,0.0,0.0,0.0,0.0,0.0,0.0,0.0,0.0,0.0,0.0,0.0,0.0,0.0,0.0,0.0,0.0,0.0,0.0,0.0,0.0,0.0,0.0,0.0,0.0,0.0,2.472,2.5354,2.4832,0.0,2.3285,0.0,0.0,0.0,0.0,0.0,0.0,0.0,0.0,0.0,0.0,0.0,0.0,0.0,0.0,0.0,0.0,0.0,0.0,0.0,0.0,0.0,0.0,0.0,0.0,0.0,0.0,0.0,0.0,0.0,0.0,0.0,0.0,0.0,0.0,0.0,0.0,0.0,0.0,0.0,0.0,0.0,0.0,0.0,0.0,0.0,0.0,0.0,0.0,0.0,0.0,0.0,0.0,0.0,0.0,0.0,0.0,0.0,0.0,0.0,0.0,0.0,0.0,0.0,0.0,0.0,0.0,0.0,0.0,0.0,0.0,0.0,0.0,0.0,0.0,0.0,0.0,0.0,0.0,0.0,0.0,0.0,0.0,0.0,0.0,0.0,0.0,0.0,0.0,0.0,0.0,0.0,0.0,0.0,0.0,0.0,0.0,0.0,0.0,0.0,0.0,0.0,0.0,0.0,0.0,0.0,0.0,0.0,0.0,0.0,0.0,2.3968,2.5191,2.5065,2.433,0.0,0.0,0.0,0.0,0.0,0.0,0.0,0.0,0.0,0.0,0.0,0.0,0.0,0.0,0.0,0.0,0.0,0.0,0.0,0.0,0.0,0.0,0.0,0.0,0.0,0.0,0.0,0.0,0.0,0.0,0.0,0.0,0.0,0.0,0.0,0.0,0.0,0.0,0.0,0.0,0.0,0.0,0.0,0.0,0.0,0.0,0.0,0.0,0.0,0.0,0.0,0.0,0.0,0.0,0.0,0.0,0.0,0.0,0.0,0.0,0.0,0.0,0.0,0.0,0.0,0.0,0.0,0.0,0.0,0.0,0.0,0.0,0.0,0.0,0.0,0.0,0.0,0.0,0.0,0.0,0.0,0.0,0.0,0.0,0.0,0.0,0.0,0.0,0.0,0.0,0.0,0.0,0.0,0.0,0.0,0.0,0.0,0.0,0.0,0.0,0.0,0.0,0.0,0.0,0.0,0.0,0.0,0.0,0.0,0.0,2.3852,2.3788,2.4824,2.4285,2.3614,2.2978,0.0,0.0,0.0,0.0,0.0,0.0,0.0,0.0,0.0,0.0,0.0,0.0,0.0,0.0,0.0,0.0,0.0,0.0,0.0,0.0,0.0,0.0,0.0,0.0,0.0,0.0,0.0,0.0,0.0,0.0,0.0,0.0,0.0,0.0,0.0,0.0,0.0,0.0,0.0,0.0,0.0,0.0,0.0,0.0,0.0,0.0,0.0,0.0,0.0,0.0,0.0,0.0,0.0,0.0,0.0,0.0,0.0,0.0,0.0,0.0,0.0,0.0,0.0,0.0,0.0,0.0,0.0,0.0,0.0,0.0,0.0,0.0,0.0,0.0,0.0,0.0,0.0,0.0,0.0,0.0,0.0,0.0,0.0,0.0,0.0,0.0,0.0,0.0,0.0,0.0,0.0,0.0,0.0,0.0,0.0,0.0,0.0,0.0,0.0,0.0,0.0,0.0,0.0,0.0,0.0,0.0,0.0,0.0,2.7018,2.5565,2.4806,2.4838,2.2095,2.157,0.0,0.0,0.0,0.0,0.0,0.0,0.0,0.0,0.0,0.0,0.0,0.0,0.0,0.0,0.0,0.0,0.0,0.0,0.0,0.0,0.0,0.0,0.0,0.0,0.0,0.0,0.0,0.0,0.0,0.0,0.0,0.0,0.0,0.0,0.0,0.0,0.0,0.0,0.0,0.0,0.0,0.0,0.0,0.0,0.0,0.0,0.0,0.0,0.0,0.0,0.0,0.0,0.0,0.0,0.0,0.0,0.0,0.0,0.0,0.0,0.0,0.0,0.0,0.0,0.0,0.0,0.0,0.0,0.0,0.0,0.0,0.0,0.0,0.0,0.0,0.0,0.0,0.0,0.0,0.0,0.0,0.0,0.0,0.0,0.0,0.0,0.0,0.0,0.0,0.0,0.0,0.0,0.0,0.0,0.0,0.0,0.0,0.0,0.0,0.0,0.0,0.0,0.0,0.0,0.0,0.0,0.0,0.0,0.0,2.404,2.323,2.2318,2.1406,2.1799,2.2273,0.0,0.0,0.0,0.0,0.0,0.0,0.0,0.0,0.0,0.0,0.0,0.0,0.0,0.0,0.0,0.0,0.0,0.0,0.0,0.0,0.0,0.0,0.0,0.0,0.0,0.0,0.0,0.0,0.0,0.0,0.0,0.0,0.0,0.0,0.0,0.0,0.0,0.0,0.0,0.0,0.0,0.0,0.0,0.0,0.0,0.0,0.0,0.0,0.0,0.0,0.0,0.0,0.0,0.0,0.0,0.0,0.0,0.0,0.0,0.0,0.0,0.0,0.0,0.0,0.0,0.0,0.0,0.0,0.0,0.0,0.0,0.0,0.0,0.0,0.0,0.0,0.0,0.0,0.0,0.0,0.0,0.0,0.0,0.0,0.0,0.0,0.0,0.0,0.0,0.0,0.0,0.0,0.0,0.0,0.0,0.0,0.0,0.0,0.0,0.0,0.0,0.0,0.0,0.0,0.0,0.0,0.0,0.0,0.0,2.2429,0.0,2.1552,2.0043,2.141,2.1947,0.0,0.0,0.0,0.0,0.0,0.0,0.0,0.0,0.0,0.0,0.0,0.0,0.0,0.0,0.0,0.0,0.0,0.0,0.0,0.0,0.0,0.0,0.0,0.0,0.0,0.0,0.0,0.0,0.0,0.0,0.0,0.0,0.0,0.0,0.0,0.0,0.0,0.0,0.0,0.0,0.0,0.0,0.0,0.0,0.0,0.0,0.0,0.0,0.0,0.0,0.0,0.0,0.0,0.0,0.0,0.0,0.0,0.0,0.0,0.0,0.0,0.0,0.0,0.0,0.0,0.0,0.0,0.0,0.0,0.0,0.0,0.0,0.0,0.0,0.0,0.0,0.0,0.0,0.0,0.0,0.0,0.0,0.0,0.0,0.0,0.0,0.0,0.0,0.0,0.0,0.0,0.0,0.0,0.0,0.0,0.0,0.0,0.0,0.0,0.0,0.0,0.0,0.0,0.0,0.0,0.0,0.0,0.0,2.2192,2.2608,2.3246,2.2729,2.1257,2.0719,2.0355,0.0,0.0,0.0,0.0,0.0,0.0,0.0,0.0,0.0,0.0,0.0,0.0,0.0,0.0,0.0,0.0,0.0,0.0,0.0,0.0,0.0,0.0,0.0,0.0,0.0,0.0,0.0,0.0,0.0,0.0,0.0,0.0,0.0,0.0,0.0,0.0,0.0,0.0,0.0,0.0,0.0,0.0,0.0,0.0,0.0,0.0,0.0,0.0,0.0,0.0,0.0,0.0,0.0,0.0,0.0,0.0,0.0,0.0,0.0,0.0,0.0,0.0,0.0,0.0,0.0,0.0,0.0,0.0,0.0,0.0,0.0,0.0,0.0,0.0,0.0,0.0,0.0,0.0,0.0,0.0,0.0,0.0,0.0,0.0,0.0,0.0,0.0,0.0,0.0,0.0,0.0,0.0,0.0,0.0,0.0,0.0,0.0,0.0,0.0,0.0,0.0,0.0,0.0,0.0,0.0,0.0,0.0,0.0,0.0,1.9134,2.0256,2.0901,2.0836,2.0706,2.1154,0.0,0.0,0.0,0.0,0.0,0.0,0.0,0.0,0.0,0.0,0.0,0.0,0.0,0.0,0.0,0.0,0.0,0.0,0.0,0.0,0.0,0.0,0.0,0.0,0.0,0.0,0.0,0.0,0.0,0.0,0.0,0.0,0.0,0.0,0.0,0.0,0.0,0.0,0.0,0.0,0.0,0.0,0.0,0.0,0.0,0.0,0.0,0.0,0.0,0.0,0.0,0.0,0.0,0.0,0.0,0.0,0.0,0.0,0.0,0.0,0.0,0.0,0.0,0.0,0.0,0.0,0.0,0.0,0.0,0.0,0.0,0.0,0.0,0.0,0.0,0.0,0.0,0.0,0.0,0.0,0.0,0.0,0.0,0.0,0.0,0.0,0.0,0.0,0.0,0.0,0.0,0.0,0.0,0.0,0.0,0.0,0.0,0.0,0.0,0.0,0.0,0.0,0.0,0.0,0.0,0.0,0.0,0.0,0.0,1.7852,1.9739,2.073,2.055,2.091,2.1325,2.1745,0.0,0.0,0.0,0.0,0.0,0.0,0.0,0.0,0.0,0.0,0.0,0.0,0.0,0.0,0.0,0.0,0.0,0.0,0.0,0.0,0.0,0.0,0.0,0.0,0.0,0.0,0.0,0.0,0.0,0.0,0.0,0.0,0.0,0.0,0.0,0.0,0.0,0.0,0.0,0.0,0.0,0.0,0.0,0.0,0.0,0.0,0.0,0.0,0.0,0.0,0.0,0.0,0.0,0.0,0.0,0.0,0.0,0.0,0.0,0.0,0.0,0.0,0.0,0.0,0.0,0.0,0.0,0.0,0.0,0.0,0.0,0.0,0.0,0.0,0.0,0.0,0.0,0.0,0.0,0.0,0.0,0.0,0.0,0.0,0.0,0.0,0.0,0.0,0.0,0.0,0.0,0.0,0.0,0.0,0.0,0.0,0.0,0.0,0.0,0.0,0.0,0.0,0.0,0.0,0.0,0.0,0.0,0.0,1.8181,2.1167,2.1943,2.0433,2.1223,2.0957,0.0,0.0,0.0,0.0,0.0,0.0,0.0,0.0,0.0,0.0,0.0,0.0,0.0,0.0,0.0,0.0,0.0,0.0,0.0,0.0,0.0,0.0,0.0,0.0,0.0,0.0,0.0,0.0,0.0,0.0,0.0,0.0,0.0,0.0,0.0,0.0,0.0,0.0,0.0,0.0,0.0,0.0,0.0,0.0,0.0,0.0,0.0,0.0,0.0,0.0,0.0,0.0,0.0,0.0,0.0,0.0,0.0,0.0,0.0,0.0,0.0,0.0,0.0,0.0,0.0,0.0,0.0,0.0,0.0,0.0,0.0,0.0,0.0,0.0,0.0,0.0,0.0,0.0,0.0,0.0,0.0,0.0,0.0,0.0,0.0,0.0,0.0,0.0,0.0,0.0,0.0,0.0,0.0,0.0,0.0,0.0,0.0,0.0,0.0,0.0,0.0,0.0,0.0,0.0,0.0,0.0,0.0,0.0,0.0,1.9019,2.0279,2.0996,2.1034,2.0802,2.0719,0.0,0.0,0.0,0.0,0.0,0.0,0.0,0.0,0.0,0.0,0.0,0.0,0.0,0.0,0.0,0.0,0.0,0.0,0.0,0.0,0.0,0.0,0.0,0.0,0.0,0.0,0.0,0.0,0.0,0.0,0.0,0.0,0.0,0.0,0.0,0.0,0.0,0.0,0.0,0.0,0.0,0.0,0.0,0.0,0.0,0.0,0.0,0.0,0.0,0.0,0.0,0.0,0.0,0.0,0.0,0.0,0.0,0.0,0.0,0.0,0.0,0.0,0.0,0.0,0.0,0.0,0.0,0.0,0.0,0.0,0.0,0.0,0.0,0.0,0.0,0.0,0.0,0.0,0.0,0.0,0.0,0.0,0.0,0.0,0.0,0.0,0.0,0.0,0.0,0.0,0.0,0.0,0.0,0.0,0.0,0.0,0.0,0.0,0.0,0.0,0.0,0.0,0.0,0.0,0.0,0.0,0.0,0.0,2.0109,1.9688,2.037,2.0905,2.1293,2.0353,1.9984,0.0,0.0,0.0,0.0,0.0,0.0,0.0,0.0,0.0,0.0,0.0,0.0,0.0,0.0,0.0,0.0,0.0,0.0,0.0,0.0,0.0,0.0,0.0,0.0,0.0,0.0,0.0,0.0,0.0,0.0,0.0,0.0,0.0,0.0,0.0,0.0,0.0,0.0,0.0,0.0,0.0,0.0,0.0,0.0,0.0,0.0,0.0,0.0,0.0,0.0,0.0,0.0,0.0,0.0,0.0,0.0,0.0,0.0,0.0,0.0,0.0,0.0,0.0,0.0,0.0,0.0,0.0,0.0,0.0,0.0,0.0,0.0,0.0,0.0,0.0,0.0,0.0,0.0,0.0,0.0,0.0,0.0,0.0,0.0,0.0,0.0,0.0,0.0,0.0,0.0,0.0,0.0,0.0,0.0,0.0,0.0,0.0,0.0,0.0,0.0,0.0,0.0,0.0,0.0,0.0,0.0,0.0,0.0,2.0986,2.0276,2.0858,2.1165,2.1116,1.9869,1.9135,0.0,0.0,0.0,0.0,0.0,0.0,0.0,0.0,0.0,0.0,0.0,0.0,0.0,0.0,0.0,0.0,0.0,0.0,0.0,0.0,0.0,0.0,0.0,0.0,0.0,0.0,0.0,0.0,0.0,0.0,0.0,0.0,0.0,0.0,0.0,0.0,0.0,0.0,0.0,0.0,0.0,0.0,0.0,0.0,0.0,0.0,0.0,0.0,0.0,0.0,0.0,0.0,0.0,0.0,0.0,0.0,0.0,0.0,0.0,0.0,0.0,0.0,0.0,0.0,0.0,0.0,0.0,0.0,0.0,0.0,0.0,0.0,0.0,0.0,0.0,0.0,0.0,0.0,0.0,0.0,0.0,0.0,0.0,0.0,0.0,0.0,0.0,0.0,0.0,0.0,0.0,0.0,0.0,0.0,0.0,0.0,0.0,0.0,0.0,0.0,0.0,0.0,0.0,0.0,0.0,0.0,0.0,0.0,2.0892,2.0032,2.0128,2.0192,2.0192,1.9568,1.9301,0.0,0.0,0.0,0.0,0.0,0.0,0.0,0.0,0.0,0.0,0.0,0.0,0.0,0.0,0.0,0.0,0.0,0.0,0.0,0.0,0.0,0.0,0.0,0.0,0.0,0.0,0.0,0.0,0.0,0.0,0.0,0.0,0.0,0.0,0.0,0.0,0.0,0.0,0.0,0.0,0.0,0.0,0.0,0.0,0.0,0.0,0.0,0.0,2.3608,0.0,0.0,0.0,0.0,0.0,0.0,0.0,0.0,0.0,0.0,0.0,0.0,0.0,0.0,0.0,0.0,0.0,0.0,0.0,0.0,0.0,0.0,0.0,0.0,0.0,0.0,0.0,0.0,0.0,0.0,0.0,0.0,0.0,0.0,0.0,0.0,0.0,0.0,0.0,0.0,0.0,0.0,0.0,0.0,0.0,0.0,0.0,0.0,0.0,0.0,0.0,0.0,0.0,0.0,0.0,0.0,0.0,0.0,0.0,2.1006,2.0385,2.0369,2.0305,2.0161,1.9624,1.9371,0.0,0.0,0.0,0.0,0.0,0.0,0.0,0.0,0.0,0.0,0.0,0.0,0.0,0.0,0.0,0.0,0.0,0.0,0.0,0.0,0.0,0.0,0.0,0.0,0.0,0.0,0.0,0.0,0.0,0.0,0.0,0.0,0.0,0.0,0.0,0.0,0.0,0.0,0.0,0.0,0.0,0.0,0.0,0.0,0.0,0.0,0.0,0.0,0.0,0.0,0.0,0.0,0.0,0.0,0.0,0.0,0.0,0.0,0.0,0.0,0.0,0.0,0.0,0.0,0.0,0.0,0.0,0.0,0.0,0.0,0.0,0.0,0.0,0.0,0.0,0.0,0.0,0.0,0.0,0.0,0.0,0.0,0.0,0.0,0.0,0.0,0.0,0.0,0.0,0.0,0.0,0.0,0.0,0.0,0.0,0.0,0.0,0.0,0.0,0.0,0.0,0.0,0.0,0.0,0.0,0.0,0.0,2.1309,2.1183,2.091,2.0845,2.0729,2.0478,1.982,1.9445,1.9443,0.0,0.0,0.0,0.0,0.0,0.0,0.0,0.0,0.0,0.0,0.0,0.0,0.0,0.0,0.0,0.0,0.0,0.0,0.0,0.0,0.0,0.0,0.0,0.0,0.0,0.0,0.0,0.0,0.0,0.0,0.0,0.0,0.0,0.0,0.0,0.0,0.0,0.0,2.371,2.4456,0.0,0.0,0.0,0.0,0.0,0.0,0.0,0.0,2.5476,0.0,0.0,0.0,0.0,0.0,0.0,0.0,0.0,0.0,0.0,0.0,0.0,0.0,0.0,0.0,0.0,0.0,0.0,0.0,0.0,0.0,0.0,0.0,0.0,0.0,0.0,0.0,0.0,0.0,0.0,0.0,0.0,0.0,0.0,0.0,0.0,0.0,0.0,0.0,0.0,0.0,0.0,0.0,0.0,0.0,0.0,0.0,0.0,0.0,0.0,0.0,0.0,0.0,0.0,0.0,0.0,2.1325,2.1309,2.1151,2.0909,2.063,2.0461,2.041,1.9978,1.9708,1.9637,0.0,0.0,0.0,0.0,0.0,0.0,0.0,0.0,0.0,0.0,0.0,0.0,0.0,0.0,0.0,0.0,0.0,0.0,0.0,0.0,0.0,0.0,0.0,0.0,0.0,0.0,0.0,0.0,0.0,0.0,0.0,0.0,0.0,0.0,0.0,0.0,0.0,0.0,0.0,2.6619,2.6943,0.0,0.0,0.0,0.0,0.0,0.0,0.0,0.0,2.6071,0.0,0.0,0.0,0.0,0.0,0.0,0.0,0.0,0.0,0.0,0.0,0.0,0.0,0.0,0.0,0.0,0.0,0.0,0.0,0.0,0.0,0.0,0.0,0.0,0.0,0.0,0.0,0.0,0.0,0.0,0.0,0.0,0.0,0.0,0.0,0.0,0.0,0.0,0.0,0.0,0.0,0.0,0.0,0.0,0.0,0.0,0.0,0.0,0.0,0.0,0.0,0.0,0.0,0.0,0.0,2.1341,2.1309,2.1183,2.0893,2.0563,2.041,2.0443,1.9889,1.9624,0.0,0.0,0.0,0.0,0.0,0.0,0.0,0.0,0.0,0.0,0.0,0.0,0.0,0.0,0.0,0.0,0.0,0.0,0.0,0.0,0.0,0.0,0.0,0.0,0.0,0.0,0.0,0.0,0.0,0.0,0.0,0.0,0.0,0.0,0.0,0.0,0.0,0.0,0.0,0.0,2.7656,2.8094,2.8678,0.0,0.0,0.0,0.0,0.0,0.0,2.781,2.7791,0.0,0.0,0.0,0.0,0.0,0.0,0.0,0.0,0.0,0.0,0.0,0.0,0.0,0.0,0.0,0.0,0.0,0.0,0.0,0.0,0.0,0.0,0.0,0.0,0.0,0.0,0.0,0.0,0.0,0.0,0.0,0.0,0.0,0.0,0.0,0.0,0.0,0.0,0.0,0.0,0.0,0.0,0.0,0.0,0.0,0.0,0.0,0.0,0.0,0.0,0.0,0.0,0.0,0.0,0.0,2.1387,2.1324,2.1198,2.099,2.0646,2.0512,2.0529,1.9904,1.9636,0.0,0.0,0.0,0.0,0.0,0.0,0.0,0.0,0.0,0.0,0.0,0.0,0.0,0.0,0.0,0.0,0.0,0.0,0.0,0.0,0.0,0.0,0.0,0.0,0.0,0.0,0.0,0.0,0.0,0.0,0.0,0.0,0.0,0.0,0.0,0.0,0.0,0.0,0.0,0.0,0.0,2.9156,2.9156,2.9293,0.0,0.0,0.0,0.0,2.9006,2.9499,0.0,0.0,0.0,0.0,0.0,0.0,0.0,0.0,0.0,0.0,0.0,0.0,0.0,0.0,0.0,0.0,0.0,0.0,0.0,0.0,0.0,0.0,0.0,0.0,0.0,0.0,0.0,0.0,0.0,0.0,0.0,0.0,0.0,0.0,0.0,0.0,0.0,0.0,0.0,0.0,0.0,0.0,0.0,0.0,0.0,0.0,0.0,0.0,0.0,0.0,0.0,0.0,0.0,0.0,0.0,0.0,2.1648,2.1434,2.1277,2.1246,2.0909,2.0745,2.0761,2.0273,1.9922,0.0,0.0,0.0,0.0,0.0,0.0,0.0,0.0,0.0,0.0,0.0,0.0,0.0,0.0,0.0,0.0,0.0,0.0,0.0,0.0,0.0,0.0,0.0,0.0,0.0,0.0,0.0,0.0,0.0,0.0,0.0,0.0,0.0,0.0,0.0,0.0,0.0,0.0,0.0,0.0,0.0,3.0607,3.036,2.9764,2.9562,0.0,0.0,2.9728,3.1035,3.13,0.0,0.0,0.0,0.0,0.0,0.0,0.0,0.0,0.0,0.0,0.0,0.0,0.0,0.0,0.0,0.0,0.0,0.0,0.0,0.0,0.0,0.0,0.0,0.0,0.0,0.0,0.0,0.0,0.0,0.0,0.0,0.0,0.0,0.0,0.0,0.0,0.0,0.0,0.0,0.0,0.0,0.0,0.0,0.0,0.0,0.0,0.0,0.0,0.0,0.0,0.0,0.0,0.0,0.0,0.0,2.2679,2.2286,2.2194,2.21,2.1892,2.1181,2.0893,2.1071,2.0444,2.0135,0.0,0.0,0.0,0.0,0.0,0.0,0.0,0.0,0.0,0.0,0.0,0.0,0.0,0.0,0.0,0.0,0.0,0.0,0.0,0.0,0.0,0.0,0.0,0.0,0.0,0.0,0.0,0.0,0.0,0.0,0.0,0.0,0.0,0.0,0.0,0.0,0.0,0.0,0.0,0.0,0.0,0.0,3.1328,3.0962,0.0,0.0,0.0,3.0886,3.1499,0.0,0.0,0.0,0.0,0.0,0.0,0.0,0.0,0.0,0.0,0.0,0.0,0.0,0.0,0.0,0.0,0.0,0.0,0.0,0.0,0.0,0.0,0.0,0.0,0.0,0.0,0.0,0.0,0.0,0.0,0.0,0.0,0.0,0.0,0.0,0.0,0.0,0.0,0.0,0.0,0.0,0.0,0.0,0.0,0.0,0.0,0.0,0.0,0.0,0.0,0.0,0.0,0.0,0.0,0.0,0.0,0.0,2.2655,2.2744,2.2685,2.246,2.1455,2.1135,2.1536,2.0789,0.0,0.0,0.0,0.0,0.0,0.0,0.0,0.0,0.0,0.0,0.0,0.0,0.0,0.0,0.0,0.0,0.0,0.0,0.0,0.0,0.0,0.0,0.0,0.0,0.0,0.0,0.0,2.3664,0.0,0.0,0.0,0.0,0.0,0.0,0.0,0.0,0.0,0.0,0.0,0.0,0.0,0.0,3.1091,3.2223,3.2018,3.1838,0.0,0.0,3.1681,3.183,3.2481,3.2348,0.0,0.0,0.0,0.0,0.0,0.0,0.0,0.0,0.0,0.0,0.0,0.0,0.0,0.0,0.0,0.0,0.0,0.0,0.0,0.0,0.0,0.0,0.0,0.0,0.0,0.0,0.0,0.0,0.0,0.0,0.0,0.0,0.0,0.0,0.0,0.0,0.0,0.0,0.0,0.0,0.0,0.0,0.0,0.0,0.0,0.0,0.0,0.0,0.0,0.0,0.0,0.0,0.0,0.0,0.0,2.2454,2.268,2.2797,2.2668,2.1744,2.1617,2.2297,2.1471,2.0892,0.0,0.0,0.0,0.0,0.0,0.0,0.0,0.0,0.0,0.0,0.0,0.0,0.0,0.0,0.0,0.0,0.0,0.0,0.0,0.0,0.0,0.0,0.0,0.0,0.0,0.0,0.0,0.0,0.0,0.0,0.0,0.0,0.0,0.0,0.0,0.0,0.0,0.0,0.0,0.0,0.0,3.1839,3.2963,3.2551,3.253,0.0,0.0,3.183,3.2536,3.3249,3.2762,2.9926,0.0,0.0,0.0,0.0,0.0,0.0,0.0,0.0,0.0,0.0,0.0,0.0,0.0,0.0,0.0,0.0,0.0,0.0,0.0,0.0,0.0,0.0,0.0,0.0,0.0,0.0,0.0,0.0,0.0,0.0,0.0,0.0,0.0,0.0,0.0,0.0,0.0,0.0,0.0,0.0,0.0,0.0,0.0,0.0,0.0,0.0,0.0,0.0,0.0,0.0,0.0,0.0,0.0,2.487,2.4447,2.4563,2.446,2.4034,2.2866,2.2279,2.2394,2.1552,2.1038,0.0,0.0,0.0,0.0,0.0,0.0,0.0,0.0,0.0,0.0,0.0,0.0,0.0,0.0,0.0,0.0,0.0,0.0,0.0,0.0,0.0,0.0,0.0,0.0,0.0,0.0,0.0,0.0,2.4583,2.5423,2.607,0.0,0.0,0.0,0.0,0.0,0.0,0.0,0.0,0.0,0.0,3.2636,3.4057,3.4023,0.0,0.0,3.3628,3.3122,3.2757,3.295,3.2453,3.039,3.0307,0.0,0.0,0.0,0.0,0.0,0.0,0.0,0.0,0.0,0.0,0.0,0.0,0.0,0.0,0.0,0.0,0.0,0.0,0.0,0.0,0.0,0.0,0.0,0.0,0.0,0.0,0.0,0.0,0.0,0.0,0.0,0.0,0.0,0.0,0.0,0.0,0.0,0.0,0.0,0.0,0.0,0.0,0.0,0.0,0.0,0.0,0.0,0.0,0.0,0.0,0.0,0.0,2.6155,2.5507,2.5902,2.5694,2.4813,2.3567,2.2811,2.2605,2.1777,2.1294,0.0,0.0,0.0,0.0,0.0,0.0,0.0,0.0,0.0,0.0,0.0,0.0,0.0,0.0,0.0,0.0,0.0,0.0,0.0,0.0,0.0,0.0,0.0,0.0,0.0,0.0,0.0,0.0,2.5531,2.6597,2.7362,0.0,0.0,0.0,0.0,0.0,0.0,0.0,0.0,0.0,0.0,3.3685,3.516,3.4988,3.4637,3.446,3.4264,3.3881,3.3223,3.3106,3.2542,3.0902,0.0,0.0,0.0,0.0,0.0,0.0,0.0,0.0,0.0,0.0,0.0,0.0,0.0,0.0,0.0,0.0,0.0,0.0,0.0,0.0,0.0,0.0,0.0,0.0,0.0,0.0,0.0,0.0,0.0,0.0,0.0,0.0,0.0,0.0,0.0,0.0,0.0,0.0,0.0,0.0,0.0,0.0,0.0,0.0,0.0,0.0,0.0,0.0,0.0,0.0,0.0,0.0,0.0,2.6557,2.5094,2.6304,2.6144,2.4672,2.3708,2.3167,2.3056,2.2297,2.172,2.1402,0.0,0.0,0.0,0.0,0.0,0.0,0.0,0.0,0.0,0.0,0.0,0.0,0.0,0.0,0.0,0.0,0.0,0.0,0.0,0.0,0.0,0.0,0.0,0.0,0.0,0.0,2.5482,2.5943,2.6551,0.0,0.0,0.0,0.0,0.0,0.0,0.0,0.0,0.0,0.0,3.4544,3.5082,3.6249,3.5188,3.4429,3.478,3.4247,3.3828,3.4052,3.4086,3.3378,0.0,0.0,0.0,0.0,0.0,0.0,0.0,0.0,0.0,0.0,0.0,0.0,0.0,0.0,0.0,0.0,0.0,0.0,0.0,0.0,0.0,0.0,0.0,0.0,0.0,0.0,0.0,3.1843,3.0613,0.0,0.0,0.0,0.0,0.0,0.0,0.0,0.0,0.0,0.0,0.0,3.3018,3.355,0.0,0.0,0.0,0.0,0.0,0.0,0.0,0.0,0.0,0.0,0.0,0.0,2.8505,2.7349,2.7683,2.7072,2.5381,2.4538,2.3806,2.312,2.2326,2.184,2.1661,0.0,0.0,0.0,0.0,0.0,0.0,0.0,0.0,0.0,0.0,0.0,0.0,0.0,0.0,0.0,0.0,0.0,0.0,0.0,0.0,0.0,0.0,0.0,0.0,0.0,2.7001,0.0,0.0,0.0,0.0,0.0,0.0,0.0,0.0,0.0,0.0,0.0,3.2647,3.5054,3.4985,3.5019,3.592,3.5605,3.5595,0.0,0.0,0.0,0.0,0.0,0.0,0.0,0.0,0.0,0.0,0.0,0.0,0.0,0.0,3.5001,3.3857,3.3189,3.2815,3.2862,0.0,0.0,0.0,0.0,0.0,0.0,0.0,0.0,0.0,0.0,0.0,0.0,0.0,0.0,0.0,0.0,3.2247,0.0,0.0,0.0,0.0,0.0,0.0,0.0,0.0,3.484,3.5204,3.4945,3.5432,3.571,0.0,3.4552,3.3757,0.0,0.0,0.0,0.0,0.0,0.0,0.0,0.0,3.0113,2.9171,2.9122,2.8107,2.6079,2.5272,2.4264,2.3004,2.2336,2.2116,2.2339,2.2486,2.2757,0.0,0.0,0.0,0.0,0.0,0.0,0.0,0.0,0.0,0.0,0.0,0.0,0.0,0.0,0.0,0.0,0.0,0.0,0.0,0.0,0.0,0.0,0.0,2.819,0.0,0.0,0.0,0.0,0.0,0.0,0.0,0.0,0.0,3.3651,3.3791,3.4588,3.6511,3.6257,3.5969,3.618,0.0,0.0,0.0,0.0,0.0,0.0,0.0,3.5036,3.4266,3.5077,3.5912,3.6312,3.732,3.7996,3.775,0.0,0.0,3.5402,3.4778,3.4639,3.4936,3.4808,3.4514,3.4174,3.4124,3.4013,0.0,0.0,0.0,0.0,0.0,0.0,0.0,0.0,3.5266,3.4784,0.0,3.3934,0.0,0.0,0.0,0.0,0.0,0.0,0.0,0.0,3.7479,3.7866,3.7107,3.7088,3.7088,3.7088,3.6827,3.6701,3.652,3.3296,0.0,0.0,0.0,0.0,0.0,0.0,3.1356,3.0537,3.0475,2.9236,2.6739,2.5838,2.4554,2.2824,2.2402,2.2618,2.3384,2.3724,2.3966,2.408,2.4991,0.0,0.0,0.0,0.0,0.0,0.0,0.0,0.0,0.0,0.0,0.0,0.0,0.0,0.0,0.0,0.0,0.0,0.0,0.0,0.0,2.871,0.0,0.0,0.0,0.0,0.0,0.0,0.0,0.0,0.0,0.0,3.4474,3.5382,3.6734,3.8322,0.0,0.0,0.0,0.0,3.6765,3.6078,3.5936,3.6099,3.6409,3.6306,3.6014,3.5441,0.0,0.0,3.7508,3.8352,3.8893,3.8934,3.9383,3.9448,3.7958,3.7099,3.6984,3.782,3.7456,3.7206,3.741,3.7181,3.7248,3.963,0.0,0.0,0.0,0.0,3.8214,3.8813,3.961,3.9224,3.8284,3.6975,3.6364,0.0,0.0,0.0,0.0,0.0,0.0,3.715,3.7584,3.811,3.8474,3.8775,3.8794,3.8775,3.8744,3.8158,3.7841,3.7766,3.6183,3.5299,3.5103,0.0,0.0,0.0,0.0,3.2358,3.1392,3.0793,2.9608,2.778,2.6388,2.4898,2.3253,2.3111,2.3345,2.394,2.4074,2.4554,2.5468,2.5999,0.0,0.0,0.0,0.0,0.0,0.0,0.0,0.0,0.0,0.0,0.0,0.0,0.0,0.0,0.0,0.0,0.0,0.0,0.0,3.0042,2.9992,3.0451,0.0,0.0,0.0,0.0,0.0,0.0,0.0,0.0,0.0,3.7391,3.7039,3.7067,0.0,0.0,3.7094,3.6965,3.7413,3.7881,3.8187,0.0,0.0,0.0,3.8485,3.8165,3.7944,3.8286,3.8883,3.9796,4.0164,4.0112,3.9582,3.9629,3.9433,3.8575,3.8217,3.7988,3.7809,3.792,3.8037,3.779,3.7722,3.7636,4.1949,3.9779,3.9935,4.0014,4.0024,4.0164,4.0792,4.1651,4.099,4.0159,3.9194,3.8355,3.7276,3.6103,3.6912,0.0,0.0,0.0,3.9297,3.9572,3.9553,3.9648,3.9815,3.9826,3.9826,3.9758,3.8886,3.8426,3.8396,3.7442,3.7037,3.6997,0.0,0.0,3.5651,3.4564,3.3659,3.2972,3.1588,3.0193,2.8828,2.6568,2.4742,2.3463,2.3707,2.4177,2.4819,2.5137,2.5795,2.6839,2.7099,2.7391,0.0,0.0,0.0,0.0,0.0,0.0,0.0,0.0,0.0,0.0,0.0,2.9417,2.908,0.0,0.0,0.0,3.0062,3.0942,3.1578,3.1625,0.0,0.0,0.0,0.0,0.0,0.0,0.0,3.7015,3.7584,3.8153,3.8673,3.8138,3.7895,3.8495,3.8325,3.7931,3.735,0.0,3.9336,3.9156,3.9643,4.0014,3.9959,3.9704,3.9479,3.9376,3.9564,4.0053,4.0823,4.0981,4.0911,4.0753,4.0683,4.039,3.9482,3.9678,3.9661,3.8632,3.8715,3.8986,3.9006,3.9027,3.8847,4.4014,4.3314,4.2567,4.2246,4.2188,4.2158,4.2158,4.2171,4.1324,4.0979,4.0923,4.0121,3.9349,3.8703,3.9423,0.0,4.1364,4.2033,4.1998,4.1504,4.1437,4.0998,4.0301,4.0225,4.0186,4.0167,3.9126,3.8588,3.8471,3.7546,3.7461,3.8181,3.73,3.7098,3.7452,3.5868,3.5046,3.4995,3.2627,3.0839,2.9633,2.6579,2.4527,2.371,2.4372,2.5141,2.5915,2.6637,2.737,2.8062,2.8129,2.8143,2.8143,0.0,0.0,0.0,0.0,0.0,0.0,0.0,0.0,0.0,0.0,0.0,0.0,0.0,0.0,0.0,3.1006,0.0,3.2808,3.3495,0.0,0.0,0.0,3.6413,3.6486,3.7162,3.7345,3.6652,0.0,0.0,3.8799,0.0,3.8957,3.9451,3.9857,3.959,3.8185,3.9806,4.0744,3.921,3.9698,4.0202,4.0094,4.0054,3.9975,3.986,3.9883,4.0126,4.0749,4.0947,4.127,4.1673,4.1981,4.1609,4.0517,4.107,4.154,3.9889,3.9709,3.9974,4.051,4.0532,4.0151,4.4749,4.4775,4.4584,4.4251,4.3799,4.3378,4.3565,4.4064,4.3475,4.321,4.3153,4.2354,4.1907,4.1755,4.1926,4.2167,4.239,4.1922,4.1647,4.1457,4.0864,4.0473,4.0263,3.9613,3.9308,3.9231,3.8374,3.7917,3.7908,3.7661,3.786,3.8461,3.8274,3.8146,3.8047,3.6242,3.531,3.5291,3.2723,3.0381,2.8324,2.7463,2.6673,2.5877,2.6023,2.6397,2.6989,2.7205,2.7556,2.8076,2.8334,2.8469,2.85,2.8676,0.0,0.0,0.0,0.0,0.0,0.0,0.0,0.0,0.0,3.2291,3.1261,0.0,3.3414,0.0,3.272,3.3753,3.5275,3.4986,0.0,0.0,3.7107,3.7456,3.8065,3.8285,3.8579,3.9001,3.9386,3.9606,3.9625,3.9606,3.9441,3.9009,3.9051,3.9213,3.9496,3.9989,4.0063,3.9245,3.9893,4.0342,3.9836,3.986,3.9994,3.9841,3.9841,3.9893,4.0089,4.0125,4.0178,4.0337,4.0354,4.0244,4.0022,4.0188,4.0261,3.9878,4.0014,4.0294,4.0464,3.9815,3.9117,4.533,4.5793,4.546,4.5308,4.5281,4.4627,4.4608,4.4958,4.4298,4.4006,4.393,4.3157,4.3004,4.3338,4.3319,4.3348,4.3281,4.2832,4.2202,4.1457,4.0664,4.0091,3.9699,3.8839,3.84,3.84,3.7922,3.7502,3.7196,3.7521,3.7697,3.769,3.8032,3.8154,3.7974,3.6749,3.6074,3.595,3.2963,3.0405,2.8429,2.7989,2.7431,2.6638,2.6961,2.7281,2.7583,2.7929,2.824,2.8484,2.8676,2.8767,2.8798,2.9265,2.9732,0.0,0.0,0.0,0.0,0.0,0.0,0.0,0.0,0.0,0.0,0.0,3.4802,3.4302,3.4651,3.544,3.674,3.6395,3.6633,3.79,3.8028,3.8212,3.867,3.9001,3.9276,3.935,3.968,3.9882,3.9882,3.9676,3.9614,3.9714,3.9398,3.9179,3.9497,4.0059,4.0246,3.9528,4.0217,4.0745,4.0253,4.036,4.0474,4.0402,4.0366,4.0384,4.0384,4.0384,4.0384,4.0366,4.0366,4.0311,4.0109,4.0275,4.0329,4.0108,3.9973,3.9973,4.0108,3.9431,3.8821,4.5698,4.6271,4.5583,4.5698,4.629,4.5602,4.5277,4.5239,4.4494,4.4159,4.4121,4.3443,4.3501,4.4159,4.4025,4.4006,4.3987,4.3758,4.2889,4.1476,4.0559,3.9728,3.8973,3.8113,3.7655,3.7559,3.754,3.7139,3.6366,3.7158,3.7234,3.671,3.7368,3.775,3.7856,3.7263,3.6726,3.6236,3.3179,3.0894,2.9393,2.8566,2.7802,2.7126,2.7673,2.7967,2.797,2.8712,2.9133,2.9152,2.9244,2.9317,2.9317,2.9971,3.0393,0.0,3.1268,0.0,0.0,0.0,0.0,0.0,0.0,0.0,0.0,3.5697,3.5642,3.6376,3.6541,3.689,3.7603,3.7658,3.797,3.8744,3.89,3.8897,3.8934,3.9568,3.9731,3.9031,3.9565,3.9989,4.0001,3.9581,3.9787,4.048,3.9835,3.9167,3.9032,3.9979,4.0492,3.9949,4.0402,4.0591,4.0545,4.0639,4.0659,4.0712,4.0606,4.0783,4.0659,4.0659,4.0712,4.0712,4.0606,4.0542,4.0253,4.0477,4.0579,4.0144,3.962,3.9372,3.96,3.9246,3.8874,4.5383,4.5517,4.5364,4.5373,4.5507,4.5364,4.5277,4.5277,4.5125,4.5048,4.5048,4.4906,4.4895,4.501,4.4312,4.4006,4.393,4.2584,4.18,4.1437,3.9947,3.9164,3.8954,3.8113,3.7368,3.6748,3.6729,3.629,3.545,3.6309,3.6986,3.7464,3.7617,3.8056,3.8648,0.0,0.0,0.0,3.3115,3.2238,3.1284,3.0435,2.9824,2.9524,2.9189,0.0,2.8815,2.9555,2.9977,2.9996,3.0595,0.0,0.0,0.0,0.0,0.0,0.0,0.0,0.0,0.0,0.0,0.0,3.7437,3.6666,3.634,3.6725,3.7088,3.7272,3.7863,3.8303,3.845,3.8487,3.8781,3.9567,3.9852,3.9995,4.0014,4.0318,4.0472,4.0352,4.0464,4.0526,4.0488,4.0461,4.0212,3.981,3.9033,3.8739,3.9232,3.9567,3.973,3.9599,3.964,3.9435,3.9179,3.9218,3.9357,3.9148,3.9166,3.92,3.9179,3.9163,3.9166,3.92,3.9132,3.9169,3.9074,3.9101,3.9227,3.9054,3.891,3.8923,3.9262,3.8545,3.7787,4.5495,0.0,4.5495,4.5495,0.0,4.5044,4.4852,4.4862,4.4708,4.4717,4.4748,4.4824,4.4852,4.4833,4.4391,4.3729,4.2923,4.2087,4.1419,4.0898,3.9691,3.9063,3.8973,3.7712,3.7101,3.7054,3.6233,3.587,3.587,3.629,3.671,3.7101,3.7483,3.7731,3.7722,3.65,3.5264,3.41,3.3489,3.2959,3.2521,3.1717,3.1235,3.112,0.0,0.0,0.0,0.0,0.0,0.0,0.0,0.0,0.0,0.0,0.0,3.281,3.4043,3.5343,3.6538,3.7021,3.7801,3.899,3.8725,3.8428,3.8288,3.8753,3.9073,3.9091,3.9115,3.9268,3.964,3.9709,3.9858,4.0248,4.0407,4.0357,4.004,4.0388,4.054,4.0221,4.0471,4.0584,4.0146,4.0251,3.9893,3.905,3.8727,3.8539,3.8437,3.8672,3.8976,3.9408,3.9395,3.9096,3.8613,3.8864,3.872,3.8113,3.8169,3.8256,3.7877,3.7729,3.7792,3.8128,3.8188,3.8193,3.8615,3.8707,3.8707,3.8707,3.8707,3.8753,3.8946,3.8338,3.7861,4.5688,4.5688,4.5688,4.5603,4.541,4.4708,4.4218,4.396,0.0,0.0,0.0,4.4121,4.416,4.416,4.4025,4.3204,4.1931,4.1738,4.1224,4.0399,3.96,3.9161,3.8976,3.7647,3.7272,3.7693,3.6506,3.6203,3.6733,3.6905,3.6965,3.7005,3.7597,3.7502,3.671,3.6003,3.5554,3.5344,3.4205,3.3585,3.3566,3.2777,3.2353,3.2324,3.2212,3.2118,3.2098,3.2083,3.2068,3.2068,3.2199,3.2172,3.1991,3.2944,3.3438,3.3354,3.4858,3.6152,3.6948,3.7805,3.8688,3.9633,3.9758,3.9908,4.0155,4.0362,4.0547,4.066,3.9965,3.9871,4.0823,4.0622,4.0603,4.0879,4.0823,4.0509,3.9951,4.039,4.057,3.9899,4.0231,4.032,3.9564,3.9791,3.9494,3.8512,3.861,3.8689,3.7916,3.8159,3.8659,3.9147,3.9418,3.9318,3.877,3.8977,3.8882,3.7859,3.7971,3.7938,3.7497,3.71,3.7208,3.8039,3.7909,3.8096,3.8557,3.8707,3.8723,3.8765,3.8738,3.8704,3.8716,3.8499,3.832,4.5688,4.5688,4.5688,4.5275,4.4592,4.4457,4.357,4.2328,4.2938,4.3238,4.3262,4.3277,4.3285,4.3246,4.256,4.2097,4.1873,4.1128,4.0696,0.0,3.968,3.9268,3.9254,3.9022,3.8605,3.8111,3.849,3.8356,3.7855,3.8431,3.8758,3.8647,3.8782,3.8381,3.7597,3.7406,3.734,3.7276,3.5562,3.468,3.4661,3.3847,3.3308,3.3122,3.2657,3.2278,3.2108,3.2743,3.3087,3.3087,3.3752,3.4086,3.4064,3.4194,3.4309,3.4352,3.518,3.6092,3.6948,3.7744,3.8889,4.0353,4.0743,4.0521,3.9696,3.9658,3.9946,4.0566,3.999,4.0134,4.1493,4.0553,4.0322,4.1455,4.1321,4.0973,4.0791,4.107,4.0995,4.0261,4.0272,4.0061,3.9404,3.9786,3.9624,3.8356,3.8365,3.8821,3.8575,3.8832,3.8822,3.8858,3.9383,3.9619,3.9122,3.9345,3.9175,3.9201,3.8437,3.8235,3.8611,3.81,3.796,3.8747,3.8716,3.8756,3.8777,3.8707,3.884,3.8993,3.891,3.8807,3.8979,3.8773,3.8627,4.5854,4.5854,4.5854,4.5383,4.457,4.3614,4.251,4.1426,4.1749,4.2144,4.2492,4.2582,4.2607,4.2588,4.222,4.1794,4.1329,4.0947,4.073,4.0675,4.0288,4.0063,3.9958,3.9514,3.936,3.9405,3.8884,3.8645,3.8686,3.9071,3.9204,3.9095,3.9056,3.9049,3.904,3.8171,3.7922,3.8343,3.6669,3.5977,3.6405,3.5596,3.5142,3.5021,3.4751,3.4361,3.3806,3.4027,3.4148,3.4167,3.4525,3.4653,3.4518,3.4735,3.4822,3.4762,3.5608,3.6482,3.7326,3.8597,3.9667,4.0415,4.0598,4.0466,3.9973,4.0323,4.0751,4.1073,4.0398,4.0398,4.1585,4.1035,4.0884,4.1593,4.1445,4.1136,4.0764,4.0768,4.0683,4.0358,4.032,4.0148,3.9747,4.0053,3.9862,3.8629,3.8151,3.7703,3.7693,3.7665,3.7963,3.8613,3.8775,3.8413,3.8036,3.8283,3.8131,3.7363,3.7268,3.742,3.7826,3.7394,3.766,3.8561,3.8752,3.8818,3.9012,3.9124,3.9192,3.9245,3.9232,3.9183,3.9101,3.8896,3.8723,4.5613,4.5433,4.5438,4.4967,4.4112,4.2777,4.1709,4.0927,4.0907,4.1223,4.1723,4.1854,4.1903,4.1898,4.1903,4.1529,4.0966,4.0888,4.0854,4.0834,4.0809,4.0756,4.061,3.9973,4.0024,4.0475,3.9341,3.9039,3.9593,3.9644,3.9609,3.9492,3.9402,3.9649,4.028,3.8972,3.8629,3.9136,3.7636,3.6986,3.7387,3.6615,3.6194,3.6194,3.6003,3.5687,3.522,3.4864,3.4783,3.4935,3.4973,3.486,3.4685,3.5009,3.5124,3.5067,3.5736,3.6661,3.7674,3.9126,4.011,4.0301,4.032,4.032,4.0358,4.0864,4.1304,4.1361,4.075,4.0693,4.1571,4.139,4.1304,4.1457,4.1323,4.095,4.0435,4.032,4.032,4.032,4.032,4.0244,4.0091,4.0186,4.0014,3.9289,3.7703,3.6653,3.692,3.6672,3.6863,3.7837,3.7999,3.7618,3.691,3.7313,3.7217,3.5878,3.6205,3.6695,3.6811,3.6577,3.6862,3.8182,3.8497,3.8717,3.932,3.9471,3.9495,3.9563,3.9514,3.9427,3.9264,3.9073,3.8822,4.4481,4.3777,4.3797,4.3238,4.2505,4.2252,4.1684,4.0946,4.0888,4.0922,4.1048,4.1024,4.1043,4.1024,4.1043,4.1005,4.0888,4.0888,4.0903,4.0874,4.0878,4.0893,4.0859,4.0767,4.0791,4.0845,4.0626,4.0488,4.0556,4.0608,4.0559,4.0458,4.0338,4.0274,4.0334,4.0145,4.0081,4.0138,3.8476,3.7273,3.6596,3.5774,3.5316,3.5305,3.4636,3.4541,3.5114,3.4495,3.4421,3.5089,3.5157,3.5149,3.5141,3.5185,3.5193,3.5166,3.5288,3.6012,3.754,3.8591,3.9451,4.0205,4.0225,4.0225,4.0263,4.0348,4.0731,4.1151,4.074,4.0979,4.2316,4.1323,4.0769,4.1285,4.0864,4.0358,4.0339,4.032,4.032,4.032,4.032,4.0014,3.9527,3.989,4.0215,3.9785,3.7971,3.6978,3.7799,3.6615,3.5793,3.6672,3.7196,3.754,3.7387,3.7597,3.7368,3.7215,3.6844,3.6806,3.7007,3.6903,3.6917,3.8011,3.8612,3.8828,3.922,3.9508,3.9623,3.9773,3.9705,3.9514,3.9477,3.9414,3.9237,4.4287,4.3505,4.3486,4.3005,4.2214,4.1646,4.1238,4.0907,4.0888,4.0888,4.0888,4.0888,4.0888,4.0888,4.0888,4.0888,4.0888,4.0888,4.0888,4.0888,4.0888,4.0888,4.0888,4.0888,4.0888,4.0888,4.0888,4.0893,4.0853,4.0804,4.0776,4.0713,4.0574,4.0523,4.0508,4.0408,4.036,4.0313,3.9113,3.8304,3.7865,3.6661,3.5965,3.5935,3.5641,3.5114,3.4579,3.4598,3.4655,3.456,3.4923,3.5182,3.5182,3.5182,3.5182,3.522,3.5698,3.6252,3.6948,3.7769,3.8381,3.8763,3.8763,3.8954,3.947,3.9518,3.989,4.0568,4.0492,4.0626,4.1199,4.0711,4.0463,4.0692,4.0473,4.0301,4.032,4.0301,4.032,4.032,4.0301,4.0167,3.9909,4.0053,3.9843,3.9049,3.7703,3.7474,3.7474,3.6156,3.5717,3.6214,3.6385,3.6222,3.6317,3.6719,3.6738,3.6451,3.6424,3.671,3.6825,3.6806,3.6866,3.7909,3.8413,3.8784,3.9114,3.969,4.0007,4.0048,3.9924,3.9739,3.9739,3.9611,3.9383,4.3938,4.3199,4.3141,4.2656,4.1825,4.1432,4.1121,4.0907,4.0888,4.0888,4.0888,4.0888,4.0888,4.0888,4.0888,4.0888,4.0888,4.0888,4.0888,4.0888,4.0888,4.0888,4.0888,4.0888,4.0888,4.0888,4.0888,4.0888,4.0903,4.0848,4.0834,4.0804,4.0707,4.0674,4.0641,4.0523,4.0454,4.0369,3.9544,3.9054,3.8816,3.7385,3.65,3.6462,3.605,3.5324,3.4415,3.4674,3.4732,3.4369,3.4904,3.5182,3.5182,3.5182,3.5182,3.5239,3.5774,3.6252,3.6481,3.7043,3.7483,3.7655,3.7693,3.8066,3.8755,3.8974,3.9366,4.0062,4.0225,4.0263,4.0301,4.032,4.0291,4.0273,4.0263,4.0272,4.0263,4.0091,3.9958,4.0168,3.97,3.9633,3.9843,4.0034,3.9795,3.8803,3.8012,3.7632,3.6964,3.6153,3.5473,3.6256,3.5757,3.5297,3.5267,3.6012,3.6042,3.6042,3.6309,3.6787,3.6596,3.65,3.6767,3.7716,3.8315,3.8783,3.908,3.9643,4.011,4.0118,3.9998,3.9843,3.9859,3.9705,3.9635,4.3063,4.233,4.2252,4.1781,4.1005,4.1743,4.1626,4.0888,4.0888,4.0888,4.0888,4.0888,4.0888,4.0888,4.0888,4.0888,4.0888,4.0888,4.0888,4.0888,4.0888,4.0888,4.0888,4.0888,4.0927,4.1024,4.1121,4.1082,4.1024,4.098,4.0903,4.0951,4.0912,4.0833,4.0879,4.0732,4.0607,4.0574,3.9765,3.9234,3.9026,3.7494,3.6623,3.6511,3.4999,3.4541,3.4896,3.4426,3.4388,3.5087,3.5144,3.5182,3.5182,3.5182,3.5174,3.5212,3.5259,3.5641,3.6301,3.6483,3.6797,3.7455,3.7465,3.7935,3.8499,3.8747,3.9138,3.9829,4.0008,4.0147,4.0263,4.0263,4.0225,4.0137,4.0225,4.0215,4.0108,3.9517,3.9365,3.9688,3.8906,3.8516,3.8946,3.9613,3.9888,3.9441,3.843,3.7516,3.7744,3.6416,3.575,3.5939,3.5774,3.522,3.5297,3.612,3.6521,3.6417,3.6656,3.7266,3.6844,3.6596,3.6997,3.737,3.7715,3.8221,3.8888,3.9366,3.9687,3.9787,3.9756,3.9711,3.9843,3.9881,3.9826,4.3491,4.2136,4.1611,4.1179,4.0946,4.1257,4.1179,4.0907,4.0888,4.0888,4.0888,4.0888,4.0888,4.0888,4.0888,4.0888,4.0888,4.0888,4.0888,4.0888,4.0888,4.0888,4.0946,4.1451,4.1747,4.1801,4.2306,4.2578,4.2554,4.2578,4.2558,4.2437,4.197,4.1955,4.2205,4.1317,4.0965,4.1345,4.0575,4.0069,3.9903,3.881,3.8144,3.787,3.5883,3.4612,3.4306,3.4585,3.4606,3.4258,3.4786,3.51,3.5,3.4991,3.5,3.501,3.501,3.5143,3.5428,3.5466,3.5589,3.5836,3.5912,3.6321,3.7043,3.7661,3.8287,3.9022,3.9686,3.9986,4.0026,4.0046,4.0026,3.9994,4.0015,4.0036,3.9937,3.968,3.9623,3.9802,3.9326,3.9212,3.9176,3.9349,3.9197,3.9035,3.7714,3.7039,3.6926,3.6264,3.5951,3.6103,3.6018,3.5837,3.5856,3.6643,3.7128,3.6805,3.6824,3.6882,3.6644,3.6017,3.6159,3.692,3.7253,3.7757,3.847,3.8346,3.8757,3.921,3.9215,3.9629,3.9805,3.9837,3.9867,4.3131,4.1786,4.114,4.0888,4.0888,4.0888,4.0888,4.0888,4.0888,4.0888,4.0888,4.0888,4.0888,4.0888,4.0888,4.0888,4.0888,4.0888,4.0888,4.0888,4.0888,4.0888,4.0985,4.151,4.1942,4.2291,4.3083,4.3486,4.3486,4.3486,4.3486,4.3408,4.2889,4.2889,4.3189,4.225,4.1989,4.2263,4.1803,4.1316,4.0881,4.0073,3.9402,3.8741,3.7083,3.5611,3.4639,3.5212,3.5091,3.4338,3.4707,3.5001,3.4917,3.4908,3.4908,3.4908,3.4908,3.4908,3.4908,3.4908,3.4908,3.4908,3.4946,3.5334,3.6384,3.684,3.7492,3.8396,3.905,3.9402,3.9186,3.9247,3.9509,3.975,3.9878,3.9765,3.9478,3.9194,3.885,3.8628,3.8991,3.9202,3.9099,3.8815,3.8702,3.8615,3.7553,3.6992,3.7209,3.6787,3.6675,3.6845,3.6754,3.6632,3.6576,3.7032,3.7318,3.7062,3.6834,3.6775,3.6545,3.5855,3.5703,3.6433,3.701,3.754,3.7682,3.7501,3.7821,3.8423,3.9041,3.9524,3.966,3.9777,3.9777,4.1828,4.1105,4.0931,4.095,4.0915,4.0993,4.0941,4.0911,4.0887,4.0915,4.0911,4.0917,4.0917,4.0888,4.0888,4.0888,4.0888,4.0888,4.0888,4.0888,4.0888,4.0888,4.0907,4.1218,4.184,4.2583,4.318,4.3563,4.3738,4.3699,4.3641,4.3602,4.3607,4.3607,4.3583,4.3442,4.3384,4.3382,4.3166,4.2718,4.2002,4.1135,4.0296,3.9389,3.8454,3.74,3.6236,3.6226,3.5797,3.4964,3.4898,3.4917,3.4936,3.4917,3.4927,3.4917,3.4927,3.4917,3.4908,3.4936,3.4926,3.4945,3.4927,3.5476,3.645,3.6547,3.6838,3.7863,3.8452,3.8394,3.7947,3.8293,3.8874,3.9505,3.9652,3.9376,3.8765,3.7874,3.7068,3.6848,3.7796,3.8128,3.781,3.8134,3.8561,3.8614,3.8256,3.8161,3.8625,3.7917,3.7672,3.7977,3.7764,3.7343,3.7286,3.7297,3.731,3.7274,3.7076,3.6923,3.6721,3.6201,3.6039,3.6549,3.6909,3.7427,3.7912,3.775,3.7585,3.8098,3.8747,3.9368,3.958,3.9698,3.9662,4.213,4.1883,4.1869,4.1498,4.1108,4.1596,4.1537,4.0989,4.0972,4.0947,4.0967,4.096,4.0949,4.0917,4.0888,4.0888,4.0888,4.0888,4.0888,4.0888,4.0888,4.0888,4.1121,4.2112,4.3452,4.4545,4.4501,4.4676,4.4986,4.4637,4.4656,4.5025,4.4637,4.4715,4.5064,4.4151,4.3733,4.4198,4.3691,4.3168,4.284,4.2548,4.1889,4.0921,4.0119,3.8953,3.7287,3.6785,3.6077,3.5088,3.5119,3.5127,3.5058,3.5022,3.5041,3.5022,3.5049,3.5041,3.5041,3.5041,3.5041,3.5041,3.506,3.5223,3.574,3.6157,3.6491,3.7138,3.8013,3.8642,3.8613,3.9156,3.9359,3.8994,3.8863,3.9062,3.9046,3.8446,3.8235,3.838,3.8411,3.8491,3.8689,3.8863,3.878,3.9129,3.8491,3.8156,3.8609,3.8497,3.8021,3.8284,3.8037,3.8049,3.8033,3.7664,3.7227,3.7023,3.6818,3.665,3.6486,3.64,3.6314,3.6672,3.702,3.7374,3.7837,3.7795,3.7528,3.7798,3.8474,3.9,3.947,3.9608,3.9608,4.1837,4.1809,4.1812,4.1519,4.107,4.1597,4.1519,4.1031,4.0992,4.0976,4.0991,4.0989,4.0989,4.0935,4.0928,4.0928,4.0924,4.0937,4.0941,4.0932,4.0897,4.0888,4.114,4.2694,4.3952,4.4889,4.4889,4.5064,4.5491,4.5084,4.5069,4.5356,4.5326,4.5462,4.5908,4.4999,4.4691,4.501,4.461,4.4129,4.3802,4.3724,4.3081,4.1909,4.1289,4.013,3.8462,3.7916,3.693,3.5553,3.5457,3.5506,3.519,3.5381,3.5439,3.5144,3.5106,3.5098,3.5106,3.5098,3.5106,3.5125,3.54,3.5602,3.5698,3.6175,3.6375,3.6615,3.759,3.8313,3.824,3.9076,3.9318,3.8918,3.9026,3.9063,3.921,3.8698,3.8507,3.8737,3.8677,3.8768,3.892,3.9037,3.8916,3.9268,3.8866,3.8458,3.8957,3.8992,3.8897,3.8851,3.8881,3.8878,3.8791,3.8143,3.7253,3.6802,3.6412,3.6159,3.5953,3.5934,3.5896,3.7006,3.7607,3.7739,3.8117,3.7366,3.6998,3.7606,3.8413,3.8788,3.9308,3.9552,3.9589,4.1131,4.1017,4.1076,4.1137,4.1041,4.1177,4.1178,4.1019,4.1,4.0999,4.0995,4.1013,4.101,4.0989,4.0978,4.0978,4.0984,4.0986,4.099,4.097,4.0964,4.1062,4.1762,4.3102,4.3899,4.4151,4.4559,4.4851,4.5117,4.4729,4.4792,4.5073,4.5517,4.5933,4.5894,4.5885,4.5737,4.5737,4.5769,4.5344,4.4679,4.4641,4.3931,4.2357,4.2105,4.1255,3.976,3.9161,3.7912,3.5756,3.6005,3.6002,3.5487,3.5965,3.6028,3.5281,3.5146,3.5266,3.5211,3.5385,3.5453,3.5634,3.6186,3.6501,3.6591,3.6538,3.6596,3.6725,3.7387,3.7608,3.7528,3.8442,3.9197,3.9365,3.9724,3.9632,3.8871,3.8539,3.8515,3.8552,3.8576,3.869,3.8871,3.9033,3.9126,3.925,3.9519,3.9786,3.9881,3.9782,3.9838,3.9746,3.9572,3.9545,3.941,3.8614,3.7792,3.7382,3.6754,3.6122,3.5991,3.5991,3.6254,3.7324,3.7962,3.8131,3.8188,3.7624,3.758,3.83,3.877,3.8913,3.9101,3.9383,3.9477,4.1669,4.1166,4.1751,4.1654,4.1225,4.1732,4.1635,4.1127,4.1069,4.1074,4.1073,4.1073,4.1068,4.1013,4.1013,4.0992,4.0992,4.1002,4.0991,4.0994,4.0974,4.2151,4.3467,4.4171,4.4734,4.5142,4.4904,4.5093,4.5542,4.4455,4.4444,4.5567,4.5186,4.5355,4.5801,4.5853,4.5899,4.5893,4.5893,4.5777,4.5537,4.5453,4.4994,4.402,4.3285,4.2144,4.0507,3.9185,3.7988,3.6665,3.6607,3.6402,3.5804,3.6383,3.6511,3.5753,3.5611,3.583,3.6273,3.6402,3.6698,3.7321,3.7494,3.7713,3.7707,3.7128,3.7167,3.7553,3.7977,3.8273,3.8775,3.9624,4.0223,4.0351,4.0318,4.0034,3.9551,3.8958,3.8745,3.9266,3.8961,3.9067,3.9538,3.9865,4.0002,4.0041,4.0153,4.033,4.033,4.0205,4.006,4.01,4.0034,4.0062,3.9813,3.9033,3.8426,3.8072,3.7351,3.6385,3.6479,3.6723,3.7211,3.8,3.8,3.8112,3.8544,3.8544,3.8901,3.8901,3.9032,3.912,3.9101,3.927,3.927,4.2084,4.1654,4.1791,4.1576,4.1187,4.1654,4.1578,4.1168,4.1109,4.1332,4.1498,4.1246,4.1288,4.1543,4.121,4.1054,4.1034,4.105,4.1039,4.1193,4.1769,4.2654,4.3666,4.4282,4.5029,4.5359,4.5013,4.5021,4.5217,4.4383,4.4391,4.467,4.4749,4.4918,4.5266,4.5364,4.5564,4.5802,4.5854,4.5847,4.5807,4.5807,4.5355,4.4697,4.4033,4.3169,4.1835,4.052,3.9127,3.7961,3.7754,3.7618,3.6922,3.7541,3.7444,3.6381,3.6516,3.6859,3.6903,3.7207,3.7677,3.8154,3.8464,3.8508,3.8303,3.7986,3.8257,3.8129,3.8812,3.9301,3.9539,4.0274,4.0893,4.1158,4.0795,4.0383,4.0177,3.9652,3.9565,3.9755,3.971,3.9565,4.0264,4.0477,4.0591,4.0579,4.0462,4.0554,4.0569,4.0392,4.0297,4.0358,4.0323,4.026,4.0205,3.9585,3.8967,3.8633,3.8029,3.7006,3.6772,3.7175,3.7774,3.8169,3.8106,3.8256,3.88,3.9089,3.8939,3.8976,3.9145,3.9251,3.9232,3.907,3.9089,4.2415,4.2201,4.142,4.1109,4.1109,4.1109,4.1168,4.1109,4.1109,4.15,4.1852,4.1402,4.1447,4.2201,4.1333,4.1112,4.1114,4.1091,4.1211,4.1691,4.2505,4.3292,4.3185,4.4416,4.4982,4.5074,4.4851,4.4916,4.4988,4.4794,4.4348,4.4291,4.4537,4.4667,4.4938,4.4795,4.5045,4.5652,4.5594,4.5671,4.5749,4.5787,4.5471,4.4968,4.4574,4.413,4.3324,4.2396,4.1061,3.8889,3.9423,3.9262,3.8721,3.9268,3.8804,3.7657,3.7677,3.7754,3.7483,3.8025,3.8431,3.874,3.9321,3.9327,3.8895,3.9036,3.9146,3.9108,3.9997,4.0332,4.0468,4.0797,4.1435,4.1944,4.1513,4.1054,4.0669,4.0413,4.0213,4.0223,4.0389,4.0462,4.0576,4.0666,4.079,4.072,4.066,4.066,4.0666,4.0534,4.0554,4.066,4.0554,4.0392,4.0313,4.0165,3.9614,3.9133,3.8572,3.7789,3.7052,3.7332,3.8028,3.845,3.8669,3.8913,3.9251,3.9308,3.9094,3.9101,3.9308,3.9326,3.9308,3.9032,3.8957,4.2611,4.1363,4.1168,4.1109,4.1109,4.1109,4.1109,4.1109,4.1109,4.1265,4.1343,4.1187,4.1246,4.142,4.1246,4.1109,4.1129,4.1178,4.1421,4.2224,4.3077,4.3887,4.4236,4.5204,4.5555,4.5588,4.562,4.5621,4.5506,4.5028,4.488,4.515,4.4698,4.4924,4.533,4.4859,4.5007,4.5548,4.5239,4.5316,4.5749,4.5807,4.571,4.5432,4.4949,4.4574,4.4207,4.3479,4.2763,4.2241,4.1719,4.1203,4.05,4.0468,4.0042,3.9204,3.8528,3.8528,3.8856,3.9191,3.9559,4.021,4.0346,4.0429,4.0255,3.981,4.0216,4.0674,4.1023,4.1448,4.2164,4.2589,4.2763,4.286,4.2763,4.2383,4.1736,4.0966,4.0572,4.0468,4.0481,4.0542,4.0713,4.0733,4.081,4.081,4.0784,4.0752,4.0707,4.0673,4.0726,4.0797,4.0726,4.0561,4.0531,4.0271,3.964,3.9042,3.851,3.8026,3.7313,3.731,3.7912,3.8658,3.9383,3.957,3.9538,3.9649,3.9458,3.9443,3.9426,3.9413,3.9342,3.9062,3.9046,4.2533,4.1693,4.1265,4.1109,4.1109,4.1109,4.1109,4.1109,4.1109,4.1342,4.1537,4.1324,4.1322,4.1654,4.1304,4.1109,4.1228,4.1582,4.2414,4.3437,4.4125,4.4646,4.5305,4.574,4.5958,4.5911,4.5848,4.5854,4.5699,4.5428,4.5201,4.52,4.4833,4.4775,4.5162,4.4833,4.5065,4.5587,4.5413,4.5413,4.5742,4.5807,4.5807,4.578,4.5394,4.5162,4.5084,4.4755,4.4523,4.4349,4.3982,4.3189,4.2222,4.1951,4.1525,4.079,4.0752,4.0481,4.0752,4.0713,4.1067,4.1835,4.1622,4.168,4.1796,4.1506,4.1661,4.2376,4.2667,4.3034,4.3769,4.3401,4.3479,4.3762,4.353,4.3247,4.2982,4.2039,4.1012,4.0781,4.0653,4.0687,4.0752,4.079,4.0797,4.081,4.081,4.0784,4.0784,4.0739,4.0765,4.0797,4.0797,4.0765,4.072,4.0301,3.9509,3.8779,3.8023,3.7519,3.6938,3.7224,3.7713,3.8558,3.9414,3.9464,3.9452,3.9605,3.9755,3.9656,3.9577,3.9535,3.9384,3.9135,3.9329,4.2337,4.2162,4.1402,4.1109,4.1109,4.1109,4.1109,4.1109,4.1109,4.142,4.1967,4.1402,4.1441,4.1869,4.1402,4.1148,4.1501,4.2034,4.3078,4.4588,4.4724,4.5264,4.5841,4.6047,4.6052,4.5949,4.5898,4.586,4.5848,4.5796,4.5499,4.4936,4.4833,4.4968,4.4871,4.4671,4.5007,4.5652,4.551,4.5548,4.5761,4.5807,4.5807,4.578,4.5742,4.5684,4.5664,4.5613,4.5691,4.5807,4.5807,4.5045,4.4117,4.3479,4.3227,4.2434,4.2705,4.2492,4.2048,4.199,4.2202,4.315,4.2473,4.2434,4.2918,4.3053,4.315,4.3595,4.4001,4.4581,4.4717,4.433,4.4233,4.4446,4.402,4.3866,4.3924,4.2976,4.1764,4.1184,4.0875,4.0771,4.0784,4.0797,4.0797,4.0797,4.0797,4.0797,4.0797,4.0797,4.0797,4.0797,4.0797,4.0797,4.0778,4.0505,3.9669,3.8627,3.7751,3.7253,3.6782,3.7001,3.7545,3.8556,3.9204,3.928,3.95,3.9823,3.9896,3.9806,3.9709,3.9615,3.9414,3.9197,3.9383,4.1986,4.1304,4.1148,4.1109,4.1109,4.1109,4.1109,4.1109,4.1109,4.1168,4.1304,4.1168,4.1187,4.1285,4.1246,4.15,4.2069,4.2661,4.3526,4.4878,4.5117,4.5502,4.6039,4.6171,4.6139,4.6087,4.6037,4.6007,4.5966,4.595,4.5776,4.5602,4.5529,4.551,4.5316,4.5045,4.5065,4.5613,4.5355,4.5316,4.5684,4.5807,4.5807,4.5807,4.5807,4.5807,4.5807,4.5807,4.5807,4.5807,4.5807,4.5633,4.5181,4.4659,4.4291,4.404,4.3614,4.3305,4.3073,4.2376,4.2531,4.2841,4.257,4.257,4.315,4.344,4.3866,4.4407,4.5026,4.5568,4.5594,4.5239,4.5374,4.5374,4.4891,4.4226,4.3672,4.2918,4.2241,4.2009,4.1448,4.0797,4.0797,4.0797,4.0797,4.0797,4.0797,4.0797,4.0797,4.0797,4.0797,4.0797,4.0797,4.0797,4.079,4.0467,3.9877,3.8651,3.78,3.7298,3.694,3.6877,3.7385,3.817,3.8861,3.9179,3.9515,3.9877,3.9908,3.9728,3.9681,3.9595,3.9166,3.8727,3.865,4.1498,4.1109,4.1109,4.1109,4.1109,4.1109,4.1109,4.1109,4.1109,4.1109,4.1109,4.1109,4.1109,4.1109,4.1109,4.1795,4.2858,4.3624,4.4469,4.5486,4.5703,4.5799,4.6191,4.6238,4.6227,4.6191,4.6189,4.6142,4.6044,4.6003,4.595,4.5898,4.5848,4.5807,4.5768,4.5471,4.5432,4.5652,4.5452,4.5374,4.5761,4.5807,4.5807,4.5807,4.5807,4.5807,4.5807,4.5807,4.5807,4.5807,4.5807,4.5807,4.5691,4.549,4.522,4.5045,4.4427,4.3962,4.3711,4.2899,4.2609,4.3692,4.3169,4.3382,4.4194,4.4717,4.4736,4.5142,4.5432,4.5807,4.5768,4.5807,4.5807,4.5749,4.5394,4.4987,4.4465,4.3646,4.3221,4.2834,4.1796,4.1087,4.0797,4.0797,4.0797,4.0797,4.0797,4.0797,4.0797,4.0797,4.0797,4.0797,4.0797,4.0797,4.0681,4.0275,3.9795,3.8672,3.7693,3.7198,3.6721,3.648,3.6804,3.7456,3.8111,3.862,3.915,3.9386,3.9496,3.9454,3.8832,3.8383,3.8394,3.8287,3.8207,4.1109,4.1109,4.1109,4.1109,4.1109,4.1109,4.1109,4.1109,4.1109,4.1246,4.1343,4.1207,4.1207,4.1285,4.1405,4.1996,4.3665,4.4391,4.5135,4.6035,4.6211,4.6267,4.6244,4.6265,4.6286,4.6239,4.6264,4.6237,4.6092,4.6068,4.6022,4.5933,4.5861,4.5821,4.5775,4.5729,4.5807,4.5807,4.5807,4.5807,4.5807,4.5807,4.5807,4.5807,4.5807,4.5807,4.5807,4.5807,4.5807,4.5807,4.5807,4.5807,4.5807,4.5807,4.5807,4.5703,4.5162,4.4845,4.4265,4.3569,4.3305,4.4284,4.3917,4.4485,4.52,4.5536,4.5691,4.5807,4.5807,4.5807,4.5807,4.5807,4.5807,4.5749,4.5633,4.5413,4.4968,4.4342,4.3666,4.2989,4.1951,4.1493,4.1319,4.0797,4.0797,4.0797,4.0797,4.0797,4.0797,4.0797,4.0797,4.0797,4.0797,4.0797,4.0565,4.0023,3.9393,3.8491,3.7543,3.6861,3.6325,3.5858,3.6424,3.7037,3.7005,3.7508,3.8181,3.8798,3.8858,3.8565,3.766,3.7345,3.762,3.7762,3.7737,4.1109,4.1109,4.1109,4.1109,4.1109,4.1109,4.1109,4.1109,4.1109,4.1557,4.2084,4.1518,4.1578,4.1892,4.1447,4.2192,4.333,4.4059,4.496,4.6132,4.6289,4.6289,4.6289,4.6289,4.6289,4.6269,4.6289,4.6213,4.6134,4.6117,4.6029,4.5908,4.5935,4.5923,4.5807,4.5807,4.5807,4.5807,4.5807,4.5807,4.5807,4.5807,4.5807,4.5807,4.5807,4.5807,4.5807,4.5807,4.5807,4.5807,4.5807,4.5807,4.5807,4.5807,4.5807,4.5807,4.5645,4.5355,4.4697,4.4091,4.3975,4.4478,4.4388,4.491,4.549,4.5807,4.5807,4.5807,4.5807,4.5807,4.5807,4.5807,4.5807,4.5626,4.5394,4.5104,4.4775,4.4871,4.4207,4.3692,4.2847,4.2325,4.197,4.1338,4.0797,4.0797,4.0797,4.0797,4.0797,4.0797,4.0797,4.0797,4.0797,4.0797,4.0565,4.0004,3.9385,3.847,3.7677,3.6884,3.6651,3.64,3.6284,3.6717,3.6613,3.6709,3.7425,3.7922,3.8123,3.7892,3.7301,3.7082,3.7073,3.7137,3.7158,4.1109,4.1109,4.1109,4.1109,4.1109,4.1109,4.1109,4.1109,4.1129,4.1576,4.222,4.2045,4.2067,4.2247,4.196,4.2551,4.3608,4.4139,4.5058,4.6055,4.6289,4.6289,4.6289,4.6289,4.6289,4.6289,4.6289,4.6234,4.6153,4.6122,4.6061,4.5974,4.5922,4.5867,4.5807,4.5807,4.5807,4.5807,4.5807,4.5807,4.5807,4.5807,4.5807,4.5807,4.5807,4.5807,4.5807,4.5807,4.5807,4.5807,4.5807,4.5807,4.5807,4.5807,4.5807,4.5807,4.5807,4.5394,4.469,4.4226,4.4265,4.4516,4.4659,4.4949,4.5587,4.5807,4.5807,4.5807,4.5807,4.5807,4.5807,4.5807,4.5807,4.5645,4.5394,4.5336,4.5123,4.4929,4.4697,4.4233,4.373,4.3111,4.2376,4.1467,4.0913,4.0797,4.0797,4.0797,4.0797,4.0797,4.0797,4.0797,4.0797,4.0797,4.0507,4.0081,3.9675,3.8914,3.8295,3.7657,3.7502,3.7309,3.698,3.6748,3.6767,3.6884,3.7,3.6917,3.6988,3.7033,3.7058,3.6826,3.6574,3.6381,3.6389,4.1109,4.1109,4.1109,4.1109,4.1109,4.1109,4.1109,4.1109,4.1109,4.1713,4.2591,4.2923,4.2889,4.2446,4.2413,4.2807,4.3709,4.4375,4.5312,4.5957,4.6289,4.6289,4.6289,4.6289,4.6289,4.6289,4.6289,4.623,4.6158,4.6109,4.6064,4.6044,4.5963,4.5867,4.5821,4.5807,4.5807,4.5807,4.5807,4.5807,4.5807,4.5807,4.5807,4.5807,4.5807,4.5807,4.5807,4.5807,4.5807,4.5807,4.5807,4.5807,4.5807,4.5807,4.5807,4.5807,4.5807,4.5587,4.5045,4.462,4.4291,4.4465,4.4871,4.5258,4.5645,4.5807,4.5807,4.5807,4.5807,4.5807,4.5807,4.5807,4.5807,4.5807,4.5749,4.5787,4.5768,4.5452,4.5162,4.4813,4.4272,4.3569,4.2744,4.1622,4.1042,4.0855,4.0797,4.0797,4.0797,4.0797,4.0797,4.0797,4.0797,4.0797,4.0584,4.0216,3.9791,3.9346,3.874,3.8276,3.7999,3.7618,3.7193,3.7038,3.6864,3.6516,3.6323,3.6052,3.5858,3.6168,3.6381,3.6245,3.6057,3.5883,3.6129,4.1109,4.1109,4.1109,4.1109,4.1109,4.1109,4.1109,4.1109,4.1109,4.2046,4.3489,4.427,4.3748,4.2798,4.2609,4.2964,4.3709,4.375,4.4922,4.5879,4.6289,4.6289,4.6289,4.6289,4.6289,4.6289,4.6289,4.625,4.6199,4.6131,4.6002,4.5861,4.5942,4.5919,4.5867,4.5807,4.5807,4.5807,4.5807,4.5807,4.5807,4.5807,4.5807,4.5807,4.5807,4.5807,4.5807,4.5807,4.5807,4.5807,4.5807,4.5807,4.5807,4.5807,4.5807,4.5807,4.5807,4.5691,4.5452,4.5355,4.52,4.5045,4.5181,4.5587,4.5787,4.5807,4.5807,4.5807,4.5807,4.5807,4.5807,4.5807,4.5807,4.5807,4.5807,4.5807,4.5807,4.5787,4.551,4.5297,4.4736,4.3936,4.3453,4.2415,4.1506,4.1274,4.0835,4.0797,4.0797,4.0797,4.0797,4.0797,4.0797,4.0777,4.07,4.0371,4.0023,3.9636,3.9108,3.8682,3.8309,3.7903,3.7483,3.6961,3.669,3.6149,3.5742,3.5762,3.5762,3.5723,3.5762,3.5883,3.6071,3.6129,3.6632,4.1109,4.1109,4.1109,4.1109,4.1109,4.1109,4.1109,4.1109,4.1129,4.2066,4.3744,4.451,4.4339,4.3467,4.3198,4.3338,4.3769,4.4316,4.5234,4.5918,4.6289,4.6289,4.6289,4.6289,4.6289,4.6289,4.6289,4.6239,4.6139,4.6139,4.5992,4.5906,4.5894,4.5854,4.5821,4.5807,4.5807,4.5807,4.5807,4.5807,4.5807,4.5807,4.5807,4.5807,4.5807,4.5807,4.5807,4.5807,4.5807,4.5807,4.5807,4.5807,4.5807,4.5807,4.5807,4.5807,4.5807,4.5807,4.5807,4.5807,4.5633,4.5536,4.5633,4.5807,4.5807,4.5807,4.5807,4.5807,4.5807,4.5807,4.5807,4.5807,4.5807,4.5807,4.5807,4.5807,4.5807,4.5807,4.5768,4.5529,4.4865,4.4084,4.3704,4.3305,4.2434,4.168,4.1197,4.0797,4.0797,4.0797,4.0797,4.0797,4.0797,4.0797,4.0739,4.0526,4.0274,3.9907,3.9514,3.9166,3.8798,3.827,3.7806,3.7193,3.6574,3.6187,3.5916,3.5762,3.5704,3.5704,3.5723,3.5787,3.6013,3.6342,3.6884,4.1109,4.1109,4.1109,4.1109,4.1109,4.1109,4.1109,4.1109,4.1109,4.2066,4.3764,4.4787,4.491,4.427,4.4079,4.4081,4.4297,4.4726,4.5469,4.5996,4.6289,4.6289,4.6289,4.6289,4.6289,4.6289,4.6289,4.6239,4.6147,4.6158,4.6045,4.5908,4.5808,4.5814,4.5807,4.5807,4.5807,4.5807,4.5807,4.5807,4.5807,4.5807,4.5807,4.5807,4.5807,4.5807,4.5807,4.5807,4.5807,4.5807,4.5807,4.5807,4.5807,4.5807,4.5807,4.5807,4.5807,4.5807,4.5807,4.5807,4.5807,4.5729,4.5749,4.5807,4.5807,4.5807,4.5807,4.5807,4.5807,4.5807,4.5807,4.5807,4.5807,4.5807,4.5807,4.5807,4.5807,4.5807,4.5807,4.5703,4.4987,4.4381,4.4458,4.4117,4.3034,4.2106,4.1216,4.0874,4.0797,4.0797,4.0797,4.0797,4.0797,4.0797,4.0797,4.0642,4.0507,4.0487,4.0094,3.9752,3.934,3.8721,3.7922,3.7135,3.6593,3.6303,3.6038,3.58,3.5723,3.5704,3.5839,3.6052,3.6439,3.6806,3.6942,4.1109,4.1109,4.1109,4.1109,4.1129,4.1109,4.1168,4.1265,4.1343,4.2145,4.3708,4.5237,4.5555,4.4935,4.4744,4.4882,4.4824,4.5039,4.5547,4.6152,4.6289,4.6289,4.6289,4.6289,4.6289,4.6289,4.6289,4.6265,4.6175,4.6139,4.6056,4.5966,4.5867,4.5807,4.5807,4.5807,4.5807,4.5807,4.5807,4.5807,4.5807,4.5807,4.5807,4.5807,4.5807,4.5807,4.5807,4.5807,4.5742,4.5568,4.5587,4.5587,4.5606,4.5613,4.5633,4.5671,4.5749,4.5787,4.5807,4.5807,4.5807,4.5807,4.5807,4.5807,4.5807,4.5807,4.5807,4.5807,4.5807,4.5807,4.5807,4.5807,4.5807,4.5807,4.5807,4.5807,4.5807,4.5807,4.5807,4.5807,4.5258,4.4794,4.5065,4.491,4.3711,4.2609,4.1448,4.0932,4.0777,4.0777,4.0758,4.0584,4.0584,4.0797,4.0797,4.0797,4.0758,4.0777,4.0507,3.9965,3.9423,3.874,3.7928,3.7116,3.6884,3.6826,3.6303,3.5806,3.582,3.5897,3.6265,3.6555,3.6936,3.7091,3.7038,4.1109,4.1109,4.1109,4.1109,4.1187,4.1732,4.1947,4.2066,4.2518,4.2855,4.3172,4.4661,4.4956,4.4646,4.5312,4.5547,4.5176,4.5742,4.6191,4.623,4.6289,4.6289,4.6289,4.6289,4.6289,4.6289,4.6289,4.6264,4.62,4.6128,4.6056,4.5982,4.588,4.5814,4.5807,4.5807,4.5807,4.5807,4.5807,4.5807,4.5807,4.5807,4.5807,4.5807,4.5807,4.5807,4.5807,4.5807,4.5626,4.5258,4.52,4.5104,4.5065,4.5045,4.5007,4.5162,4.5336,4.5807,4.5807,4.5807,4.5807,4.5807,4.5807,4.5807,4.5807,4.5807,4.5807,4.5807,4.5807,4.5807,4.5807,4.5807,4.5807,4.5807,4.5807,4.5807,4.5807,4.5807,4.5807,4.5787,4.5452,4.5374,4.5529,4.5336,4.433,4.344,4.2376,4.0971,4.0487,4.0623,4.0661,4.0332,4.0274,4.0623,4.0797,4.0758,4.0642,4.0565,4.0216,3.9694,3.9152,3.876,3.8295,3.7677,3.7522,3.7348,3.6922,3.6497,3.6129,3.6168,3.6497,3.6419,3.6323,3.6516,3.6709,4.1109,4.1109,4.1109,4.1109,4.1246,4.2025,4.2552,4.2964,4.3748,4.3812,4.3741,4.4838,4.5232,4.5135,4.5625,4.6133,4.5547,4.5976,4.6269,4.6289,4.6289,4.6289,4.6289,4.6288,4.6269,4.6268,4.6242,4.6206,4.6199,4.6109,4.6027,4.5916,4.5835,4.5814,4.5807,4.5807,4.5807,4.5807,4.5807,4.5807,4.5807,4.5807,4.5807,4.5807,4.5807,4.5807,4.5807,4.5729,4.5548,4.5065,4.4755,4.4581,4.4516,4.4323,4.4226,4.4369,4.4871,4.5297,4.5336,4.5749,4.5768,4.5807,4.5807,4.5807,4.5807,4.5807,4.5807,4.5807,4.5807,4.5807,4.5807,4.5807,4.5807,4.5807,4.5807,4.5807,4.5807,4.5807,4.5807,4.5787,4.5787,4.5807,4.5787,4.5452,4.491,4.4136,4.3343,4.1874,4.0487,4.0545,4.0623,4.0313,4.0139,4.0429,4.0623,4.0642,4.0526,4.0371,4.01,3.981,3.9404,3.9094,3.8663,3.829,3.8057,3.7825,3.7613,3.7265,3.6864,3.6613,3.6651,3.64,3.582,3.6303,3.7,4.1129,4.1109,4.1109,4.1109,4.1265,4.2027,4.2866,4.3726,4.4584,4.4842,4.4831,4.5521,4.5739,4.5975,4.6191,4.625,4.6172,4.6269,4.6289,4.6289,4.6289,4.6289,4.6269,4.6242,4.6243,4.6218,4.6183,4.6155,4.6167,4.6076,4.595,4.5854,4.5821,4.5807,4.5807,4.5807,4.5807,4.5807,4.5807,4.5807,4.5807,4.5807,4.5807,4.5807,4.5807,4.5807,4.5807,4.5768,4.5587,4.5239,4.4852,4.4574,4.4226,4.375,4.346,4.3614,4.433,4.4291,4.4639,4.5104,4.5323,4.5239,4.5432,4.5633,4.5807,4.5807,4.5807,4.5807,4.5807,4.5807,4.5807,4.5807,4.5807,4.5807,4.5807,4.5807,4.5807,4.5807,4.5807,4.5807,4.5807,4.5807,4.5807,4.5548,4.5278,4.4717,4.3924,4.2957,4.1641,4.0739,4.0739,4.0429,4.0294,4.0313,4.0448,4.0603,4.0584,4.0468,4.0584,4.0352,3.9907,3.9578,3.9417,3.9108,3.8624,3.8328,3.8257,3.7967,3.7516,3.7328,3.7038,3.6787,3.6381,3.7425,3.8083,4.166,4.1129,4.1109,4.1112,4.1233,4.2037,4.2899,4.3758,4.4582,4.443,4.3241,4.4726,4.5195,4.457,4.5723,4.6191,4.6289,4.6289,4.6289,4.6289,4.6289,4.6289,4.6269,4.6238,4.6215,4.6179,4.615,4.6095,4.6105,4.6027,4.5916,4.5808,4.5807,4.5807,4.5807,4.5807,4.5807,4.5807,4.5807,4.5807,4.5807,4.5807,4.5807,4.5807,4.5807,4.5807,4.5807,4.5807,4.5432,4.4291,4.3943,4.3537,4.2725,4.3073,4.3421,4.4014,4.3634,4.2957,4.3556,4.3904,4.4194,4.4349,4.4291,4.4871,4.5316,4.5722,4.5703,4.5645,4.5768,4.5807,4.5807,4.5807,4.5807,4.5807,4.5807,4.5807,4.5807,4.5807,4.5807,4.5807,4.5807,4.5807,4.5807,4.5768,4.5471,4.5065,4.4427,4.3498,4.2531,4.1525,4.081,4.0507,4.0468,4.0468,4.0545,4.0681,4.0642,4.0623,4.0681,4.0739,4.0507,4.0255,4.0216,4.0004,3.9591,3.9282,3.9036,3.8746,3.8528,3.7702,3.7353,3.7154,3.7232,3.8205,3.8766,4.2097,4.1684,4.1993,4.2129,4.2268,4.3078,4.3764,4.4232,4.4429,4.3963,4.3593,4.457,4.4707,4.4609,4.5664,4.6289,4.6289,4.6289,4.6289,4.6289,4.6289,4.6289,4.6269,4.6212,4.6195,4.615,4.6075,4.5998,4.6032,4.5977,4.5848,4.5814,4.5807,4.5807,4.5807,4.5807,4.5807,4.5807,4.5807,4.5807,4.5807,4.5807,4.5807,4.5807,4.5807,4.5807,4.5807,4.5807,4.5162,4.4291,4.4136,4.3627,4.3015,4.3363,4.3073,4.3453,4.3227,4.2686,4.2937,4.3646,4.373,4.3846,4.3962,4.4639,4.4929,4.522,4.522,4.5239,4.5568,4.5807,4.5807,4.5807,4.5807,4.5807,4.5807,4.5807,4.5807,4.5807,4.5807,4.5807,4.5807,4.5807,4.5807,4.5807,4.5671,4.5284,4.4562,4.3576,4.2628,4.1661,4.0984,4.0565,4.0584,4.0642,4.0681,4.0623,4.0545,4.0526,4.0642,4.07,4.0758,4.0739,4.0545,4.0603,4.0661,4.0178,3.9559,3.9797,3.9623,3.8686,3.8178,3.8504,3.8532,3.8731,3.9054,4.2494,4.2552,4.3349,4.3559,4.377,4.4312,4.4704,4.4857,4.3998,4.4098,4.4764,4.5057,4.5097,4.5039,4.5859,4.6269,4.6289,4.6289,4.6289,4.6289,4.6289,4.6289,4.625,4.6173,4.616,4.6096,4.6016,4.5925,4.5927,4.5899,4.5834,4.5807,4.5807,4.5807,4.5807,4.5807,4.5807,4.5807,4.5807,4.5807,4.5807,4.5807,4.5807,4.5807,4.5807,4.5807,4.5807,4.5807,4.5761,4.5432,4.5065,4.4497,4.4188,4.3653,4.3015,4.2879,4.3073,4.286,4.2899,4.3498,4.3898,4.433,4.4987,4.4388,4.4001,4.4659,4.4852,4.4697,4.491,4.5278,4.5374,4.5664,4.5807,4.5807,4.5807,4.5807,4.5807,4.5807,4.5807,4.5807,4.5807,4.5807,4.5807,4.5807,4.5807,4.5439,4.4794,4.3769,4.2976,4.2048,4.1293,4.0777,4.0681,4.0681,4.0507,4.0448,4.0371,4.039,4.0584,4.0681,4.0777,4.0797,4.0797,4.0797,4.0777,4.0448,4.0062,4.0261,4.0117,3.9296,3.9127,3.9932,4.0048,3.9677,3.966,4.3395,4.3393,4.3609,4.3706,4.3628,4.3202,4.3867,4.4824,4.3357,4.3671,4.4922,4.5586,4.5527,4.5058,4.5879,4.6289,4.6289,4.6289,4.6289,4.6289,4.6289,4.6289,4.6269,4.6184,4.6155,4.6079,4.6008,4.5886,4.5874,4.5827,4.5807,4.5807,4.5807,4.5807,4.5807,4.5807,4.5807,4.5807,4.5807,4.5807,4.5807,4.5807,4.5807,4.5807,4.5807,4.5807,4.5807,4.5807,4.5413,4.4929,4.4755,4.4601,4.4543,4.3788,4.3634,4.3801,4.3414,4.3053,4.2937,4.3189,4.3421,4.2995,4.2918,4.2396,4.255,4.3827,4.4381,4.4149,4.4272,4.4697,4.5084,4.5471,4.5807,4.5807,4.5807,4.5807,4.5807,4.5807,4.5807,4.5807,4.5807,4.5807,4.5807,4.5807,4.5807,4.5471,4.4929,4.4214,4.3692,4.2899,4.1835,4.1274,4.0835,4.07,4.0487,4.0429,4.0448,4.0526,4.07,4.0777,4.0797,4.0797,4.0797,4.0797,4.0719,4.0487,4.0429,4.059,4.0308,3.9728,3.9753,4.0423,4.0412,4.0078,4.03,4.3925,4.4256,4.4276,4.451,4.4724,4.4336,4.4707,4.5273,4.4531,4.4668,4.543,4.5625,4.5253,4.4804,4.5703,4.6289,4.6289,4.6289,4.6289,4.6289,4.6289,4.6289,4.625,4.6209,4.6147,4.6084,4.5958,4.5867,4.5814,4.5807,4.5807,4.5807,4.5807,4.5807,4.5807,4.5807,4.5807,4.5807,4.5807,4.5807,4.5807,4.5807,4.5807,4.5807,4.5807,4.5807,4.5807,4.5807,4.5548,4.5258,4.52,4.5181,4.5142,4.4794,4.4291,4.3904,4.344,4.2976,4.2725,4.2763,4.2841,4.2357,4.2899,4.315,4.2009,4.3053,4.3111,4.3034,4.4168,4.4717,4.4949,4.5297,4.5664,4.5807,4.5807,4.5807,4.5807,4.5807,4.5807,4.5807,4.5807,4.5807,4.5807,4.5807,4.5787,4.5645,4.5065,4.4678,4.4175,4.373,4.2686,4.1796,4.139,4.0932,4.07,4.0681,4.07,4.0777,4.0739,4.0809,4.0815,4.0803,4.0797,4.0809,4.0809,4.0777,4.0758,4.0808,4.0829,4.0424,4.0524,4.0808,4.0638,4.0483,4.0563,4.4082,4.4961,4.5117,4.5585,4.6187,4.6113,4.6113,4.621,4.6093,4.5996,4.5957,4.5448,4.4686,4.4843,4.5449,4.5976,4.6289,4.6289,4.6289,4.6289,4.6289,4.6289,4.6269,4.6202,4.615,4.6045,4.5914,4.5848,4.5807,4.5807,4.5807,4.5807,4.5807,4.5807,4.5807,4.5807,4.5807,4.5807,4.5807,4.5807,4.5807,4.5807,4.5807,4.5807,4.5807,4.5807,4.5807,4.5807,4.5787,4.5749,4.5671,4.5645,4.5645,4.5439,4.4717,4.4175,4.3801,4.2918,4.2222,4.2725,4.255,4.2609,4.375,4.3556,4.2241,4.1854,4.1912,4.2454,4.3595,4.4349,4.4581,4.5045,4.5413,4.5807,4.5807,4.5703,4.5684,4.5749,4.5807,4.5807,4.5807,4.5807,4.5807,4.5807,4.5749,4.5606,4.5394,4.5026,4.4632,4.4226,4.3537,4.2667,4.2028,4.1564,4.1106,4.0803,4.0809,4.0544,4.0498,4.0692,4.0851,4.0867,4.0867,4.0825,4.082,4.0831,4.0829,4.0837,4.0861,4.089,4.0903,4.0926,4.0903,4.0754,4.0691,4.3574,4.5058,4.5742,4.6152,4.6172,4.5566,4.5644,4.6113,4.5566,4.5252,4.5487,4.5956,4.5917,4.5801,4.6035,4.6289,4.6289,4.6289,4.6289,4.6289,4.6289,4.6289,4.6269,4.6213,4.6175,4.6064,4.5908,4.5834,4.5807,4.5807,4.5807,4.5807,4.5807,4.5807,4.5807,4.5807,4.5807,4.5807,4.5807,4.5807,4.5807,4.5807,4.5807,4.5807,4.5807,4.5807,4.5807,4.5807,4.5807,4.5807,4.5807,4.5807,4.5768,4.5664,4.4968,4.4214,4.3878,4.3208,4.2705,4.2918,4.2744,4.2028,4.2705,4.2531,4.159,4.1158,4.1235,4.1332,4.2318,4.315,4.3595,4.4465,4.4987,4.5568,4.5807,4.5452,4.5258,4.5568,4.5807,4.5807,4.5807,4.5807,4.5807,4.5807,4.5807,4.571,4.571,4.5394,4.5297,4.4833,4.4323,4.3582,4.2796,4.2222,4.1757,4.0976,4.075,4.0432,4.0336,4.0699,4.093,4.0964,4.0933,4.0903,4.0878,4.0888,4.0903,4.0906,4.094,4.0981,4.098,4.0994,4.1058,4.1087,4.1064]}]]